[[{"header":{"parameterUnit":"m.s-1","parameterCategory":1,"la1":31.0,"la2":29.5877,"lo1":-88.7671,"lo2":-86.6584,"dx":0.0162,"dy":0.0185,"nx":115,"ny":88,"refTime":"2022-12-05T06:00:00:Z","depth":0,"parameterNumber":2,"parameterNumberName":"U-component_of_WINDS"},"data":[0.0,0.0,0.0,0.0,0.0,0.0,0.0,0.0,0.0,0.0,0.0,0.0,0.0,0.0,0.0,0.0,0.0,0.0,0.0,0.0,0.0,0.0,0.0,0.0,0.0,0.0,0.0,0.0,0.0,0.0,0.0,0.0,0.0,0.0,0.0,0.0,0.0,0.0,0.0,0.0,0.0,0.0,0.0,0.0,0.0,0.0,0.0,0.0,0.0,0.0,0.0,0.0,0.0,0.0,0.0,0.0,0.0,0.0,0.0,0.0,0.0,0.0,0.0,0.0,0.0,0.0,0.0,0.0,0.0,0.0,0.0,0.0,0.0,0.0,0.0,0.0,0.0,0.0,0.0,0.0,0.0,0.0,0.0,0.0,0.0,0.0,0.0,0.0,0.0,0.0,0.0,0.0,0.0,0.0,0.0,0.0,0.0,0.0,0.0,0.0,0.0,0.0,0.0,0.0,0.0,0.0,0.0,0.0,0.0,0.0,0.0,0.0,0.0,0.0,0.0,0.0,0.0,0.0,0.0,0.0,0.0,0.0,0.0,0.0,0.0,0.0,0.0,0.0,0.0,0.0,0.0,0.0,0.0,0.0,0.0,0.0,0.0,0.0,0.0,0.0,0.0,0.0,0.0,0.0,0.0,0.0,0.0,0.0,0.0,0.0,0.0,0.0,0.0,0.0,0.0,0.0,0.0,0.0,0.0,0.0,0.0,0.0,0.0,0.0,0.0,0.0,0.0,0.0,0.0,0.0,0.0,0.0,0.0,0.0,0.0,0.0,0.0,0.0,0.0,0.0,0.0,0.0,0.0,0.0,0.0,0.0,0.0,0.0,0.0,0.0,0.0,0.0,0.0,0.0,0.0,0.0,0.0,0.0,0.0,0.0,0.0,0.0,0.0,0.0,0.0,0.0,0.0,0.0,0.0,0.0,0.0,0.0,0.0,0.0,0.0,0.0,0.0,0.0,0.0,0.0,0.0,0.0,0.0,0.0,0.0,0.0,0.0,0.0,0.0,0.0,0.0,0.0,0.0,0.0,0.0,0.0,0.0,0.0,0.0,0.0,0.0,0.0,0.0,0.0,0.0,0.0,0.0,0.0,0.0,0.0,0.0,0.0,0.0,0.0,0.0,0.0,0.0,0.0,0.0,0.0,0.0,0.0,0.0,0.0,0.0,0.0,0.0,0.0,0.0,0.0,0.0,0.0,0.0,0.0,0.0,0.0,0.0,0.0,0.0,0.0,0.0,0.0,0.0,0.0,0.0,0.0,0.0,0.0,0.0,0.0,0.0,0.0,0.0,0.0,0.0,0.0,0.0,0.0,0.0,0.0,0.0,0.0,0.0,0.0,0.0,0.0,0.0,0.0,0.0,0.0,0.0,0.0,0.0,0.0,0.0,0.0,0.0,0.0,0.0,0.0,0.0,0.0,0.0,0.0,0.0,0.0,0.0,0.0,0.0,0.0,0.0,0.0,0.0,0.0,0.0,0.0,0.0,0.0,0.0,0.0,0.0,0.0,0.0,0.0,0.0,0.0,0.0,0.0,0.0,0.0,0.0,0.0,0.0,0.0,0.0,0.0,0.0,0.0,0.0,0.0,0.0,0.0,0.0,0.0,0.0,0.0,0.0,0.0,0.0,0.0,0.0,0.0,0.0,0.0,0.0,0.0,0.0,0.0,0.0,0.0,0.0,0.0,0.0,0.0,0.0,0.0,0.0,0.0,0.0,0.0,0.0,0.0,0.0,0.0,0.0,0.0,0.0,0.0,0.0,0.0,0.0,0.0,0.0,0.0,0.0,0.0,0.0,0.0,0.0,0.0,0.0,0.0,0.0,0.0,0.0,0.0,0.0,0.0,0.0,0.0,0.0,0.0,0.0,0.0,0.0,0.0,0.0,0.0,0.0,0.0,0.0,0.0,0.0,0.0,0.0,0.0,0.0,0.0,0.0,0.0,0.0,0.0,0.0,0.0,0.0,0.0,0.0,0.0,0.0,0.0,0.0,0.0,0.0,0.0,0.0,0.0,0.0,0.0,0.0,0.0,0.0,0.0,0.0,0.0,0.0,0.0,0.0,0.0,0.0,0.0,0.0,0.0,0.0,0.0,0.0,0.0,0.0,0.0,0.0,0.0,0.0,0.0,0.0,0.0,0.0,0.0,0.0,0.0,0.0,0.0,0.0,0.0,0.0,0.0,0.0,0.0,0.0,0.0,0.0,0.0,0.0,0.0,0.0,0.0,0.0,0.0,0.0,0.0,0.0,0.0,0.0,0.0,0.0,0.0,0.0,0.0,0.0,0.0,0.0,0.0,0.0,0.0,0.0,0.0,0.0,0.0,0.0,0.0,0.0,0.0,0.0,0.0,0.0,0.0,0.0,0.0,0.0,0.0,0.0,0.0,0.0,0.0,0.0,0.0,0.0,0.0,0.0,0.0,0.0,0.0,0.0,0.0,0.0,0.0,0.0,0.0,0.0,0.0,0.0,0.0,0.0,0.0,0.0,0.0,0.0,0.0,0.0,0.0,0.0,0.0,0.0,0.0,0.0,0.0,0.0,0.0,0.0,0.0,0.0,0.0,0.0,0.0,0.0,0.0,0.0,0.0,0.0,0.0,0.0,0.0,0.0,0.0,0.0,0.0,0.0,0.0,0.0,0.0,0.0,0.0,0.0,0.0,0.0,0.0,0.0,0.0,0.0,0.0,0.0,0.0,0.0,0.0,0.0,0.0,0.0,0.0,0.0,0.0,0.0,0.0,0.0,0.0,0.0,0.0,0.0,0.0,0.0,0.0,0.0,0.0,0.0,0.0,0.0,0.0,0.0,0.0,0.0,0.0,0.0,0.0,0.0,0.0,0.0,0.0,0.0,0.0,0.0,0.0,0.0,0.0,0.0,0.0,0.0,0.0,0.0,0.0,0.0,0.0,0.0,0.0,0.0,0.0,0.0,0.0,0.0,0.0,0.0,0.0,0.0,0.0,0.0,0.0,0.0,0.0,0.0,0.0,0.0,0.0,0.0,0.0,0.0,0.0,0.0,0.0,0.0,0.0,0.0,0.0,0.0,0.0,0.0,0.0,0.0,0.0,0.0,0.0,0.0,0.0,0.0,0.0,0.0,0.0,0.0,0.0,0.0,0.0,0.0,0.0,0.0,0.0,0.0,0.0,0.0,0.0,0.0,0.0,0.0,0.0,0.0,0.0,0.0,0.0,0.0,0.0,0.0,0.0,0.0,0.0,0.0,0.0,0.0,0.0,0.0,0.0,0.0,0.0,0.0,0.0,0.0,0.0,0.0,0.0,0.0,0.0,0.0,0.0,0.0,0.0,0.0,0.0,0.0,0.0,0.0,0.0,0.0,0.0,0.0,0.0,0.0,0.0,0.0,0.0,0.0,0.0,0.0,0.0,0.0,0.0,0.0,0.0,0.0,0.0,0.0,0.0,0.0,0.0,0.0,0.0,0.0,0.0,0.0,0.0,0.0,0.0,0.0,0.0,0.0,0.0,0.0,0.0,0.0,0.0,0.0,0.0,0.0,0.0,0.0,0.0,0.0,0.0,0.0,0.0,0.0,0.0,0.0,0.0,0.0,0.0,0.0,0.0,0.0,0.0,0.0,0.0,0.0,0.0,0.0,0.0,0.0,0.0,0.0,0.0,0.0,0.0,0.0,0.0,0.0,0.0,0.0,0.0,0.0,0.0,0.0,0.0,0.0,0.0,0.0,0.0,0.0,0.0,0.0,0.0,0.0,0.0,0.0,0.0,0.0,0.0,0.0,0.0,0.0,0.0,0.0,0.0,0.0,0.0,0.0,0.0,0.0,0.0,0.0,0.0,0.0,0.0,0.0,0.0,0.0,0.0,0.0,0.0,0.0,0.0,0.0,0.0,0.0,0.0,0.0,0.0,0.0,0.0,0.0,0.0,0.0,0.0,0.0,0.0,0.0,0.0,0.0,0.0,0.0,0.0,0.0,0.0,0.0,0.0,0.0,0.0,0.0,0.0,0.0,0.0,0.0,0.0,0.0,0.0,0.0,0.0,0.0,0.0,0.0,0.0,0.0,0.0,0.0,0.0,0.0,0.0,0.0,0.0,0.0,0.0,0.0,0.0,0.0,0.0,0.0,0.0,0.0,0.0,0.0,0.0,0.0,0.0,0.0,0.0,0.0,0.0,0.0,0.0,0.0,0.0,0.0,0.0,0.0,0.0,0.0,0.0,0.0,0.0,0.0,0.0,0.0,0.0,0.0,0.0,0.0,0.0,0.0,0.0,0.0,0.0,-2.2885,0.0,0.0,0.0,-1.8437,0.0,0.0,0.0,0.0,0.0,0.0,0.0,0.0,0.0,0.0,0.0,0.0,0.0,0.0,0.0,0.0,0.0,0.0,0.0,0.0,0.0,0.0,0.0,0.0,0.0,0.0,0.0,0.0,0.0,0.0,0.0,0.0,0.0,0.0,0.0,0.0,0.0,0.0,0.0,0.0,0.0,0.0,0.0,0.0,0.0,0.0,0.0,0.0,0.0,0.0,0.0,0.0,0.0,0.0,0.0,0.0,0.0,0.0,0.0,0.0,0.0,0.0,0.0,0.0,0.0,0.0,0.0,0.0,0.0,0.0,0.0,0.0,0.0,0.0,0.0,0.0,0.0,0.0,0.0,0.0,0.0,0.0,0.0,0.0,0.0,0.0,0.0,0.0,0.0,0.0,0.0,0.0,0.0,0.0,0.0,0.0,0.0,0.0,0.0,0.0,0.0,0.0,0.0,0.0,0.0,0.0,0.0,0.0,0.0,0.0,-2.2706,-2.1934,-2.1523,-2.0254,-1.8105,0.0,0.0,0.0,0.0,0.0,0.0,0.0,0.0,0.0,0.0,0.0,0.0,0.0,0.0,0.0,0.0,0.0,0.0,0.0,0.0,0.0,0.0,0.0,0.0,0.0,0.0,0.0,0.0,0.0,0.0,0.0,0.0,0.0,0.0,0.0,0.0,0.0,0.0,0.0,0.0,0.0,0.0,0.0,0.0,0.0,0.0,0.0,0.0,0.0,0.0,0.0,0.0,0.0,0.0,0.0,0.0,0.0,0.0,0.0,0.0,0.0,0.0,0.0,0.0,0.0,0.0,0.0,0.0,0.0,0.0,0.0,0.0,0.0,0.0,0.0,0.0,0.0,0.0,0.0,0.0,0.0,0.0,0.0,0.0,0.0,0.0,0.0,0.0,0.0,0.0,0.0,0.0,0.0,0.0,0.0,0.0,0.0,0.0,0.0,0.0,0.0,0.0,0.0,0.0,0.0,0.0,0.0,0.0,0.0,0.0,0.0,0.0,-2.1406,-2.0273,-1.8125,0.0,0.0,0.0,0.0,0.0,0.0,0.0,0.0,0.0,0.0,0.0,0.0,0.0,0.0,0.0,0.0,0.0,0.0,0.0,0.0,0.0,0.0,0.0,0.0,0.0,0.0,0.0,0.0,0.0,0.0,0.0,0.0,0.0,0.0,0.0,0.0,0.0,0.0,0.0,0.0,0.0,0.0,0.0,0.0,0.0,0.0,0.0,0.0,0.0,0.0,0.0,0.0,0.0,0.0,0.0,0.0,0.0,0.0,0.0,0.0,0.0,0.0,0.0,0.0,0.0,0.0,0.0,0.0,0.0,0.0,0.0,0.0,0.0,0.0,0.0,0.0,0.0,0.0,0.0,0.0,0.0,0.0,0.0,0.0,0.0,0.0,0.0,0.0,0.0,0.0,0.0,0.0,0.0,0.0,0.0,0.0,0.0,0.0,0.0,0.0,0.0,0.0,0.0,0.0,0.0,0.0,0.0,0.0,0.0,0.0,-1.9828,-2.0581,-1.9938,0.0,-1.8125,0.0,0.0,0.0,0.0,0.0,0.0,0.0,0.0,0.0,0.0,0.0,0.0,0.0,0.0,0.0,0.0,0.0,0.0,0.0,0.0,0.0,0.0,0.0,0.0,0.0,0.0,0.0,0.0,0.0,0.0,0.0,0.0,0.0,0.0,0.0,0.0,0.0,0.0,0.0,0.0,0.0,0.0,0.0,0.0,0.0,0.0,0.0,0.0,0.0,0.0,0.0,0.0,0.0,0.0,0.0,0.0,0.0,0.0,0.0,0.0,0.0,0.0,0.0,0.0,0.0,0.0,0.0,0.0,0.0,0.0,0.0,0.0,0.0,0.0,0.0,0.0,0.0,0.0,0.0,0.0,0.0,0.0,0.0,0.0,0.0,0.0,0.0,0.0,0.0,0.0,0.0,0.0,0.0,0.0,0.0,0.0,0.0,0.0,0.0,0.0,0.0,0.0,0.0,0.0,0.0,0.0,0.0,0.0,0.0,0.0,-2.0086,-2.0509,-1.9213,-1.8123,0.0,0.0,0.0,0.0,0.0,0.0,0.0,0.0,0.0,0.0,0.0,0.0,0.0,0.0,0.0,0.0,0.0,0.0,0.0,0.0,0.0,0.0,0.0,0.0,0.0,0.0,0.0,0.0,0.0,0.0,0.0,0.0,0.0,0.0,0.0,0.0,0.0,0.0,0.0,0.0,0.0,0.0,0.0,0.0,0.0,0.0,0.0,0.0,0.0,0.0,0.0,0.0,0.0,0.0,0.0,0.0,0.0,0.0,0.0,0.0,0.0,0.0,0.0,0.0,0.0,0.0,0.0,0.0,0.0,0.0,0.0,0.0,0.0,0.0,0.0,0.0,0.0,0.0,0.0,0.0,0.0,0.0,0.0,0.0,0.0,0.0,0.0,0.0,0.0,0.0,0.0,0.0,0.0,0.0,0.0,0.0,0.0,0.0,0.0,0.0,0.0,0.0,0.0,0.0,0.0,0.0,0.0,0.0,0.0,0.0,-1.9955,-2.0098,-2.0129,-1.9186,-1.7956,-1.6401,0.0,0.0,0.0,0.0,0.0,0.0,0.0,0.0,0.0,0.0,0.0,0.0,0.0,0.0,0.0,0.0,0.0,0.0,0.0,0.0,0.0,0.0,0.0,0.0,0.0,0.0,0.0,0.0,0.0,0.0,0.0,0.0,0.0,0.0,0.0,0.0,0.0,0.0,0.0,0.0,0.0,0.0,0.0,0.0,0.0,0.0,0.0,0.0,0.0,0.0,0.0,0.0,0.0,0.0,0.0,0.0,0.0,0.0,0.0,0.0,0.0,0.0,0.0,0.0,0.0,0.0,0.0,0.0,0.0,0.0,0.0,0.0,0.0,0.0,0.0,0.0,0.0,0.0,0.0,0.0,0.0,0.0,0.0,0.0,0.0,0.0,0.0,0.0,0.0,0.0,0.0,0.0,0.0,0.0,0.0,0.0,0.0,0.0,0.0,0.0,0.0,0.0,0.0,0.0,0.0,0.0,0.0,0.0,-2.1189,-1.9941,-1.9285,-1.9453,-1.9948,-1.8763,0.0,0.0,0.0,0.0,0.0,0.0,0.0,0.0,0.0,0.0,0.0,0.0,0.0,0.0,0.0,0.0,0.0,0.0,0.0,0.0,0.0,0.0,0.0,0.0,0.0,0.0,0.0,0.0,0.0,0.0,0.0,0.0,0.0,0.0,0.0,0.0,0.0,0.0,0.0,0.0,0.0,0.0,0.0,0.0,0.0,0.0,0.0,0.0,0.0,0.0,0.0,0.0,0.0,0.0,0.0,0.0,0.0,0.0,0.0,0.0,0.0,0.0,0.0,0.0,0.0,0.0,0.0,0.0,0.0,0.0,0.0,0.0,0.0,0.0,0.0,0.0,0.0,0.0,0.0,0.0,0.0,0.0,0.0,0.0,0.0,0.0,0.0,0.0,0.0,0.0,0.0,0.0,0.0,0.0,0.0,0.0,0.0,0.0,0.0,0.0,0.0,0.0,0.0,0.0,0.0,0.0,0.0,0.0,0.0,-1.8241,-1.7789,-1.8899,-2.1478,-1.8226,-1.6517,0.0,0.0,0.0,0.0,0.0,0.0,0.0,0.0,0.0,0.0,0.0,0.0,0.0,0.0,0.0,0.0,0.0,0.0,0.0,0.0,0.0,0.0,0.0,0.0,0.0,0.0,0.0,0.0,0.0,0.0,0.0,0.0,0.0,0.0,0.0,0.0,0.0,0.0,0.0,0.0,0.0,0.0,0.0,0.0,0.0,0.0,0.0,0.0,0.0,0.0,0.0,0.0,0.0,0.0,0.0,0.0,0.0,0.0,0.0,0.0,0.0,0.0,0.0,0.0,0.0,0.0,0.0,0.0,0.0,0.0,0.0,0.0,0.0,0.0,0.0,0.0,0.0,0.0,0.0,0.0,0.0,0.0,0.0,0.0,0.0,0.0,0.0,0.0,0.0,0.0,0.0,0.0,0.0,0.0,0.0,0.0,0.0,0.0,0.0,0.0,0.0,0.0,0.0,0.0,0.0,0.0,0.0,0.0,0.0,-1.7332,-1.8178,-1.9528,-2.1172,-1.7665,-1.558,0.0,0.0,0.0,0.0,0.0,0.0,0.0,0.0,0.0,0.0,0.0,0.0,0.0,0.0,0.0,0.0,0.0,0.0,0.0,0.0,0.0,0.0,0.0,0.0,0.0,0.0,0.0,0.0,0.0,0.0,0.0,0.0,0.0,0.0,0.0,0.0,0.0,0.0,0.0,0.0,0.0,0.0,0.0,0.0,0.0,0.0,0.0,0.0,0.0,0.0,0.0,0.0,0.0,0.0,0.0,0.0,0.0,0.0,0.0,0.0,0.0,0.0,0.0,0.0,0.0,0.0,0.0,0.0,0.0,0.0,0.0,0.0,0.0,0.0,0.0,0.0,0.0,0.0,0.0,0.0,0.0,0.0,0.0,0.0,0.0,0.0,0.0,0.0,0.0,0.0,0.0,0.0,0.0,0.0,0.0,0.0,0.0,0.0,0.0,0.0,0.0,0.0,0.0,0.0,0.0,0.0,0.0,0.0,-1.6519,-1.9003,-2.1339,-2.1075,-1.8161,-1.8487,-1.6155,0.0,0.0,0.0,0.0,0.0,0.0,0.0,0.0,0.0,0.0,0.0,0.0,0.0,0.0,0.0,0.0,0.0,0.0,0.0,0.0,0.0,0.0,0.0,0.0,0.0,0.0,0.0,0.0,0.0,0.0,0.0,0.0,0.0,0.0,0.0,0.0,0.0,0.0,0.0,0.0,0.0,0.0,0.0,0.0,0.0,0.0,0.0,0.0,0.0,0.0,0.0,0.0,0.0,0.0,0.0,0.0,0.0,0.0,0.0,0.0,0.0,0.0,0.0,0.0,0.0,0.0,0.0,0.0,0.0,0.0,0.0,0.0,0.0,0.0,0.0,0.0,0.0,0.0,0.0,0.0,0.0,0.0,0.0,0.0,0.0,0.0,0.0,0.0,0.0,0.0,0.0,0.0,0.0,0.0,0.0,0.0,0.0,0.0,0.0,0.0,0.0,0.0,0.0,0.0,0.0,0.0,0.0,0.0,0.0,-1.8178,-1.9472,-2.0562,-2.1174,-1.7523,-1.5479,0.0,0.0,0.0,0.0,0.0,0.0,0.0,0.0,0.0,0.0,0.0,0.0,0.0,0.0,0.0,0.0,0.0,0.0,0.0,0.0,0.0,0.0,0.0,0.0,0.0,0.0,0.0,0.0,0.0,0.0,0.0,0.0,0.0,0.0,0.0,0.0,0.0,0.0,0.0,0.0,0.0,0.0,0.0,0.0,0.0,0.0,0.0,0.0,0.0,0.0,0.0,0.0,0.0,0.0,0.0,0.0,0.0,0.0,0.0,0.0,0.0,0.0,0.0,0.0,0.0,0.0,0.0,0.0,0.0,0.0,0.0,0.0,0.0,0.0,0.0,0.0,0.0,0.0,0.0,0.0,0.0,0.0,0.0,0.0,0.0,0.0,0.0,0.0,0.0,0.0,0.0,0.0,0.0,0.0,0.0,0.0,0.0,0.0,0.0,0.0,0.0,0.0,0.0,0.0,0.0,0.0,0.0,0.0,0.0,-2.0146,-2.122,-2.215,-2.2845,-1.8284,-1.597,-1.628,0.0,0.0,0.0,0.0,0.0,0.0,0.0,0.0,0.0,0.0,0.0,0.0,0.0,0.0,0.0,0.0,0.0,0.0,0.0,0.0,0.0,0.0,0.0,0.0,0.0,0.0,0.0,0.0,0.0,0.0,0.0,0.0,0.0,0.0,0.0,0.0,0.0,0.0,0.0,0.0,0.0,0.0,0.0,0.0,0.0,0.0,0.0,0.0,0.0,0.0,0.0,0.0,0.0,0.0,0.0,0.0,0.0,0.0,0.0,0.0,0.0,0.0,0.0,0.0,0.0,0.0,0.0,0.0,0.0,0.0,0.0,0.0,0.0,0.0,0.0,0.0,0.0,0.0,0.0,0.0,0.0,0.0,0.0,0.0,0.0,0.0,0.0,0.0,0.0,0.0,0.0,0.0,0.0,0.0,0.0,0.0,0.0,0.0,0.0,0.0,0.0,0.0,0.0,0.0,0.0,0.0,0.0,0.0,-2.4225,-2.587,-2.5568,-2.3183,-2.0473,-1.7552,0.0,0.0,0.0,0.0,0.0,0.0,0.0,0.0,0.0,0.0,0.0,0.0,0.0,0.0,0.0,0.0,0.0,0.0,0.0,0.0,0.0,0.0,0.0,0.0,0.0,0.0,0.0,0.0,0.0,0.0,0.0,0.0,0.0,0.0,0.0,0.0,0.0,0.0,0.0,0.0,0.0,0.0,0.0,0.0,0.0,0.0,0.0,0.0,0.0,0.0,0.0,0.0,0.0,0.0,0.0,0.0,0.0,0.0,0.0,0.0,0.0,0.0,0.0,0.0,0.0,0.0,0.0,0.0,0.0,0.0,0.0,0.0,0.0,0.0,0.0,0.0,0.0,0.0,0.0,0.0,0.0,0.0,0.0,0.0,0.0,0.0,0.0,0.0,0.0,0.0,0.0,0.0,0.0,0.0,0.0,0.0,0.0,0.0,0.0,0.0,0.0,0.0,0.0,0.0,0.0,0.0,0.0,0.0,0.0,-2.587,-2.7582,-2.7843,-2.6506,-2.2282,-1.9245,0.0,0.0,0.0,0.0,0.0,0.0,0.0,0.0,0.0,0.0,0.0,0.0,0.0,0.0,0.0,0.0,0.0,0.0,0.0,0.0,0.0,0.0,0.0,0.0,0.0,0.0,0.0,0.0,0.0,0.0,0.0,0.0,0.0,0.0,0.0,0.0,0.0,0.0,0.0,0.0,0.0,0.0,0.0,0.0,0.0,0.0,0.0,0.0,0.0,0.0,0.0,0.0,0.0,0.0,0.0,0.0,0.0,0.0,0.0,0.0,0.0,0.0,0.0,0.0,0.0,0.0,0.0,0.0,0.0,0.0,0.0,0.0,0.0,0.0,0.0,0.0,0.0,0.0,0.0,0.0,0.0,0.0,0.0,0.0,0.0,0.0,0.0,0.0,0.0,0.0,0.0,0.0,0.0,0.0,0.0,0.0,0.0,0.0,0.0,0.0,0.0,0.0,0.0,0.0,0.0,0.0,0.0,0.0,-2.4044,-2.7023,-2.8718,-2.9357,-2.8877,-2.4351,-2.0985,0.0,0.0,0.0,0.0,0.0,0.0,0.0,0.0,0.0,0.0,0.0,0.0,0.0,0.0,0.0,0.0,0.0,0.0,0.0,0.0,0.0,0.0,0.0,0.0,0.0,0.0,0.0,0.0,0.0,0.0,0.0,0.0,0.0,0.0,0.0,0.0,0.0,0.0,0.0,0.0,0.0,0.0,0.0,0.0,0.0,0.0,0.0,0.0,0.0,0.0,0.0,0.0,0.0,0.0,0.0,0.0,0.0,0.0,0.0,0.0,0.0,0.0,0.0,0.0,0.0,0.0,0.0,0.0,0.0,0.0,0.0,0.0,0.0,0.0,0.0,0.0,0.0,0.0,0.0,0.0,0.0,0.0,0.0,0.0,0.0,0.0,0.0,0.0,0.0,0.0,0.0,0.0,0.0,0.0,0.0,0.0,0.0,0.0,0.0,0.0,0.0,0.0,0.0,0.0,0.0,0.0,0.0,0.0,-2.5378,-2.7778,-2.9365,-3.0176,-3.0061,-2.6294,-2.2611,0.0,0.0,0.0,0.0,0.0,0.0,0.0,0.0,0.0,0.0,0.0,0.0,0.0,0.0,0.0,0.0,0.0,0.0,0.0,0.0,0.0,0.0,0.0,0.0,0.0,0.0,0.0,0.0,0.0,0.0,0.0,0.0,0.0,0.0,0.0,0.0,0.0,0.0,0.0,0.0,0.0,0.0,0.0,0.0,0.0,0.0,0.0,0.0,0.0,0.0,0.0,0.0,0.0,0.0,0.0,0.0,0.0,0.0,0.0,0.0,0.0,0.0,0.0,0.0,0.0,0.0,0.0,0.0,0.0,0.0,0.0,0.0,0.0,0.0,0.0,0.0,0.0,0.0,0.0,0.0,0.0,0.0,0.0,0.0,0.0,0.0,0.0,0.0,0.0,0.0,0.0,0.0,0.0,0.0,0.0,0.0,0.0,0.0,0.0,0.0,0.0,0.0,0.0,0.0,0.0,0.0,0.0,0.0,-2.6119,-2.8587,-2.9546,-3.0037,-3.0018,-2.6695,-2.3361,0.0,0.0,0.0,0.0,0.0,0.0,0.0,0.0,0.0,0.0,0.0,0.0,0.0,0.0,0.0,0.0,0.0,0.0,0.0,0.0,0.0,0.0,0.0,0.0,0.0,0.0,0.0,0.0,0.0,0.0,0.0,0.0,0.0,0.0,0.0,0.0,0.0,0.0,0.0,0.0,0.0,0.0,0.0,0.0,0.0,0.0,0.0,0.0,-1.4327,0.0,0.0,0.0,0.0,0.0,0.0,0.0,0.0,0.0,0.0,0.0,0.0,0.0,0.0,0.0,0.0,0.0,0.0,0.0,0.0,0.0,0.0,0.0,0.0,0.0,0.0,0.0,0.0,0.0,0.0,0.0,0.0,0.0,0.0,0.0,0.0,0.0,0.0,0.0,0.0,0.0,0.0,0.0,0.0,0.0,0.0,0.0,0.0,0.0,0.0,0.0,0.0,0.0,0.0,0.0,0.0,0.0,0.0,0.0,-2.6295,-2.8679,-2.954,-2.9945,-2.985,-2.7805,-2.4613,0.0,0.0,0.0,0.0,0.0,0.0,0.0,0.0,0.0,0.0,0.0,0.0,0.0,0.0,0.0,0.0,0.0,0.0,0.0,0.0,0.0,0.0,0.0,0.0,0.0,0.0,0.0,0.0,0.0,0.0,0.0,0.0,0.0,0.0,0.0,0.0,0.0,0.0,0.0,0.0,0.0,0.0,0.0,0.0,0.0,0.0,0.0,0.0,0.0,0.0,0.0,0.0,0.0,0.0,0.0,0.0,0.0,0.0,0.0,0.0,0.0,0.0,0.0,0.0,0.0,0.0,0.0,0.0,0.0,0.0,0.0,0.0,0.0,0.0,0.0,0.0,0.0,0.0,0.0,0.0,0.0,0.0,0.0,0.0,0.0,0.0,0.0,0.0,0.0,0.0,0.0,0.0,0.0,0.0,0.0,0.0,0.0,0.0,0.0,0.0,0.0,0.0,0.0,0.0,0.0,0.0,0.0,-2.307,-2.6121,-2.8652,-2.9439,-2.9789,-2.9789,-2.8986,-2.5836,-2.0193,0.0,0.0,0.0,0.0,0.0,0.0,0.0,0.0,0.0,0.0,0.0,0.0,0.0,0.0,0.0,0.0,0.0,0.0,0.0,0.0,0.0,0.0,0.0,0.0,0.0,0.0,0.0,0.0,0.0,0.0,0.0,0.0,0.0,0.0,0.0,0.0,0.0,0.0,-1.1341,-1.3853,0.0,0.0,0.0,0.0,0.0,0.0,0.0,0.0,-1.4629,0.0,0.0,0.0,0.0,0.0,0.0,0.0,0.0,0.0,0.0,0.0,0.0,0.0,0.0,0.0,0.0,0.0,0.0,0.0,0.0,0.0,0.0,0.0,0.0,0.0,0.0,0.0,0.0,0.0,0.0,0.0,0.0,0.0,0.0,0.0,0.0,0.0,0.0,0.0,0.0,0.0,0.0,0.0,0.0,0.0,0.0,0.0,0.0,0.0,0.0,0.0,0.0,0.0,0.0,0.0,0.0,-2.2969,-2.3518,-2.5642,-2.9406,-2.9429,-2.9395,-2.9395,-2.925,-2.6135,-2.0017,0.0,0.0,0.0,0.0,0.0,0.0,0.0,0.0,0.0,0.0,0.0,0.0,0.0,0.0,0.0,0.0,0.0,0.0,0.0,0.0,0.0,0.0,0.0,0.0,0.0,0.0,0.0,0.0,0.0,0.0,0.0,0.0,0.0,0.0,0.0,0.0,0.0,0.0,0.0,-1.7097,-1.7923,0.0,0.0,0.0,0.0,0.0,0.0,0.0,0.0,-1.4605,0.0,0.0,0.0,0.0,0.0,0.0,0.0,0.0,0.0,0.0,0.0,0.0,0.0,0.0,0.0,0.0,0.0,0.0,0.0,0.0,0.0,0.0,0.0,0.0,0.0,0.0,0.0,0.0,0.0,0.0,0.0,0.0,0.0,0.0,0.0,0.0,0.0,0.0,0.0,0.0,0.0,0.0,0.0,0.0,0.0,0.0,0.0,0.0,0.0,0.0,0.0,0.0,0.0,0.0,0.0,-2.1654,-2.4523,-2.7112,-2.9382,-2.9365,-2.9304,-2.9275,-2.8868,-2.5764,0.0,0.0,0.0,0.0,0.0,0.0,0.0,0.0,0.0,0.0,0.0,0.0,0.0,0.0,0.0,0.0,0.0,0.0,0.0,0.0,0.0,0.0,0.0,0.0,0.0,0.0,0.0,0.0,0.0,0.0,0.0,0.0,0.0,0.0,0.0,0.0,0.0,0.0,0.0,0.0,-1.7601,-1.87,-2.0385,0.0,0.0,0.0,0.0,0.0,0.0,-1.5962,-1.4616,0.0,0.0,0.0,0.0,0.0,0.0,0.0,0.0,0.0,0.0,0.0,0.0,0.0,0.0,0.0,0.0,0.0,0.0,0.0,0.0,0.0,0.0,0.0,0.0,0.0,0.0,0.0,0.0,0.0,0.0,0.0,0.0,0.0,0.0,0.0,0.0,0.0,0.0,0.0,0.0,0.0,0.0,0.0,0.0,0.0,0.0,0.0,0.0,0.0,0.0,0.0,0.0,0.0,0.0,0.0,-1.9813,-2.503,-2.8343,-2.9439,-2.95,-2.949,-2.9453,-2.8664,-2.5457,0.0,0.0,0.0,0.0,0.0,0.0,0.0,0.0,0.0,0.0,0.0,0.0,0.0,0.0,0.0,0.0,0.0,0.0,0.0,0.0,0.0,0.0,0.0,0.0,0.0,0.0,0.0,0.0,0.0,0.0,0.0,0.0,0.0,0.0,0.0,0.0,0.0,0.0,0.0,0.0,0.0,-1.9122,-2.1498,-1.9742,0.0,0.0,0.0,0.0,-1.8922,-1.7546,0.0,0.0,0.0,0.0,0.0,0.0,0.0,0.0,0.0,0.0,0.0,0.0,0.0,0.0,0.0,0.0,0.0,0.0,0.0,0.0,0.0,0.0,0.0,0.0,0.0,0.0,0.0,0.0,0.0,0.0,0.0,0.0,0.0,0.0,0.0,0.0,0.0,0.0,0.0,0.0,0.0,0.0,0.0,0.0,0.0,0.0,0.0,0.0,0.0,0.0,0.0,0.0,0.0,0.0,0.0,0.0,-1.9636,-2.3824,-2.7388,-3.0094,-3.0139,-3.011,-3.008,-2.9315,-2.587,0.0,0.0,0.0,0.0,0.0,0.0,0.0,0.0,0.0,0.0,0.0,0.0,0.0,0.0,0.0,0.0,0.0,0.0,0.0,0.0,0.0,0.0,0.0,0.0,0.0,0.0,0.0,0.0,0.0,0.0,0.0,0.0,0.0,0.0,0.0,0.0,0.0,0.0,0.0,0.0,0.0,-1.9638,-1.937,-1.9014,-1.8985,0.0,0.0,-2.1319,-2.3391,-2.2967,0.0,0.0,0.0,0.0,0.0,0.0,0.0,0.0,0.0,0.0,0.0,0.0,0.0,0.0,0.0,0.0,0.0,0.0,0.0,0.0,0.0,0.0,0.0,0.0,0.0,0.0,0.0,0.0,0.0,0.0,0.0,0.0,0.0,0.0,0.0,0.0,0.0,0.0,0.0,0.0,0.0,0.0,0.0,0.0,0.0,0.0,0.0,0.0,0.0,0.0,0.0,0.0,0.0,0.0,0.0,-1.8404,-2.0325,-2.5542,-2.9156,-3.0882,-3.0895,-3.0668,-3.021,-2.9427,-2.5739,0.0,0.0,0.0,0.0,0.0,0.0,0.0,0.0,0.0,0.0,0.0,0.0,0.0,0.0,0.0,0.0,0.0,0.0,0.0,0.0,0.0,0.0,0.0,0.0,0.0,0.0,0.0,0.0,0.0,0.0,0.0,0.0,0.0,0.0,0.0,0.0,0.0,0.0,0.0,0.0,0.0,0.0,-2.2513,-2.1634,0.0,0.0,0.0,-2.2279,-2.3557,0.0,0.0,0.0,0.0,0.0,0.0,0.0,0.0,0.0,0.0,0.0,0.0,0.0,0.0,0.0,0.0,0.0,0.0,0.0,0.0,0.0,0.0,0.0,0.0,0.0,0.0,0.0,0.0,0.0,0.0,0.0,0.0,0.0,0.0,0.0,0.0,0.0,0.0,0.0,0.0,0.0,0.0,0.0,0.0,0.0,0.0,0.0,0.0,0.0,0.0,0.0,0.0,0.0,0.0,0.0,0.0,0.0,-2.0757,-2.7216,-3.0974,-3.169,-3.1715,-3.1421,-3.0803,-2.9831,0.0,0.0,0.0,0.0,0.0,0.0,0.0,0.0,0.0,0.0,0.0,0.0,0.0,0.0,0.0,0.0,0.0,0.0,0.0,0.0,0.0,0.0,0.0,0.0,0.0,0.0,0.0,-0.5794,0.0,0.0,0.0,0.0,0.0,0.0,0.0,0.0,0.0,0.0,0.0,0.0,0.0,0.0,-2.1533,-2.4454,-2.3767,-2.375,0.0,0.0,-2.3691,-2.4578,-2.5262,-2.4306,0.0,0.0,0.0,0.0,0.0,0.0,0.0,0.0,0.0,0.0,0.0,0.0,0.0,0.0,0.0,0.0,0.0,0.0,0.0,0.0,0.0,0.0,0.0,0.0,0.0,0.0,0.0,0.0,0.0,0.0,0.0,0.0,0.0,0.0,0.0,0.0,0.0,0.0,0.0,0.0,0.0,0.0,0.0,0.0,0.0,0.0,0.0,0.0,0.0,0.0,0.0,0.0,0.0,0.0,-1.9834,-2.0729,-2.7777,-3.1839,-3.2485,-3.2509,-3.2491,-3.2417,-3.0913,-2.6704,0.0,0.0,0.0,0.0,0.0,0.0,0.0,0.0,0.0,0.0,0.0,0.0,0.0,0.0,0.0,0.0,0.0,0.0,0.0,0.0,0.0,0.0,0.0,0.0,0.0,0.0,0.0,0.0,0.0,0.0,0.0,0.0,0.0,0.0,0.0,0.0,0.0,0.0,0.0,0.0,0.0,-1.949,-2.2484,-2.3951,-2.5538,0.0,-2.7139,-2.6976,-2.853,-2.9168,-2.7136,-2.0127,0.0,0.0,0.0,0.0,0.0,0.0,0.0,0.0,0.0,0.0,0.0,0.0,0.0,0.0,0.0,0.0,0.0,0.0,0.0,0.0,0.0,0.0,0.0,0.0,0.0,0.0,0.0,0.0,0.0,0.0,0.0,0.0,0.0,0.0,0.0,0.0,0.0,0.0,0.0,0.0,0.0,0.0,0.0,0.0,0.0,0.0,0.0,0.0,0.0,0.0,0.0,0.0,0.0,-2.0005,-2.1372,-2.8493,-3.2561,-3.3293,-3.3348,-3.3109,-3.2601,-3.1843,-2.8558,0.0,0.0,0.0,0.0,0.0,0.0,0.0,0.0,0.0,0.0,0.0,0.0,0.0,0.0,0.0,0.0,0.0,0.0,0.0,0.0,0.0,0.0,0.0,0.0,0.0,0.0,0.0,0.0,-1.3054,-1.3345,-1.1323,0.0,0.0,0.0,0.0,0.0,0.0,0.0,0.0,0.0,0.0,-2.2638,-2.5338,-2.5788,0.0,0.0,-2.7326,-2.6765,-2.7855,-2.7479,-2.5658,-2.1536,-1.9756,0.0,0.0,0.0,0.0,0.0,0.0,0.0,0.0,0.0,0.0,0.0,0.0,0.0,0.0,0.0,0.0,0.0,0.0,0.0,0.0,0.0,0.0,0.0,0.0,0.0,0.0,0.0,0.0,0.0,0.0,0.0,0.0,0.0,0.0,0.0,0.0,0.0,0.0,0.0,0.0,0.0,0.0,0.0,0.0,0.0,0.0,0.0,0.0,0.0,0.0,0.0,0.0,-2.0123,-2.1812,-2.8925,-3.2999,-3.3788,-3.3807,-3.3532,-3.2981,-3.2515,-2.9831,0.0,0.0,0.0,0.0,0.0,0.0,0.0,0.0,0.0,0.0,0.0,0.0,0.0,0.0,0.0,0.0,0.0,0.0,0.0,0.0,0.0,0.0,0.0,0.0,0.0,0.0,0.0,0.0,-1.4211,-1.3904,-1.1044,0.0,0.0,0.0,0.0,0.0,0.0,0.0,0.0,0.0,0.0,-2.4533,-2.7163,-2.6739,-2.6622,-2.787,-2.6671,-2.5755,-2.6129,-2.6023,-2.4952,-2.2114,0.0,0.0,0.0,0.0,0.0,0.0,0.0,0.0,0.0,0.0,0.0,0.0,0.0,0.0,0.0,0.0,0.0,0.0,0.0,0.0,0.0,0.0,0.0,0.0,0.0,0.0,0.0,-0.9735,0.0,0.0,-0.9698,0.0,0.0,0.0,0.0,0.0,0.0,0.0,0.0,0.0,0.0,0.0,0.0,0.0,0.0,0.0,0.0,0.0,0.0,0.0,0.0,0.0,0.0,-2.0123,-2.1867,-2.8932,-3.3005,-3.377,-3.3807,-3.377,-3.3733,-3.2938,-3.0148,-2.5154,0.0,0.0,0.0,0.0,0.0,0.0,0.0,0.0,0.0,0.0,0.0,0.0,0.0,0.0,0.0,0.0,0.0,0.0,0.0,0.0,0.0,0.0,0.0,0.0,0.0,0.0,-0.75,-0.9582,-1.0933,0.0,0.0,0.0,0.0,0.0,0.0,0.0,0.0,0.0,-2.145,-2.2818,-2.4162,-2.6965,-2.6388,-2.5921,-2.6523,-2.5373,-2.4255,-2.392,-2.567,-2.5767,0.0,0.0,0.0,0.0,0.0,0.0,0.0,0.0,0.0,0.0,0.0,0.0,0.0,0.0,0.0,0.0,0.0,0.0,0.0,0.0,0.0,0.0,0.0,0.0,0.0,0.0,0.0,-1.4688,-1.3715,0.0,0.0,0.0,0.0,0.0,0.0,0.0,0.0,0.0,0.0,0.0,-2.2162,-2.2662,0.0,0.0,0.0,0.0,0.0,0.0,0.0,0.0,0.0,0.0,0.0,0.0,-2.0123,-2.2051,-2.9457,-3.3505,-3.3721,-3.378,-3.378,-3.3726,-3.2757,-2.9613,-2.4086,0.0,0.0,0.0,0.0,0.0,0.0,0.0,0.0,0.0,0.0,0.0,0.0,0.0,0.0,0.0,0.0,0.0,0.0,0.0,0.0,0.0,0.0,0.0,0.0,0.0,-0.9912,0.0,0.0,0.0,0.0,0.0,0.0,0.0,0.0,0.0,0.0,-1.5268,-1.8508,-2.1798,-2.3266,-2.4622,-2.6227,-2.6503,-2.675,0.0,0.0,0.0,0.0,0.0,0.0,0.0,0.0,0.0,0.0,0.0,0.0,0.0,-2.242,-2.2485,-1.8331,-1.7744,-1.7945,-1.8068,0.0,0.0,0.0,0.0,0.0,0.0,0.0,0.0,0.0,0.0,0.0,0.0,0.0,0.0,-1.8458,-1.7249,-1.757,0.0,0.0,0.0,0.0,0.0,0.0,0.0,0.0,-2.2858,-2.4725,-2.5899,-2.6426,-2.5991,-2.4699,-2.3862,-2.1036,0.0,0.0,0.0,0.0,0.0,0.0,0.0,0.0,-2.0924,-2.3601,-3.0228,-3.3739,-3.3671,-3.3712,-3.3652,-3.3526,-3.2379,-2.9925,-2.6053,-2.6163,-2.3702,0.0,0.0,0.0,0.0,0.0,0.0,0.0,0.0,0.0,0.0,0.0,0.0,0.0,0.0,0.0,0.0,0.0,0.0,0.0,0.0,0.0,0.0,0.0,-1.1232,0.0,0.0,0.0,0.0,0.0,0.0,0.0,0.0,0.0,-1.4393,-1.7887,-2.1226,-2.3323,-2.4735,-2.579,-2.6375,0.0,0.0,0.0,0.0,0.0,0.0,0.0,-2.3422,-2.426,-2.3191,-2.2392,-2.2996,-2.4679,-2.5696,-2.4784,0.0,0.0,-2.2441,-2.1686,-2.1862,-2.199,-2.2858,-2.3473,-2.3155,-2.4497,-2.5917,0.0,0.0,0.0,0.0,-1.8975,0.0,0.0,0.0,-2.1791,-2.1157,0.0,-2.1269,0.0,0.0,0.0,0.0,-1.6585,-2.0861,0.0,0.0,-2.9973,-3.1991,-3.1339,-3.1404,-3.105,-3.0147,-2.8738,-2.7001,-2.4897,-2.2278,-1.8324,0.0,0.0,0.0,0.0,0.0,-2.2584,-2.6487,-3.1247,-3.3657,-3.3605,-3.3601,-3.3473,-3.3157,-3.1858,-3.1008,-3.0612,-2.6437,-2.3518,-2.2418,-1.1614,0.0,0.0,0.0,0.0,0.0,0.0,0.0,0.0,0.0,0.0,0.0,0.0,0.0,0.0,0.0,0.0,0.0,0.0,0.0,0.0,-1.174,0.0,0.0,0.0,0.0,0.0,0.0,0.0,0.0,0.0,-1.9482,-1.8108,-2.0306,-2.3046,-2.587,0.0,0.0,0.0,0.0,-2.7241,-2.6573,-2.5449,-2.4384,-2.3333,-2.5623,-2.7585,-2.769,0.0,0.0,-2.8274,-2.8263,-2.7934,-2.5442,-2.8271,-3.0271,-2.8324,-2.6399,-2.5417,-2.5923,-2.6119,-2.644,-2.7535,-2.9082,-3.0805,-2.7531,0.0,0.0,0.0,0.0,-2.434,-2.5754,-2.8394,-2.7787,-2.6413,-2.4641,-2.4951,0.0,0.0,0.0,0.0,0.0,0.0,-2.4998,-2.8013,-2.9385,-3.1034,-3.2926,-3.2887,-3.2747,-3.258,-3.2397,-3.2144,-3.175,-3.1022,-2.5058,-1.439,0.0,0.0,0.0,0.0,-2.5063,-2.7449,-3.1545,-3.3657,-3.3605,-3.3643,-3.3383,-3.2784,-3.2089,-3.1376,-3.059,-2.9073,-2.6738,-2.3467,-1.9526,0.0,0.0,0.0,0.0,0.0,0.0,0.0,0.0,0.0,0.0,0.0,0.0,0.0,0.0,0.0,0.0,0.0,0.0,0.0,-0.8496,-1.2497,-1.3969,0.0,0.0,0.0,0.0,0.0,0.0,0.0,0.0,0.0,-2.1296,-2.2849,-2.4051,0.0,0.0,-2.541,-2.5311,-2.6596,-2.7817,-2.8467,-2.8688,0.0,-2.8992,-2.8592,-2.8771,-3.0163,-3.1584,-3.2183,-3.1255,-3.127,-3.1329,-3.1082,-3.1739,-3.2217,-3.2311,-3.1,-3.012,-3.0621,-3.0676,-3.0683,-3.1091,-3.2302,-3.3547,-3.2562,-3.0276,-2.7915,-2.7799,-2.9085,-2.8621,-2.9966,-3.2492,-3.195,-3.0711,-2.9078,-2.9516,-2.747,-2.3601,-2.3031,0.0,0.0,0.0,-2.7775,-3.0813,-3.0755,-3.1738,-3.346,-3.3469,-3.3507,-3.3515,-3.3491,-3.3807,-3.4394,-3.3823,-2.9042,-2.0459,0.0,-2.1462,-2.0001,-2.4563,-2.8112,-3.0487,-3.3181,-3.4389,-3.4032,-3.3531,-3.2957,-3.2352,-3.1984,-3.1486,-3.0813,-3.0643,-2.9217,-2.6361,-2.4309,-2.1294,0.0,0.0,0.0,0.0,0.0,0.0,0.0,0.0,0.0,0.0,0.0,-1.2829,-1.5716,0.0,0.0,0.0,-1.2653,-1.1757,-1.2497,-1.5361,0.0,0.0,0.0,0.0,0.0,0.0,0.0,-1.8285,-2.1535,-2.3901,-2.456,-2.5378,-2.5813,-2.5623,-2.6168,-2.6596,-2.6572,0.0,-2.9312,-2.9881,-3.0271,-3.0646,-3.1029,-3.0597,-3.0821,-3.2751,-3.2961,-3.3021,-3.326,-3.3095,-3.3126,-3.3593,-3.3713,-3.397,-3.4866,-3.3983,-3.3137,-3.3259,-3.3126,-3.3051,-3.3246,-3.4135,-3.5155,-3.6367,-3.569,-3.1346,-3.0486,-3.2001,-3.1941,-3.2873,-3.4466,-3.4425,-3.3854,-3.304,-3.4046,-3.1898,-2.7453,-2.6173,0.0,-2.9551,-3.0226,-3.161,-3.3575,-3.3575,-3.3575,-3.3575,-3.3714,-3.3698,-3.3592,-3.3019,-3.3262,-3.4167,-3.2817,-3.1096,-2.9244,-2.9176,-2.8774,-2.8046,-2.9108,-3.1344,-3.4513,-3.5292,-3.5326,-3.4613,-3.3257,-3.2352,-3.1912,-3.1634,-3.1421,-3.121,-3.119,-3.0886,-3.0125,-2.6826,-2.5523,-2.6573,0.0,0.0,0.0,0.0,0.0,0.0,0.0,0.0,0.0,0.0,0.0,0.0,0.0,0.0,-1.8417,-1.9113,0.0,-2.0146,-1.9353,0.0,0.0,0.0,-1.5665,-1.7251,-1.951,-2.147,-2.2853,0.0,0.0,-2.7675,-2.7764,-2.8034,-2.8742,-2.922,-2.9554,-2.9592,-3.0459,-3.118,-3.0783,-3.0717,-3.07,-3.0919,-3.1869,-3.3335,-3.513,-3.4577,-3.4083,-3.4563,-3.4054,-3.3756,-3.4272,-3.4621,-3.5307,-3.6241,-3.5813,-3.5141,-3.4471,-3.4152,-3.4119,-3.4596,-3.5167,-3.6184,-3.6045,-3.5632,-3.4493,-3.4278,-3.4652,-3.4665,-3.4593,-3.4499,-3.4478,-3.4044,-3.3318,-3.3594,-3.3312,-3.2723,-3.2906,-3.3376,-3.4027,-3.4197,-3.4568,-3.5059,-3.5059,-3.5076,-3.5076,-3.5098,-3.5098,-3.5059,-3.4928,-3.5103,-3.5497,-3.4985,-3.4256,-3.3453,-3.3225,-3.1293,-2.7857,-3.029,-3.2343,-3.3771,-3.3966,-3.4035,-3.3924,-3.2755,-3.2091,-3.1894,-3.1651,-3.1421,-3.121,-3.119,-3.1106,-3.092,-2.955,-2.867,-2.84,-2.2206,0.0,0.0,0.0,0.0,0.0,0.0,0.0,0.0,0.0,-1.9904,-2.466,0.0,-1.4579,0.0,-2.2869,-2.2388,-1.9586,-2.0576,0.0,0.0,-1.838,-1.8536,-2.2303,-2.2826,-2.3625,-2.5473,-2.7111,-2.8368,-2.9052,-2.9142,-2.9535,-3.0614,-2.9669,-2.8822,-2.8832,-2.9896,-3.0843,-3.1182,-3.1634,-3.2013,-3.2152,-3.3604,-3.5235,-3.6716,-3.6267,-3.5998,-3.6596,-3.5325,-3.4838,-3.6436,-3.5852,-3.584,-3.7386,-3.7107,-3.6717,-3.6736,-3.6383,-3.5987,-3.6034,-3.6508,-3.7228,-3.6877,-3.6597,-3.6282,-3.6129,-3.6113,-3.5752,-3.5346,-3.4996,-3.4996,-3.4759,-3.4387,-3.4382,-3.4585,-3.5013,-3.5414,-3.5616,-3.5616,-3.5616,-3.5616,-3.5616,-3.5616,-3.5616,-3.5616,-3.5616,-3.5616,-3.5616,-3.5616,-3.5667,-3.58,-3.5667,-3.5447,-3.5227,-3.5062,-3.3518,-3.0811,-3.2297,-3.2932,-3.2542,-3.3512,-3.4004,-3.3859,-3.2998,-3.1479,-2.9317,-3.0377,-3.011,-2.8299,-2.9499,-2.9619,-2.8299,-2.7824,-2.7266,-2.6488,-2.2784,-2.1194,0.0,0.0,0.0,0.0,0.0,0.0,0.0,0.0,0.0,0.0,0.0,-1.6658,-1.9877,-2.322,-2.3737,-2.0089,-2.1914,-2.3207,-2.2892,-2.2214,-2.2984,-2.612,-2.6144,-2.6588,-2.8271,-2.9049,-2.9699,-3.0357,-3.0447,-3.0702,-3.1406,-3.0569,-2.991,-2.9996,-3.0561,-3.1097,-3.153,-3.2113,-3.2886,-3.3679,-3.5011,-3.6267,-3.712,-3.6911,-3.6686,-3.7255,-3.6312,-3.5947,-3.7416,-3.692,-3.6682,-3.8184,-3.8278,-3.8132,-3.8428,-3.8348,-3.7877,-3.7083,-3.764,-3.851,-3.8084,-3.7838,-3.7218,-3.6948,-3.688,-3.6197,-3.5769,-3.5616,-3.5701,-3.5752,-3.5752,-3.5633,-3.5616,-3.5616,-3.5616,-3.5616,-3.5616,-3.5616,-3.5616,-3.5616,-3.5616,-3.5616,-3.5616,-3.5616,-3.5616,-3.5616,-3.5616,-3.5616,-3.5616,-3.5616,-3.5549,-3.5447,-3.5447,-3.494,-3.3969,-3.404,-3.3289,-3.1616,-3.3266,-3.3941,-3.3608,-3.281,-3.0317,-2.6311,-2.8715,-2.8612,-2.5336,-2.7605,-2.7791,-2.5269,-2.5083,-2.4781,-2.4179,-2.3032,-2.1804,0.0,-1.7865,0.0,0.0,0.0,0.0,0.0,0.0,0.0,0.0,-2.1989,-1.9478,-1.7707,-2.2448,-2.4518,-2.1809,-2.3633,-2.5202,-2.5809,-2.6573,-2.7519,-2.8619,-2.8921,-2.9505,-3.0624,-3.0749,-3.0979,-3.1504,-3.1611,-3.1611,-3.164,-3.1478,-3.1359,-3.1667,-3.1641,-3.1732,-3.1876,-3.2316,-3.3305,-3.4951,-3.5983,-3.6701,-3.7285,-3.718,-3.6971,-3.7629,-3.709,-3.6903,-3.7763,-3.7782,-3.7937,-3.891,-3.9093,-3.9215,-3.9476,-3.9632,-3.9285,-3.8191,-3.8519,-3.9579,-3.8084,-3.7889,-3.7753,-3.7686,-3.7686,-3.7533,-3.6749,-3.5633,-3.6299,-3.6575,-3.6524,-3.591,-3.5616,-3.5616,-3.5616,-3.5616,-3.5616,-3.5616,-3.5616,-3.5616,-3.5616,-3.5616,-3.5616,-3.5616,-3.5616,-3.5616,-3.5616,-3.5616,-3.5616,-3.5616,-3.5278,-3.4726,-3.4709,-3.344,-3.1157,0.0,0.0,0.0,-3.1666,-3.0967,-3.0863,-2.9074,-2.7657,-2.6756,-2.8406,0.0,-2.8214,-2.8688,-2.8756,-2.8197,-2.8147,0.0,0.0,0.0,0.0,0.0,0.0,0.0,0.0,0.0,0.0,0.0,-1.9767,-2.0334,-2.1374,-2.2959,-2.3447,-2.2362,-2.4626,-2.6267,-2.63,-2.6716,-2.7091,-2.724,-2.7936,-2.8503,-2.8685,-2.9708,-3.0488,-3.0561,-3.1405,-3.2063,-3.2201,-3.2231,-3.2231,-3.2203,-3.1796,-3.1539,-3.1568,-3.1988,-3.2302,-3.2407,-3.2871,-3.3814,-3.528,-3.6073,-3.6926,-3.7823,-3.8138,-3.8272,-3.8736,-3.8003,-3.7788,-3.8953,-3.843,-3.8129,-3.928,-3.9149,-3.8998,-3.9346,-3.9496,-3.9421,-3.908,-3.9219,-3.9601,-3.9431,-3.8954,-3.8582,-3.8447,0.0,-3.8058,-3.7459,-3.6772,-3.7161,-3.7347,-3.7297,-3.6535,-3.6197,-3.6163,-3.5769,-3.5616,-3.5616,-3.5616,-3.5616,-3.5616,-3.5616,-3.5616,-3.5616,-3.5616,-3.5616,-3.5616,-3.5616,-3.5616,-3.5616,-3.5616,-3.5397,-3.5047,-3.5047,-3.4303,-3.2895,-3.399,-3.4406,-3.405,-3.2869,-3.2107,-3.176,-3.0749,-2.8932,-2.6453,-2.8456,0.0,0.0,0.0,0.0,0.0,0.0,0.0,0.0,-2.4135,-2.4475,-2.785,-2.4184,-2.2287,-2.3285,-2.235,-2.2381,-2.3833,-2.4469,-2.4493,-2.3831,-2.5978,-2.7051,-2.6329,-2.7365,-2.8158,-2.8314,-2.8651,-2.8802,-2.861,-2.9512,-3.0103,-2.9978,-3.0898,-3.1634,-3.1637,-3.2288,-3.2788,-3.2788,-3.2803,-3.2788,-3.2761,-3.2299,-3.1953,-3.194,-3.1968,-3.2168,-3.2871,-3.3245,-3.4098,-3.5654,-3.6522,-3.724,-3.8153,-3.8676,-3.9005,-3.9349,-3.882,-3.8682,-3.9337,-3.8968,-3.8817,-3.9313,-3.9339,-3.9234,-3.9356,-3.9496,-3.9517,-3.946,-3.9696,-4.0056,-4.0861,-4.0128,-3.9453,-3.9174,-3.914,-3.8548,-3.8294,-3.8278,-3.8007,0.0,0.0,-3.7313,-3.6931,-3.6761,-3.6276,-3.5966,-3.5825,-3.5847,-3.5831,-3.5785,-3.565,-3.5616,-3.5616,-3.5616,-3.5616,-3.5616,-3.5616,-3.5616,-3.5616,-3.5616,-3.5616,-3.5616,-3.5616,-3.5622,-3.5622,-3.5622,-3.5362,-3.4882,-3.4232,-3.3558,-3.2848,-3.2659,-3.0423,-2.5896,-2.8505,-2.8328,-2.4912,-2.7011,-2.697,-2.4197,-2.3943,-2.3919,-2.3973,-2.3954,-2.5093,-2.7465,-2.7684,-2.747,-2.701,-2.7364,-2.7643,-2.7782,-2.8674,-2.8758,-2.7641,-2.8941,-2.9655,-2.9257,-2.9685,-2.981,-2.9349,-2.9943,-3.0218,-2.9853,-3.0973,-3.1614,-3.1316,-3.2133,-3.2726,-3.2759,-3.3066,-3.3371,-3.3355,-3.3371,-3.3419,-3.3477,-3.3146,-3.2795,-3.2789,-3.2437,-3.2422,-3.344,-3.3873,-3.4502,-3.5893,-3.6911,-3.7584,-3.8147,-3.8876,-3.943,-3.9481,-3.9496,-3.9445,-3.9451,-3.9409,-3.9394,-3.9409,-3.9487,-3.9589,-3.9409,-3.9517,-3.9661,-3.9696,-4.0076,-4.0443,-4.1019,-4.049,-4.0102,-3.996,-3.9943,-3.9842,-3.9791,-3.969,-3.8464,-3.8261,-3.8785,-3.8075,-3.7398,-3.6829,-3.7529,-3.7387,-3.6643,-3.6814,-3.6814,-3.6592,-3.5904,-3.5616,-3.5616,-3.5616,-3.5616,-3.5616,-3.5616,-3.5616,-3.5616,-3.5616,-3.5616,-3.5616,-3.5616,-3.5644,-3.5751,-3.5644,-3.5616,-3.5591,-3.3012,-3.1309,-3.0565,-2.9279,-2.7994,-2.6742,-2.8265,-2.8942,-2.8328,-2.8294,-2.8097,-2.7591,-2.7189,-2.708,-2.7273,-2.7251,-2.7556,-2.8052,-2.8016,-2.7862,-2.7661,-2.7644,-2.7978,-2.8794,-2.939,-2.9625,-2.9447,-2.9636,-2.9772,-2.9738,-3.0305,-3.0551,-3.0141,-3.0672,-3.1108,-3.1042,-3.1859,-3.2347,-3.21,-3.2908,-3.3403,-3.3182,-3.362,-3.3984,-3.3984,-3.3984,-3.4194,-3.46,-3.4255,-3.4202,-3.4419,-3.3946,-3.3606,-3.4218,-3.4846,-3.531,-3.5818,-3.6671,-3.7473,-3.7744,-3.8893,-3.9696,-3.9854,-3.9732,-3.9681,-3.9696,-3.9553,-3.946,-3.9496,-3.9409,-3.9553,-3.9538,-3.9646,-3.9753,-4.025,-4.0562,-4.0646,-4.1393,-4.0744,-4.0434,-4.0238,-4.0113,-4.0113,-4.0163,-4.0162,-3.9493,-3.935,-3.9503,-3.8909,-3.8384,-3.8014,-3.8024,-3.7874,-3.7557,-3.7551,-3.7534,-3.7506,-3.6655,-3.6248,-3.6214,-3.5825,-3.5616,-3.5616,-3.5616,-3.5616,-3.5616,-3.5616,-3.5616,-3.5616,-3.5616,-3.5622,-3.5684,-3.5622,-3.5622,-3.5672,-3.4307,-3.3237,-3.2493,-3.141,-3.0497,-2.9754,-3.0074,-3.008,-2.9814,-2.9358,-2.9023,-2.8753,-2.8275,-2.8089,-2.8194,-2.814,-2.8161,-2.8293,-2.8103,-2.7995,-2.7905,-2.8229,-2.8606,-2.909,-2.9788,-3.0194,-3.0177,-3.0194,-3.0177,-3.021,-3.0849,-3.1209,-3.1024,-3.1943,-3.2545,-3.2305,-3.3363,-3.3754,-3.3251,-3.3966,-3.4382,-3.3919,-3.4251,-3.4635,-3.4546,-3.4521,-3.4783,-3.5373,-3.5095,-3.4819,-3.4868,-3.4332,-3.4157,-3.4805,-3.4724,-3.4953,-3.5851,-3.6907,-3.7665,-3.8174,-3.9153,-3.9799,-4.0011,-3.994,-4.0001,-4.0146,-3.9915,-3.9895,-4.0305,-4.0289,-4.0255,-4.0531,-4.0706,-4.0927,-4.1194,-4.1795,-4.2377,-4.1743,-4.1059,-4.0652,-4.0362,-4.0146,-4.0096,-4.0188,-4.0305,-4.0337,-4.0263,-4.0078,-3.9693,-3.9304,-3.8979,-3.8638,-3.8486,-3.837,-3.8286,-3.8292,-3.8285,-3.7458,-3.7049,-3.6975,-3.6417,-3.6022,-3.5887,-3.5876,-3.5791,-3.5633,-3.5616,-3.5616,-3.5616,-3.5616,-3.5616,-3.5616,-3.5616,-3.5616,-3.5616,-3.5616,-3.5228,-3.4506,-3.3947,-3.3288,-3.2581,-3.1985,-3.1456,-3.0929,-3.0364,-2.98,-2.9273,-2.8716,-2.8411,-2.8411,-2.8299,-2.8275,-2.8275,-2.8103,-2.8029,-2.8113,-2.8716,-2.9143,-2.9257,-3.0027,-3.0489,-3.0489,-3.0489,-3.0588,-3.0787,-3.1427,-3.1891,-3.2216,-3.323,-3.3921,-3.3694,-3.4575,-3.4816,-3.4194,-3.4826,-3.5182,-3.4569,-3.4811,-3.4994,-3.4923,-3.4899,-3.5256,-3.596,-3.6002,-3.576,-3.562,-3.5275,-3.5143,-3.5718,-3.5018,-3.4909,-3.6461,-3.7337,-3.8088,-3.8842,-3.9595,-4.0205,-4.0455,-4.0509,-4.0543,-4.0891,-4.0668,-4.0668,-4.1377,-4.128,-4.1196,-4.1428,-4.1642,-4.1901,-4.2046,-4.3439,-4.4371,-4.1867,-4.1539,-4.0813,-4.0412,-4.0263,-4.0163,-4.0188,-4.0305,-4.0412,-4.0412,-4.0271,-4.0351,-3.9844,-3.9214,-3.9966,-3.9822,-3.9001,-3.9153,-3.9129,-3.8875,-3.8142,-3.7804,-3.7787,-3.7686,-3.733,-3.6728,-3.6626,-3.6197,-3.5633,-3.5616,-3.5616,-3.5616,-3.5616,-3.5616,-3.5616,-3.5616,-3.5616,-3.5616,-3.5616,-3.525,-3.4539,-3.4421,-3.4032,-3.3339,-3.3237,-3.2861,-3.2124,-3.1265,-3.048,-2.9742,-2.8905,-2.8411,-2.8411,-2.8372,-2.8275,-2.8069,-2.8044,-2.8088,-2.828,-2.8795,-2.928,-2.9722,-3.0194,-3.0489,-3.0489,-3.0506,-3.0803,-3.1432,-3.2166,-3.2779,-3.3541,-3.4286,-3.4693,-3.4613,-3.4927,-3.5065,-3.497,-3.5041,-3.5105,-3.5041,-3.4954,-3.4923,-3.4923,-3.4998,-3.5545,-3.6721,-3.7439,-3.8084,-3.8718,-3.7637,-3.7094,-3.8151,-3.7133,-3.632,-3.7483,-3.7866,-3.8767,-3.9882,-4.0232,-4.0826,-4.1525,-4.1575,-4.1393,-4.1852,-4.1852,-4.1739,-4.1933,-4.1885,-4.1917,-4.2141,-4.2252,-4.2252,-4.2961,-4.4602,-4.5632,-4.1931,-4.141,-4.086,-4.0436,-4.0188,-4.0121,-4.0221,-4.0429,-4.0485,-4.051,-4.0551,-4.068,-4.038,-3.9814,-4.0268,-4.0266,-4.001,-3.9895,-3.9853,-3.9802,-3.896,-3.8565,-3.8481,-3.7618,-3.7083,-3.6761,-3.6315,-3.591,-3.565,-3.5616,-3.5616,-3.5616,-3.5616,-3.5616,-3.5616,-3.5616,-3.5616,-3.5616,-3.5616,-3.5447,-3.5126,-3.4726,-3.4353,-3.4049,-3.3643,-3.3288,-3.2883,-3.2073,-3.1268,-3.049,-2.9588,-2.8885,-2.8427,-2.8323,-2.8235,-2.8152,-2.8244,-2.8286,-2.8304,-2.9058,-2.9595,-2.9772,-3.022,-3.0489,-3.0522,-3.0886,-3.1466,-3.215,-3.2536,-3.2978,-3.3746,-3.4452,-3.4899,-3.4923,-3.5018,-3.5111,-3.5222,-3.5291,-3.5314,-3.5222,-3.5175,-3.5065,-3.5079,-3.5661,-3.639,-3.7176,-3.8117,-3.9215,-3.9626,-3.8897,-3.9045,-3.9787,-3.9084,-3.8595,-3.9053,-3.9613,-4.0341,-4.1151,-4.1564,-4.1997,-4.2237,-4.2284,-4.2205,-4.2785,-4.2552,-4.263,-4.3185,-4.2939,-4.2847,-4.3,-4.332,-4.3499,-4.3885,-4.5412,-4.5982,-4.2268,-4.1618,-4.0963,-4.0461,-4.0163,-4.0163,-4.0271,-4.0485,-4.051,-4.0576,-4.0697,-4.084,-4.0745,-4.0453,-4.0404,-4.0461,-4.0551,-4.0288,-4.0238,-4.0294,-3.9628,-3.9292,-3.9157,-3.8251,-3.7506,-3.7083,-3.6546,-3.6062,-3.5667,-3.5616,-3.5616,-3.5616,-3.5616,-3.5616,-3.5616,-3.5616,-3.5616,-3.5616,-3.5616,-3.5616,-3.5532,-3.5081,-3.481,-3.4742,-3.4286,-3.3931,-3.3689,-3.2877,-3.2036,-3.1261,-3.0299,-2.9519,-2.8979,-2.8746,-2.8614,-2.8542,-2.8503,-2.8567,-2.8678,-2.94,-2.9875,-3.0006,-3.0321,-3.0489,-3.0621,-3.1184,-3.1918,-3.2602,-3.2995,-3.3512,-3.4044,-3.4568,-3.4883,-3.4899,-3.4994,-3.5088,-3.5222,-3.5354,-3.5354,-3.5285,-3.5198,-3.5175,-3.5112,-3.5909,-3.6754,-3.7202,-3.8588,-3.981,-4.003,-4.0344,-4.0785,-4.1355,-4.1161,-4.0875,-4.0699,-4.0818,-4.1682,-4.2307,-4.2583,-4.2504,-4.2831,-4.2953,-4.3031,-4.3486,-4.3108,-4.3139,-4.3785,-4.3785,-4.3651,-4.4064,-4.4253,-4.4338,-4.4412,-4.5718,-4.5965,-4.2961,-4.2426,-4.1099,-4.0453,-4.0288,-4.028,-4.0362,-4.051,-4.051,-4.0583,-4.0721,-4.084,-4.0817,-4.0655,-4.0673,-4.0551,-4.0337,-4.033,-4.0238,-4.0171,-4.0053,-4.0028,-4.0062,-3.996,-3.9165,-3.7821,-3.7567,-3.6874,-3.5712,-3.56,-3.5616,-3.5622,-3.5622,-3.5616,-3.5616,-3.5616,-3.5616,-3.5616,-3.5616,-3.5616,-3.56,-3.5549,-3.5498,-3.5481,-3.5481,-3.5115,-3.4474,-3.3644,-3.2833,-3.2092,-3.0972,-3.0283,-3.0172,-2.9858,-2.9534,-2.9309,-2.8826,-2.8873,-2.9572,-2.9772,-3.0006,-3.0363,-3.0489,-3.0526,-3.0597,-3.1357,-3.2092,-3.2674,-3.3799,-3.4544,-3.4805,-3.4918,-3.497,-3.4947,-3.4923,-3.497,-3.5088,-3.5175,-3.5111,-3.5128,-3.5088,-3.5041,-3.4956,-3.5545,-3.6481,-3.7461,-3.9144,-4.0688,-4.1354,-4.221,-4.2746,-4.2885,-4.298,-4.3026,-4.2402,-4.2183,-4.2389,-4.292,-4.3229,-4.3,-4.3604,-4.4105,-4.415,-4.4207,-4.4121,-4.4196,-4.444,-4.4514,-4.4412,-4.4514,-4.4497,-4.457,-4.4338,-4.5167,-4.5487,-4.3412,-4.217,-4.1085,-4.0485,-4.0305,-4.0305,-4.0387,-4.051,-4.051,-4.0631,-4.0817,-4.0888,-4.0888,-4.0823,-4.0929,-4.084,-4.068,-4.051,-4.0412,-4.0337,-4.0188,-4.0113,-4.0062,-3.9656,-3.8903,-3.799,-3.7398,-3.6797,-3.61,-3.5761,-3.5739,-3.5937,-3.5739,-3.5616,-3.5616,-3.5616,-3.5616,-3.5616,-3.5616,-3.5616,-3.5616,-3.5616,-3.5616,-3.5616,-3.5616,-3.5481,-3.5216,-3.4678,-3.4044,-3.3215,-3.2085,-3.1207,-3.067,-2.9965,-2.9496,-2.9406,-2.9355,-2.9483,-2.9772,-3.0092,-3.0321,-3.0468,-3.0712,-3.0797,-3.1076,-3.2154,-3.3202,-3.3634,-3.4768,-3.5595,-3.563,-3.5504,-3.5339,-3.5333,-3.5078,-3.4947,-3.5065,-3.5158,-3.5198,-3.5111,-3.5018,-3.4947,-3.5162,-3.5999,-3.6945,-3.7444,-3.9289,-4.0645,-4.1285,-4.2316,-4.3205,-4.3334,-4.3748,-4.4108,-4.3878,-4.3662,-4.3693,-4.3913,-4.4064,-4.3989,-4.4367,-4.4395,-4.4412,-4.4384,-4.457,-4.4598,-4.457,-4.457,-4.4598,-4.4598,-4.4598,-4.4395,-4.3972,-4.4909,-4.52,-4.3611,-4.1981,-4.136,-4.083,-4.0396,-4.0379,-4.0395,-4.051,-4.0493,-4.0631,-4.0817,-4.0888,-4.0894,-4.0918,-4.1076,-4.1082,-4.0971,-4.0758,-4.0631,-4.0468,-4.0296,-4.0171,-4.0011,-3.9588,-3.8836,-3.7872,-3.6857,-3.6276,-3.6092,-3.5915,-3.6002,-3.6259,-3.5958,-3.5844,-3.5822,-3.5672,-3.5616,-3.5616,-3.5616,-3.5616,-3.5616,-3.5616,-3.5616,-3.5616,-3.5616,-3.5616,-3.5583,-3.5274,-3.4848,-3.419,-3.3215,-3.2278,-3.138,-3.0326,-2.9783,-2.9886,-2.9881,-2.9962,-3.0049,-3.0321,-3.0531,-3.0671,-3.0875,-3.1015,-3.1255,-3.2847,-3.3759,-3.4232,-3.5434,-3.6419,-3.6357,-3.6058,-3.5788,-3.5571,-3.5171,-3.4947,-3.5058,-3.5198,-3.5268,-3.5222,-3.5088,-3.4994,-3.511,-3.6187,-3.696,-3.7336,-3.9225,-4.0476,-4.1033,-4.2223,-4.3271,-4.3339,-4.4024,-4.4418,-4.4367,-4.4232,-4.4175,-4.4378,-4.4412,-4.4542,-4.4598,-4.4598,-4.4598,-4.4598,-4.4598,-4.4598,-4.4598,-4.4598,-4.457,-4.457,-4.4542,-4.4412,-4.4445,-4.4693,-4.4833,-4.3645,-4.2098,-4.1967,-4.1398,-4.0646,-4.0495,-4.0485,-4.0485,-4.051,-4.0583,-4.0745,-4.0823,-4.0894,-4.0942,-4.1088,-4.1186,-4.114,-4.1099,-4.0864,-4.0558,-4.0468,-4.032,-4.0079,-3.9926,-3.9089,-3.777,-3.6326,-3.5695,-3.5783,-3.6088,-3.628,-3.6343,-3.6343,-3.628,-3.628,-3.5871,-3.5644,-3.5622,-3.5616,-3.5616,-3.5616,-3.5616,-3.5616,-3.5616,-3.5616,-3.5616,-3.5583,-3.5321,-3.5102,-3.5001,-3.4295,-3.3377,-3.2223,-3.1083,-3.0597,-3.0671,-3.0459,-3.0316,-3.0426,-3.0526,-3.0675,-3.0915,-3.0998,-3.1215,-3.1671,-3.3027,-3.4019,-3.4288,-3.5699,-3.69,-3.6841,-3.6478,-3.6071,-3.5655,-3.5218,-3.4923,-3.497,-3.5152,-3.5354,-3.54,-3.5261,-3.5111,-3.5285,-3.5964,-3.6755,-3.7617,-3.8866,-4.0162,-4.094,-4.2233,-4.3189,-4.346,-4.3995,-4.4564,-4.4598,-4.4598,-4.4553,-4.457,-4.457,-4.4598,-4.4598,-4.4598,-4.4598,-4.4598,-4.4598,-4.4598,-4.4525,-4.4497,-4.4514,-4.4485,-4.4457,-4.4184,-4.4006,-4.4014,-4.435,-4.483,-4.4103,-4.259,-4.1781,-4.1317,-4.0658,-4.0379,-4.0379,-4.0461,-4.06,-4.0697,-4.084,-4.0894,-4.0942,-4.1094,-4.1209,-4.1209,-4.118,-4.1035,-4.0776,-4.0566,-4.0345,-4.0027,-3.9571,-3.8589,-3.7178,-3.609,-3.592,-3.6371,-3.6367,-3.6553,-3.6978,-3.6838,-3.6574,-3.6305,-3.6152,-3.5937,-3.5644,-3.5616,-3.5616,-3.5616,-3.56,-3.56,-3.5616,-3.5616,-3.5616,-3.56,-3.5487,-3.5458,-3.5418,-3.474,-3.3705,-3.2418,-3.1321,-3.0848,-3.0834,-3.0589,-3.0405,-3.051,-3.0733,-3.0875,-3.1055,-3.137,-3.1618,-3.1959,-3.3539,-3.458,-3.4792,-3.6286,-3.7375,-3.7262,-3.6661,-3.6203,-3.602,-3.5362,-3.4963,-3.5091,-3.5198,-3.5291,-3.5337,-3.5291,-3.5245,-3.5385,-3.5998,-3.6791,-3.7547,-3.8621,-3.9614,-4.046,-4.1728,-4.2591,-4.2709,-4.3623,-4.4547,-4.4598,-4.4598,-4.4598,-4.4598,-4.4598,-4.4598,-4.4598,-4.4598,-4.4598,-4.4598,-4.4598,-4.4497,-4.4468,-4.4338,-4.4253,-4.4035,-4.3768,-4.3429,-4.3007,-4.3184,-4.3618,-4.5836,-4.5239,-4.388,-4.2923,-4.2368,-4.1327,-4.0895,-4.0869,-4.0612,-4.0558,-4.0631,-4.0817,-4.0888,-4.0871,-4.1071,-4.114,-4.1111,-4.1163,-4.1041,-4.0793,-4.0607,-4.0226,-3.9613,-3.864,-3.7777,-3.6846,-3.5994,-3.5963,-3.6638,-3.6597,-3.686,-3.7339,-3.7094,-3.6799,-3.6474,-3.6195,-3.5871,-3.5644,-3.5616,-3.5616,-3.5549,-3.5312,-3.5312,-3.5549,-3.5616,-3.5616,-3.5616,-3.5616,-3.5616,-3.543,-3.4658,-3.3508,-3.2357,-3.1436,-3.0932,-3.0871,-3.0712,-3.0593,-3.0692,-3.0858,-3.1134,-3.1351,-3.1693,-3.1966,-3.2387,-3.39,-3.4942,-3.5208,-3.6541,-3.7595,-3.7467,-3.6761,-3.6356,-3.6603,-3.5582,-3.5174,-3.5402,-3.5349,-3.5515,-3.5652,-3.5608,-3.5434,-3.5534,-3.6131,-3.6902,-3.766,-3.8458,-3.9259,-4.0079,-4.1119,-4.1694,-4.2354,-4.3267,-4.3995,-4.4513,-4.4598,-4.4598,-4.4598,-4.4598,-4.4598,-4.4598,-4.4598,-4.4598,-4.4598,-4.4598,-4.4265,-4.4179,-4.3869,-4.3676,-4.3393,-4.3122,-4.274,-4.2461,-4.2702,-4.3105,-4.6615,-4.559,-4.5437,-4.4601,-4.3467,-4.2265,-4.1722,-4.1636,-4.0923,-4.0534,-4.0583,-4.0799,-4.084,-4.0817,-4.1047,-4.1111,-4.0965,-4.1088,-4.0971,-4.0628,-4.0356,-3.9793,-3.8715,-3.7591,-3.6931,-3.6535,-3.5926,-3.5905,-3.6385,-3.6678,-3.7094,-3.7395,-3.7189,-3.6939,-3.6781,-3.6114,-3.5827,-3.58,-3.5734,-3.5717,-3.5531,-3.5057,-3.4883,-3.5504,-3.5549,-3.5616,-3.5616,-3.5616,-3.5616,-3.543,-3.4332,-3.328,-3.2405,-3.1527,-3.1029,-3.0905,-3.0753,-3.0794,-3.0935,-3.1055,-3.131,-3.1748,-3.1894,-3.2055,-3.2546,-3.3917,-3.5013,-3.5084,-3.6577,-3.7595,-3.743,-3.6761,-3.6559,-3.6872,-3.6041,-3.5745,-3.6231,-3.5806,-3.5941,-3.6369,-3.6072,-3.5548,-3.5599,-3.6264,-3.6989,-3.7691,-3.8466,-3.9242,-4.0011,-4.0857,-4.1474,-4.2151,-4.2828,-4.3267,-4.3735,-4.413,-4.413,-4.4215,-4.435,-4.4581,-4.4598,-4.4598,-4.4598,-4.4598,-4.4525,-4.4207,-4.381,-4.3512,-4.3166,-4.2892,-4.2552,-4.2141,-4.2075,-4.2226,-4.2506,-4.7479,-4.7081,-4.6113,-4.4971,-4.3769,-4.2677,-4.1719,-4.094,-4.0751,-4.0648,-4.0697,-4.0799,-4.0888,-4.0888,-4.1088,-4.1088,-4.0965,-4.0965,-4.0942,-4.0648,-3.9863,-3.8717,-3.7614,-3.7032,-3.6468,-3.5977,-3.5757,-3.5849,-3.6301,-3.6655,-3.7034,-3.7413,-3.7504,-3.743,-3.7111,-3.6841,-3.6638,-3.6388,-3.6326,-3.5868,-3.5318,-3.5502,-3.536,-3.4832,-3.5318,-3.5566,-3.56,-3.5616,-3.5616,-3.5526,-3.4549,-3.3648,-3.2938,-3.1951,-3.1175,-3.0816,-3.0671,-3.0712,-3.0995,-3.1252,-3.1542,-3.1875,-3.2126,-3.2301,-3.2441,-3.3988,-3.4872,-3.5279,-3.6559,-3.7577,-3.7449,-3.6794,-3.6409,-3.637,-3.6567,-3.6844,-3.7009,-3.7163,-3.7094,-3.6723,-3.6534,-3.6185,-3.5898,-3.6202,-3.6969,-3.7689,-3.8439,-3.9191,-3.9876,-4.0603,-4.1238,-4.1525,-4.2049,-4.2455,-4.2895,-4.3403,-4.3673,-4.3775,-4.4062,-4.4547,-4.4564,-4.4598,-4.4598,-4.4598,-4.4598,-4.4338,-4.3663,-4.3152,-4.28,-4.2379,-4.1739,-4.1243,-4.1343,-4.1476,-4.1856,-4.7605,-4.7663,-4.6004,-4.5049,-4.433,-4.2887,-4.1836,-4.1223,-4.0817,-4.0714,-4.0721,-4.084,-4.0864,-4.0823,-4.1012,-4.1018,-4.0894,-4.0894,-4.0657,-4.0064,-3.8849,-3.7749,-3.6932,-3.6547,-3.6045,-3.5667,-3.56,-3.5849,-3.6301,-3.6635,-3.6995,-3.7338,-3.7541,-3.7467,-3.7207,-3.7015,-3.6838,-3.6565,-3.6336,-3.5763,-3.5125,-3.5125,-3.4985,-3.4575,-3.4962,-3.525,-3.5515,-3.5616,-3.5459,-3.4925,-3.4197,-3.3448,-3.2684,-3.1779,-3.1079,-3.0708,-3.0692,-3.0858,-3.1193,-3.1504,-3.1784,-3.2055,-3.2319,-3.2388,-3.2704,-3.397,-3.5013,-3.5173,-3.6613,-3.7325,-3.7293,-3.7016,-3.6769,-3.6728,-3.7586,-3.8179,-3.7887,-3.7709,-3.7576,-3.7219,-3.6918,-3.6508,-3.5718,-3.6079,-3.662,-3.7313,-3.8007,-3.8734,-3.9478,-4.0257,-4.0899,-4.1204,-4.1457,-4.1847,-4.2236,-4.2709,-4.3031,-4.3149,-4.369,-4.4198,-4.4378,-4.4429,-4.4598,-4.4598,-4.4598,-4.431,-4.3469,-4.2707,-4.2237,-4.1689,-4.0938,-4.0696,-4.0836,-4.0972,-4.131,-4.7308,-4.7432,-4.5534,-4.4914,-4.4784,-4.3003,-4.2022,-4.1819,-4.1075,-4.0745,-4.0745,-4.084,-4.0817,-4.0714,-4.0823,-4.0847,-4.0823,-4.0871,-4.0214,-3.9272,-3.7968,-3.6968,-3.6644,-3.6022,-3.574,-3.5622,-3.5622,-3.5915,-3.6284,-3.6635,-3.7013,-3.7281,-3.73,-3.7282,-3.7262,-3.6954,-3.6721,-3.6501,-3.6141,-3.55,-3.4926,-3.4636,-3.4555,-3.4466,-3.4747,-3.5098,-3.5464,-3.5566,-3.5189,-3.4153,-3.3688,-3.3064,-3.2079,-3.1208,-3.1025,-3.0987,-3.113,-3.1331,-3.1741,-3.211,-3.2298,-3.2687,-3.2774,-3.2564,-3.2985,-3.42,-3.519,-3.5013,-3.6577,-3.7195,-3.6976,-3.7271,-3.7205,-3.707,-3.8242,-3.8911,-3.8639,-3.8095,-3.7825,-3.7901,-3.7358,-3.6603,-3.6028,-3.5785,-3.6062,-3.7026,-3.7794,-3.8667,-3.9292,-3.9901,-4.046,-4.0865,-4.1085,-4.1288,-4.166,-4.2049,-4.2286,-4.2506,-4.3217,-4.3747,-4.3968,-4.4103,-4.4457,-4.4598,-4.4598,-4.396,-4.2939,-4.23,-4.1868,-4.1243,-4.0662,-4.0524,-4.0558,-4.0646,-4.0889,-4.6782,-4.6249,-4.5499,-4.4643,-4.3772,-4.2894,-4.2021,-4.1183,-4.0998,-4.0871,-4.084,-4.0793,-4.0721,-4.0714,-4.0721,-4.0648,-4.0517,-4.059,-4.0117,-3.8608,-3.7722,-3.6739,-3.6213,-3.5701,-3.5639,-3.5711,-3.6002,-3.6135,-3.6308,-3.6779,-3.7111,-3.7167,-3.7393,-3.7504,-3.7467,-3.7356,-3.7074,-3.6595,-3.631,-3.5492,-3.4639,-3.4869,-3.4824,-3.4425,-3.4929,-3.5385,-3.5549,-3.5616,-3.5116,-3.4443,-3.4268,-3.3689,-3.239,-3.2314,-3.2227,-3.188,-3.1771,-3.2259,-3.3208,-3.314,-3.3239,-3.3949,-3.3986,-3.3951,-3.3424,-3.4818,-3.5438,-3.5474,-3.6541,-3.7173,-3.6585,-3.6727,-3.6797,-3.6854,-3.7691,-3.8598,-3.857,-3.8983,-3.8992,-3.8562,-3.7986,-3.7364,-3.6637,-3.64,-3.6586,-3.6965,-3.7692,-3.8657,-3.9123,-3.9495,-3.9986,-4.0409,-4.062,-4.0773,-4.0916,-4.1305,-4.1644,-4.1914,-4.2574,-4.316,-4.3378,-4.3861,-4.4198,-4.4451,-4.4598,-4.3739,-4.2707,-4.23,-4.1949,-4.1176,-4.0489,-4.0489,-4.0489,-4.0489,-4.0566,-4.6269,-4.5773,-4.4669,-4.4016,-4.3629,-4.2818,-4.1991,-4.1267,-4.11,-4.1001,-4.0871,-4.068,-4.0648,-4.0697,-4.0576,-4.0478,-4.0305,-3.9873,-3.9072,-3.7865,-3.7004,-3.628,-3.5941,-3.5866,-3.5954,-3.5963,-3.6071,-3.6224,-3.6536,-3.686,-3.711,-3.7147,-3.7429,-3.7558,-3.7595,-3.7577,-3.7184,-3.6558,-3.6161,-3.5449,-3.4694,-3.4924,-3.5407,-3.5015,-3.5397,-3.5616,-3.5616,-3.5616,-3.4908,-3.4314,-3.4462,-3.4127,-3.2641,-3.2564,-3.2576,-3.2359,-3.2593,-3.2903,-3.3568,-3.3908,-3.4102,-3.467,-3.4705,-3.4231,-3.4128,-3.5082,-3.5615,-3.558,-3.6362,-3.7225,-3.6367,-3.6905,-3.6898,-3.692,-3.7814,-3.8695,-3.8916,-3.9408,-3.9564,-3.8891,-3.8215,-3.7543,-3.706,-3.684,-3.6417,-3.6417,-3.7483,-3.8379,-3.8302,-3.8742,-3.9453,-3.9876,-4.0062,-4.0197,-4.0265,-4.0587,-4.1018,-4.1356,-4.1813,-4.2332,-4.2682,-4.3305,-4.3968,-4.4057,-4.4076,-4.3604,-4.2738,-4.2395,-4.1836,-4.1024,-4.0489,-4.0489,-4.0489,-4.0489,-4.0551,-4.5645,-4.5388,-4.3632,-4.3299,-4.3656,-4.2662,-4.1903,-4.1472,-4.1366,-4.1146,-4.0894,-4.059,-4.0576,-4.06,-4.0387,-4.0419,-4.0018,-3.8934,-3.7876,-3.7322,-3.6432,-3.6024,-3.5871,-3.611,-3.6367,-3.643,-3.6454,-3.6597,-3.6816,-3.7052,-3.7261,-3.7242,-3.7448,-3.7577,-3.7595,-3.7417,-3.6988,-3.627,-3.5818,-3.5301,-3.4922,-3.5049,-3.5526,-3.5807,-3.5812,-3.5689,-3.5644,-3.5515,-3.4991,-3.3757,-3.4476,-3.413,-3.3218,-3.2653,-3.2646,-3.2698,-3.3208,-3.3782,-3.4329,-3.4528,-3.4636,-3.4913,-3.4998,-3.4562,-3.4354,-3.501,-3.549,-3.5738,-3.6234,-3.6978,-3.636,-3.6955,-3.7232,-3.7294,-3.8271,-3.9143,-3.9246,-3.9447,-3.9453,-3.9093,-3.8612,-3.8058,-3.7415,-3.7026,-3.64,-3.6124,-3.7263,-3.799,-3.7956,-3.8335,-3.9266,-3.9723,-3.9977,-4.0079,-4.0146,-4.018,-4.0603,-4.078,-4.1152,-4.136,-4.1848,-4.2406,-4.2933,-4.3343,-4.3287,-4.2953,-4.2552,-4.2013,-4.1426,-4.0715,-4.0489,-4.0489,-4.0489,-4.0489,-4.0551,-4.4507,-4.3847,-4.3196,-4.2935,-4.2835,-4.2274,-4.1864,-4.1463,-4.1423,-4.1209,-4.0894,-4.0614,-4.0517,-4.0485,-4.0263,-3.9973,-3.9405,-3.8203,-3.7307,-3.6965,-3.63,-3.6019,-3.6152,-3.6346,-3.6661,-3.7111,-3.715,-3.7129,-3.7167,-3.7411,-3.7467,-3.7522,-3.7558,-3.7595,-3.7434,-3.7041,-3.6556,-3.5993,-3.5702,-3.538,-3.4993,-3.5474,-3.5971,-3.618,-3.6028,-3.5817,-3.5627,-3.5577,-3.5199,-3.4506,-3.5076,-3.488,-3.4264,-3.3874,-3.3945,-3.4052,-3.3918,-3.4433,-3.5593,-3.5088,-3.5431,-3.6078,-3.6207,-3.5488,-3.5034,-3.5325,-3.5611,-3.5557,-3.5836,-3.6402,-3.6266,-3.6918,-3.6845,-3.697,-3.8017,-3.9215,-3.8978,-3.9283,-3.9756,-3.9454,-3.9067,-3.865,-3.8075,-3.7567,-3.7161,-3.711,-3.7872,-3.8345,-3.8311,-3.8877,-3.9723,-3.9977,-4.0062,-4.0096,-4.0113,-4.0113,-4.0257,-4.0281,-4.0445,-4.0205,-4.068,-4.1265,-4.1729,-4.208,-4.2577,-4.2691,-4.2237,-4.1641,-4.1176,-4.0627,-4.0524,-4.0489,-4.0489,-4.0489,-4.0489,-4.4071,-4.334,-4.3214,-4.3105,-4.3032,-4.2865,-4.24,-4.186,-4.1735,-4.1401,-4.0971,-4.068,-4.0558,-4.0493,-4.0541,-3.9959,-3.8768,-3.7825,-3.6987,-3.6488,-3.6216,-3.6195,-3.6346,-3.6536,-3.6898,-3.7264,-3.7486,-3.7559,-3.7431,-3.7541,-3.7613,-3.7613,-3.7613,-3.7649,-3.765,-3.7434,-3.6619,-3.6047,-3.6055,-3.5946,-3.5307,-3.6132,-3.6531,-3.6527,-3.6096,-3.5759,-3.5608,-3.5153,-3.4898,-3.4651,-3.5018,-3.5032,-3.4919,-3.4891,-3.4948,-3.5059,-3.4835,-3.5148,-3.634,-3.5778,-3.598,-3.6729,-3.6733,-3.6227,-3.5668,-3.5641,-3.5732,-3.5636,-3.6017,-3.6357,-3.5963,-3.6835,-3.7059,-3.7062,-3.8325,-3.9135,-3.923,-3.9578,-3.974,-3.974,-3.9286,-3.8937,-3.8785,-3.8345,-3.8007,-3.8193,-3.8633,-3.8717,-3.8684,-3.9292,-4.0062,-3.9926,-3.9943,-4.0113,-4.0113,-4.0113,-4.0113,-4.0087,-3.9773,-3.9545,-3.9646,-4.0272,-4.0496,-4.0687,-4.1262,-4.1997,-4.1852,-4.1276,-4.0904,-4.0627,-4.0558,-4.0489,-4.0489,-4.0489,-4.0489,-4.378,-4.3214,-4.3323,-4.3358,-4.3358,-4.3304,-4.292,-4.234,-4.1994,-4.1583,-4.1105,-4.0888,-4.0728,-4.0577,-4.0229,-3.9496,-3.8094,-3.7399,-3.6658,-3.6103,-3.6297,-3.6471,-3.6536,-3.6821,-3.7189,-3.7467,-3.7667,-3.7792,-3.7649,-3.7613,-3.7613,-3.7613,-3.7685,-3.7756,-3.779,-3.7658,-3.7009,-3.6835,-3.6815,-3.6824,-3.6602,-3.6827,-3.706,-3.6898,-3.6092,-3.5626,-3.5266,-3.4866,-3.4761,-3.4807,-3.5052,-3.5275,-3.5401,-3.5668,-3.5864,-3.5837,-3.5638,-3.5788,-3.6114,-3.595,-3.5947,-3.6693,-3.6656,-3.6188,-3.5778,-3.55,-3.5677,-3.575,-3.619,-3.6399,-3.598,-3.6841,-3.73,-3.7528,-3.8434,-3.9547,-3.9575,-3.9738,-3.9918,-3.9784,-3.9403,-3.9268,-3.9242,-3.9249,-3.8903,-3.887,-3.9292,-3.9242,-3.9276,-3.9605,-4.0028,-3.9774,-3.9774,-4.0028,-4.0113,-4.0113,-4.0113,-4.0096,-3.9518,-3.8995,-3.9104,-3.9379,-3.9471,-3.9613,-4.029,-4.0902,-4.0857,-4.099,-4.0715,-4.0524,-4.0489,-4.0489,-4.0489,-4.0489,-4.0489,-4.3287,-4.3214,-4.3214,-4.3233,-4.3196,-4.29,-4.271,-4.2575,-4.1984,-4.1657,-4.1529,-4.1203,-4.1006,-4.0631,-3.9256,-3.8123,-3.7251,-3.6818,-3.6371,-3.5915,-3.6553,-3.6898,-3.6937,-3.7357,-3.7559,-3.7685,-3.781,-3.7775,-3.7685,-3.7613,-3.7631,-3.7667,-3.7739,-3.7844,-3.8111,-3.7879,-3.7396,-3.7385,-3.7483,-3.7609,-3.7715,-3.7595,-3.7111,-3.6465,-3.6038,-3.554,-3.4848,-3.4515,-3.4653,-3.5367,-3.556,-3.5974,-3.6494,-3.6726,-3.6831,-3.6451,-3.5864,-3.5322,-3.5989,-3.5688,-3.5514,-3.6042,-3.5861,-3.5272,-3.5158,-3.5346,-3.5574,-3.5622,-3.6067,-3.6199,-3.6017,-3.6606,-3.7012,-3.7727,-3.8635,-3.9458,-3.9755,-3.9755,-3.991,-4.0045,-3.974,-3.9775,-3.9809,-3.9868,-3.9876,-3.9893,-3.9876,-3.9791,-3.9791,-3.9994,-4.0113,-3.9893,-3.9791,-4.0028,-4.0113,-4.0113,-4.007,-4.007,-3.9302,-3.8556,-3.8649,-3.8724,-3.8529,-3.8762,-3.9495,-4.0225,-4.0579,-4.0646,-4.0524,-4.0489,-4.0489,-4.0489,-4.0489,-4.0489,-4.0489,-4.3087,-4.316,-4.3178,-4.3251,-4.3305,-4.3142,-4.2976,-4.2711,-4.2274,-4.192,-4.1683,-4.1408,-4.1012,-4.0158,-3.8425,-3.7354,-3.6949,-3.6759,-3.6433,-3.6224,-3.6858,-3.7283,-3.7283,-3.7431,-3.7631,-3.7846,-3.7828,-3.7721,-3.7631,-3.7631,-3.7667,-3.7739,-3.7948,-3.8185,-3.8439,-3.8282,-3.8079,-3.7937,-3.7807,-3.7933,-3.8191,-3.8013,-3.738,-3.6346,-3.5989,-3.5295,-3.4618,-3.4026,-3.4493,-3.5243,-3.5527,-3.6001,-3.6735,-3.7029,-3.697,-3.6911,-3.6203,-3.5924,-3.6152,-3.556,-3.5472,-3.5517,-3.5448,-3.5362,-3.5113,-3.5666,-3.5948,-3.5605,-3.5965,-3.6144,-3.6265,-3.6751,-3.7269,-3.7958,-3.8931,-3.9496,-3.9927,-3.9816,-3.9867,-4.0003,-4.0053,-3.9868,-3.9708,-3.9691,-3.9775,-3.9986,-3.9969,-3.9935,-3.9943,-4.0045,-4.0113,-4.0079,-4.0028,-4.0096,-4.0113,-4.0096,-4.0045,-3.9876,-3.9011,-3.8444,-3.8245,-3.8166,-3.7997,-3.8354,-3.919,-3.9822,-4.0305,-4.0489,-4.0489,-4.0489,-4.0489,-4.0489,-4.0489,-4.0489,-4.0505,-4.3012,-4.3123,-4.316,-4.3251,-4.334,-4.3322,-4.3214,-4.3032,-4.2575,-4.2216,-4.181,-4.1279,-4.0431,-3.9269,-3.7712,-3.6877,-3.6683,-3.6841,-3.665,-3.6698,-3.7132,-3.7542,-3.7523,-3.7523,-3.7685,-3.7917,-3.7915,-3.7774,-3.7703,-3.7757,-3.788,-3.7775,-3.8085,-3.841,-3.8643,-3.8792,-3.8775,-3.8614,-3.8327,-3.8358,-3.8472,-3.8249,-3.7478,-3.6642,-3.5836,-3.5146,-3.4449,-3.3789,-3.4122,-3.5138,-3.5311,-3.5865,-3.6902,-3.7085,-3.6989,-3.6821,-3.6219,-3.5782,-3.5803,-3.5506,-3.5228,-3.5067,-3.5211,-3.5234,-3.5134,-3.6271,-3.7013,-3.605,-3.6217,-3.6573,-3.6871,-3.7222,-3.7784,-3.8505,-3.9345,-3.9842,-4.0127,-3.9799,-3.9547,-3.952,-3.9445,-3.9211,-3.9152,-3.9253,-3.9514,-3.9935,-4.0062,-4.0037,-4.0054,-4.0079,-4.0096,-4.0079,-4.0113,-4.0087,-4.0045,-4.0045,-4.002,-3.9601,-3.8739,-3.8197,-3.7966,-3.7768,-3.7606,-3.8169,-3.8939,-3.9613,-4.0228,-4.0366,-4.0489,-4.0489,-4.0489,-4.0489,-4.0489,-4.0455,-4.0436,-4.3123,-4.3196,-4.3123,-4.316,-4.3214,-4.2864,-4.3032,-4.3339,-4.2711,-4.24,-4.2037,-4.083,-3.9034,-3.7744,-3.7221,-3.653,-3.5813,-3.6553,-3.6658,-3.6898,-3.7431,-3.7774,-3.7739,-3.7756,-3.788,-3.7934,-3.7984,-3.7897,-3.7828,-3.8101,-3.8069,-3.7985,-3.8251,-3.8545,-3.8857,-3.9114,-3.9259,-3.9138,-3.8918,-3.8658,-3.8545,-3.8192,-3.7514,-3.6571,-3.5835,-3.5146,-3.4431,-3.3807,-3.4032,-3.5248,-3.5204,-3.5794,-3.6848,-3.689,-3.6814,-3.6593,-3.5869,-3.5333,-3.5039,-3.5012,-3.4597,-3.4215,-3.438,-3.5029,-3.5048,-3.5829,-3.6376,-3.6749,-3.6856,-3.7039,-3.7439,-3.7927,-3.8312,-3.87,-3.9251,-3.9706,-3.9819,-3.9447,-3.9197,-3.9057,-3.8804,-3.848,-3.8346,-3.8388,-3.9001,-3.9446,-3.9454,-3.9429,-3.9901,-4.0011,-4.0045,-4.0062,-4.0096,-4.0045,-3.9969,-3.985,-3.9549,-3.9082,-3.8322,-3.7883,-3.7535,-3.7373,-3.7169,-3.7908,-3.8646,-3.9382,-4.0074,-4.0305,-4.0459,-4.0489,-4.0489,-4.0489,-4.0436,-4.0401,-4.0381,-4.3031,-4.3142,-4.316,-4.3251,-4.3375,-4.325,-4.3322,-4.3391,-4.2976,-4.2171,-4.1265,-3.9229,-3.7835,-3.7158,-3.6697,-3.644,-3.6174,-3.69,-3.7055,-3.7302,-3.7757,-3.7984,-3.7933,-3.7845,-3.7881,-3.7862,-3.7982,-3.7948,-3.7703,-3.8247,-3.8328,-3.8312,-3.8452,-3.8905,-3.9208,-3.9292,-3.9304,-3.9142,-3.8984,-3.8703,-3.8394,-3.8127,-3.7386,-3.596,-3.6251,-3.5182,-3.4083,-3.3918,-3.4453,-3.4965,-3.5029,-3.5792,-3.6598,-3.6448,-3.6304,-3.618,-3.5302,-3.4646,-3.4123,-3.4222,-3.4111,-3.3951,-3.4318,-3.4907,-3.4996,-3.6167,-3.6986,-3.7336,-3.7408,-3.7451,-3.778,-3.8179,-3.8528,-3.874,-3.9089,-3.9593,-3.9422,-3.9015,-3.8664,-3.8461,-3.799,-3.7536,-3.7477,-3.7469,-3.8204,-3.8883,-3.8849,-3.8914,-3.9369,-3.9673,-3.9622,-3.9774,-3.9808,-3.9656,-3.9528,-3.9292,-3.9038,-3.8463,-3.7911,-3.7533,-3.7193,-3.6923,-3.6892,-3.7615,-3.8338,-3.9029,-3.9674,-4.0182,-4.0428,-4.0474,-4.0455,-4.0455,-4.0401,-4.0312,-4.0277,-4.3068,-4.3196,-4.3251,-4.334,-4.3463,-4.3497,-4.3479,-4.3444,-4.3178,-4.1965,-4.0123,-3.8083,-3.6954,-3.6686,-3.6483,-3.6297,-3.6492,-3.7055,-3.7395,-3.7685,-3.7948,-3.8121,-3.7997,-3.7816,-3.7649,-3.764,-3.7784,-3.7778,-3.7017,-3.8165,-3.8337,-3.836,-3.8689,-3.9122,-3.9383,-3.9414,-3.9205,-3.8898,-3.8733,-3.8535,-3.8234,-3.808,-3.7695,-3.6283,-3.6251,-3.5513,-3.4355,-3.3986,-3.4033,-3.4473,-3.4764,-3.5207,-3.5697,-3.5867,-3.5548,-3.5232,-3.4757,-3.3982,-3.3553,-3.3176,-3.3354,-3.3193,-3.397,-3.4429,-3.4996,-3.5972,-3.6398,-3.6648,-3.7099,-3.7635,-3.7787,-3.826,-3.8655,-3.8908,-3.9248,-3.9624,-3.8942,-3.8446,-3.8117,-3.7803,-3.7182,-3.6439,-3.6804,-3.6837,-3.7386,-3.8086,-3.8351,-3.8408,-3.8676,-3.8886,-3.8853,-3.9089,-3.9419,-3.9202,-3.8973,-3.876,-3.8509,-3.7982,-3.7474,-3.7193,-3.6892,-3.66,-3.6722,-3.7477,-3.8154,-3.8739,-3.9367,-4.0059,-4.0336,-4.0489,-4.047,-4.0401,-4.0226,-4.0172,-4.0101,-4.3196,-4.3394,-4.3394,-4.3394,-4.3429,-4.3481,-4.3479,-4.3355,-4.2941,-4.157,-3.9408,-3.7823,-3.673,-3.6202,-3.6339,-3.6512,-3.6658,-3.7227,-3.7596,-3.7756,-3.8152,-3.8218,-3.7996,-3.7735,-3.7468,-3.7249,-3.7338,-3.7055,-3.6082,-3.7919,-3.8261,-3.8276,-3.871,-3.9221,-3.9471,-3.9414,-3.9146,-3.8759,-3.8655,-3.8378,-3.8152,-3.8034,-3.7629,-3.7004,-3.6287,-3.5515,-3.4707,-3.385,-3.3809,-3.4035,-3.4039,-3.4394,-3.4936,-3.4882,-3.4723,-3.4653,-3.3933,-3.3511,-3.3441,-3.2543,-3.2441,-3.2687,-3.353,-3.3917,-3.4005,-3.4641,-3.5403,-3.5758,-3.6254,-3.6877,-3.7482,-3.8229,-3.8684,-3.8836,-3.9144,-3.9009,-3.8311,-3.7649,-3.7266,-3.6979,-3.5977,-3.5238,-3.5808,-3.6287,-3.6709,-3.7205,-3.766,-3.7942,-3.8118,-3.8108,-3.8091,-3.8408,-3.8754,-3.8546,-3.8312,-3.8248,-3.7967,-3.7456,-3.7118,-3.6861,-3.6723,-3.6585,-3.6861,-3.74,-3.8031,-3.8677,-3.9321,-4.0013,-4.0224,-4.0401,-4.0381,-4.0277,-4.0152,-4.0046,-4.0031,-4.3215,-4.3394,-4.3394,-4.3411,-4.3463,-4.3497,-4.3427,-4.2996,-4.1481,-3.9964,-3.8713,-3.7314,-3.6598,-3.6406,-3.6764,-3.7075,-3.7208,-3.7613,-3.7967,-3.8036,-3.8399,-3.8366,-3.8141,-3.7714,-3.7364,-3.7187,-3.7123,-3.6735,-3.6087,-3.7696,-3.8206,-3.8252,-3.8864,-3.9358,-3.9176,-3.8947,-3.8597,-3.8265,-3.81,-3.7966,-3.7862,-3.7792,-3.7506,-3.697,-3.6341,-3.564,-3.4761,-3.3818,-3.3638,-3.3734,-3.3668,-3.3864,-3.4302,-3.4266,-3.3933,-3.3775,-3.3196,-3.286,-3.301,-3.2774,-3.2688,-3.282,-3.3141,-3.3634,-3.3794,-3.45,-3.4872,-3.5243,-3.6024,-3.6629,-3.6932,-3.813,-3.8606,-3.8088,-3.8091,-3.7901,-3.7369,-3.6732,-3.6251,-3.6051,-3.5371,-3.5067,-3.5311,-3.5728,-3.6114,-3.6249,-3.6609,-3.7276,-3.7611,-3.7432,-3.7347,-3.7694,-3.7951,-3.7783,-3.7636,-3.7648,-3.754,-3.7147,-3.6831,-3.6631,-3.6523,-3.6492,-3.6599,-3.6953,-3.7784,-3.8598,-3.9305,-3.9902,-4.0132,-4.0277,-4.0242,-4.0242,-4.0137,-4.0031,-4.0011,-4.3287,-4.3429,-4.3447,-4.3445,-4.3479,-4.3479,-4.3246,-4.2432,-4.0376,-3.9072,-3.8442,-3.729,-3.6678,-3.686,-3.7267,-3.7632,-3.7721,-3.8203,-3.8435,-3.8483,-3.8725,-3.8474,-3.807,-3.764,-3.7012,-3.6786,-3.6459,-3.6098,-3.5454,-3.7063,-3.7828,-3.829,-3.9159,-3.9401,-3.9189,-3.8905,-3.8533,-3.8214,-3.7982,-3.7757,-3.7703,-3.7542,-3.7256,-3.6701,-3.6125,-3.5567,-3.4562,-3.3911,-3.3552,-3.3486,-3.3405,-3.3389,-3.3599,-3.3512,-3.3143,-3.2932,-3.2876,-3.2622,-3.2832,-3.3114,-3.2972,-3.2854,-3.3303,-3.3449,-3.347,-3.3788,-3.3933,-3.4482,-3.5829,-3.6131,-3.6274,-3.7577,-3.8187,-3.7667,-3.7466,-3.7316,-3.6888,-3.6268,-3.574,-3.5503,-3.5281,-3.5065,-3.4947,-3.5178,-3.5542,-3.5534,-3.5565,-3.6325,-3.7003,-3.6806,-3.662,-3.6892,-3.7164,-3.7153,-3.7105,-3.7117,-3.6956,-3.6753,-3.6616,-3.6492,-3.6492,-3.6492,-3.6492,-3.6645,-3.7677,-3.8616,-3.929,-3.9791,-4.0132,-4.0242,-4.0172,-4.0137,-4.0086,-4.0101,-4.0081,-4.3446,-4.3497,-4.3479,-4.3461,-4.3441,-4.3168,-4.2679,-4.1774,-4.0003,-3.9068,-3.8742,-3.7625,-3.7208,-3.7264,-3.7703,-3.7946,-3.8064,-3.86,-3.8758,-3.8921,-3.9069,-3.8507,-3.7904,-3.738,-3.6764,-3.6031,-3.5619,-3.5434,-3.467,-3.6108,-3.7279,-3.8147,-3.8956,-3.9276,-3.9238,-3.9054,-3.8681,-3.8277,-3.7861,-3.7685,-3.7613,-3.7577,-3.7184,-3.6593,-3.5927,-3.5225,-3.4313,-3.3573,-3.3069,-3.2797,-3.2596,-3.251,-3.2476,-3.2441,-3.2406,-3.2474,-3.2638,-3.2813,-3.2921,-3.3214,-3.3404,-3.3332,-3.3404,-3.3208,-3.3066,-3.3171,-3.3184,-3.3579,-3.4553,-3.4925,-3.5368,-3.6649,-3.7864,-3.7577,-3.7375,-3.7034,-3.66,-3.6075,-3.556,-3.5258,-3.5065,-3.4923,-3.4947,-3.5105,-3.5308,-3.536,-3.5458,-3.5673,-3.6191,-3.6124,-3.5988,-3.5999,-3.6273,-3.652,-3.6533,-3.6599,-3.6769,-3.669,-3.6585,-3.6492,-3.6492,-3.6492,-3.6492,-3.683,-3.7769,-3.8677,-3.9613,-4.0052,-4.0224,-4.0242,-4.0172,-4.0172,-4.0156,-4.0191,-4.0207,-4.3358,-4.3479,-4.3479,-4.3184,-4.2489,-4.129,-4.0633,-4.0339,-3.9424,-3.8798,-3.8221,-3.7829,-3.7703,-3.7862,-3.8167,-3.841,-3.8615,-3.8785,-3.8848,-3.9036,-3.9245,-3.8638,-3.8027,-3.7359,-3.6625,-3.5886,-3.5326,-3.5063,-3.4986,-3.5859,-3.697,-3.8108,-3.851,-3.893,-3.9183,-3.9195,-3.8762,-3.8355,-3.793,-3.7721,-3.7631,-3.7613,-3.7166,-3.6556,-3.5925,-3.5168,-3.4323,-3.3409,-3.2922,-3.2804,-3.2524,-3.2423,-3.2406,-3.2406,-3.2406,-3.2456,-3.28,-3.3169,-3.3258,-3.3643,-3.3915,-3.3858,-3.3889,-3.3616,-3.3284,-3.2983,-3.2813,-3.3218,-3.3916,-3.4571,-3.5314,-3.6434,-3.7487,-3.7703,-3.7414,-3.6939,-3.646,-3.5946,-3.5424,-3.5182,-3.497,-3.4923,-3.497,-3.5128,-3.5331,-3.5344,-3.5435,-3.5549,-3.5616,-3.5616,-3.5616,-3.5628,-3.5532,-3.5817,-3.6034,-3.6125,-3.6445,-3.6655,-3.6538,-3.6476,-3.6492,-3.6492,-3.6492,-3.6969,-3.7831,-3.8985,-4.0166,-4.0405,-4.0347,-4.0277,-4.0207,-4.0191,-4.0191,-4.0261,-4.0312,-4.3339,-4.3338,-4.3132,-4.2379,-4.1229,-4.0174,-3.9605,-3.9282,-3.8929,-3.8502,-3.8139,-3.8168,-3.82,-3.8281,-3.8597,-3.8855,-3.9007,-3.9147,-3.9248,-3.9309,-3.9338,-3.8577,-3.7938,-3.7302,-3.6471,-3.5684,-3.5084,-3.4843,-3.5016,-3.567,-3.6702,-3.7209,-3.7739,-3.8437,-3.8751,-3.8751,-3.8734,-3.8462,-3.8198,-3.7879,-3.7757,-3.7667,-3.7202,-3.6658,-3.6026,-3.529,-3.44,-3.3418,-3.3017,-3.2868,-3.2574,-3.2423,-3.2406,-3.2406,-3.2406,-3.249,-3.2928,-3.3202,-3.3346,-3.3831,-3.4111,-3.4216,-3.4216,-3.4005,-3.3671,-3.3328,-3.3045,-3.308,-3.3894,-3.4694,-3.5527,-3.6361,-3.7162,-3.7912,-3.7414,-3.6882,-3.6354,-3.581,-3.5464,-3.5182,-3.5041,-3.497,-3.5018,-3.5198,-3.5354,-3.5406,-3.5481,-3.5571,-3.5616,-3.5616,-3.5616,-3.5633,-3.5328,-3.5184,-3.5421,-3.5727,-3.5966,-3.6297,-3.6507,-3.6446,-3.6492,-3.6569,-3.663,-3.7138,-3.7831,-3.8985,-4.0059,-4.0328,-4.0366,-4.0277,-4.0242,-4.0242,-4.0296,-4.0366,-4.0366,-4.3338,-4.305,-4.2385,-4.1246,-3.99,-3.9745,-3.9221,-3.8469,-3.8471,-3.8387,-3.8354,-3.864,-3.8618,-3.8618,-3.8913,-3.9151,-3.9309,-3.9445,-3.9552,-3.9637,-3.9409,-3.8655,-3.7672,-3.713,-3.6193,-3.5216,-3.4758,-3.4868,-3.5028,-3.5481,-3.5888,-3.6106,-3.6969,-3.7819,-3.847,-3.8584,-3.8713,-3.8877,-3.8566,-3.8232,-3.8013,-3.777,-3.7361,-3.6836,-3.6196,-3.5457,-3.4387,-3.3584,-3.2993,-3.282,-3.2641,-3.2457,-3.2406,-3.2406,-3.2406,-3.2591,-3.299,-3.3217,-3.3447,-3.3858,-3.4124,-3.4216,-3.4216,-3.4161,-3.3915,-3.349,-3.3139,-3.3066,-3.3781,-3.4498,-3.5312,-3.6218,-3.7055,-3.7611,-3.7523,-3.7038,-3.6542,-3.5885,-3.5281,-3.5065,-3.4994,-3.4947,-3.5041,-3.5222,-3.5354,-3.5452,-3.5526,-3.56,-3.5554,-3.5554,-3.5532,-3.5532,-3.5192,-3.4955,-3.5252,-3.5503,-3.5562,-3.5817,-3.6198,-3.643,-3.6476,-3.663,-3.6784,-3.7446,-3.8169,-3.8831,-3.9628,-4.0036,-4.0401,-4.0312,-4.0312,-4.0312,-4.0347,-4.0401,-4.0436,-4.3062,-4.2383,-4.104,-4.0113,-3.9617,-3.9013,-3.8697,-3.8478,-3.8541,-3.8446,-3.837,-3.8559,-3.874,-3.8873,-3.9101,-3.933,-3.9551,-3.9595,-3.9722,-3.9493,-3.926,-3.8463,-3.7254,-3.6728,-3.583,-3.5208,-3.4898,-3.4927,-3.4954,-3.5151,-3.5449,-3.5964,-3.6636,-3.7341,-3.8286,-3.8502,-3.8888,-3.916,-3.8998,-3.8633,-3.8355,-3.7535,-3.688,-3.6277,-3.5625,-3.4851,-3.3993,-3.3518,-3.3119,-3.2916,-3.2706,-3.2524,-3.2423,-3.2406,-3.2406,-3.2525,-3.2959,-3.3217,-3.3462,-3.3818,-3.4148,-3.4216,-3.4216,-3.4216,-3.4005,-3.356,-3.3319,-3.3335,-3.3573,-3.4278,-3.5081,-3.6021,-3.6912,-3.7326,-3.7614,-3.7152,-3.6666,-3.5912,-3.5142,-3.4994,-3.4923,-3.4994,-3.5088,-3.5222,-3.5354,-3.5452,-3.5532,-3.556,-3.5424,-3.5379,-3.5356,-3.5287,-3.5021,-3.4889,-3.5061,-3.5219,-3.525,-3.5649,-3.6106,-3.6307,-3.6476,-3.6584,-3.6769,-3.7754,-3.8554,-3.9046,-3.9585,-4.0197,-4.042,-4.0366,-4.0366,-4.0366,-4.0381,-4.0451,-4.047,-4.2952,-4.1984,-4.0447,-3.9502,-3.9053,-3.8613,-3.8478,-3.8491,-3.8569,-3.8588,-3.8606,-3.8796,-3.8984,-3.9129,-3.9309,-3.9483,-3.9712,-3.9691,-3.9738,-3.9532,-3.8885,-3.8167,-3.7297,-3.6439,-3.568,-3.5076,-3.4945,-3.4908,-3.4879,-3.4877,-3.5155,-3.5472,-3.6009,-3.669,-3.7701,-3.8331,-3.8915,-3.9298,-3.9272,-3.896,-3.8483,-3.7533,-3.7025,-3.6395,-3.5641,-3.4726,-3.4045,-3.3602,-3.3198,-3.2916,-3.264,-3.2507,-3.2405,-3.2406,-3.2406,-3.2558,-3.2896,-3.3288,-3.3462,-3.3784,-3.4161,-3.4173,-3.4216,-3.4216,-3.4049,-3.3648,-3.3484,-3.3442,-3.3156,-3.369,-3.4811,-3.5806,-3.6838,-3.7502,-3.7288,-3.6882,-3.6316,-3.5638,-3.5165,-3.4947,-3.497,-3.5065,-3.5198,-3.5314,-3.5446,-3.552,-3.56,-3.56,-3.5447,-3.5085,-3.5085,-3.4904,-3.4553,-3.4243,-3.4092,-3.4462,-3.4898,-3.5378,-3.5937,-3.6276,-3.6492,-3.6507,-3.6799,-3.7661,-3.84,-3.897,-3.9505,-4.0166,-4.0459,-4.0436,-4.0436,-4.0455,-4.047,-4.0451,-4.047,-4.2843,-4.1735,-4.015,-3.9092,-3.8469,-3.8444,-3.8525,-3.8569,-3.8615,-3.8785,-3.9007,-3.9205,-3.935,-3.942,-3.9558,-3.9684,-3.9754,-3.975,-3.9766,-3.935,-3.8761,-3.7812,-3.701,-3.6321,-3.5524,-3.5067,-3.4896,-3.4888,-3.4888,-3.4819,-3.4747,-3.4747,-3.509,-3.557,-3.6648,-3.7448,-3.8107,-3.9089,-3.9264,-3.8914,-3.8236,-3.7442,-3.7073,-3.6655,-3.5978,-3.4957,-3.423,-3.3695,-3.317,-3.29,-3.2608,-3.2474,-3.2423,-3.2406,-3.2406,-3.2541,-3.2848,-3.3126,-3.3317,-3.3743,-3.4011,-3.4136,-3.4173,-3.4124,-3.3972,-3.3815,-3.3657,-3.3433,-3.3155,-3.3521,-3.4645,-3.5451,-3.6483,-3.745,-3.7104,-3.6643,-3.602,-3.5453,-3.5188,-3.4947,-3.5018,-3.5135,-3.5268,-3.5423,-3.5498,-3.5594,-3.5616,-3.5616,-3.5464,-3.4927,-3.4625,-3.4268,-3.3818,-3.3523,-3.3351,-3.3975,-3.4682,-3.5087,-3.5629,-3.6153,-3.6492,-3.6507,-3.6769,-3.74,-3.8108,-3.88,-3.9428,-4.009,-4.029,-4.0455,-4.0489,-4.0489,-4.0489,-4.047,-4.0505,-4.2618,-4.1137,-3.9543,-3.8706,-3.8494,-3.8428,-3.8603,-3.8855,-3.8862,-3.9064,-3.9367,-3.9458,-3.9483,-3.9356,-3.9589,-3.9757,-3.9856,-3.98,-3.9323,-3.8839,-3.8235,-3.7294,-3.6452,-3.5885,-3.5314,-3.5031,-3.4859,-3.4809,-3.48,-3.4689,-3.4626,-3.4645,-3.5386,-3.6028,-3.6892,-3.7598,-3.8275,-3.8951,-3.8857,-3.845,-3.8058,-3.7254,-3.6366,-3.5551,-3.4466,-3.3927,-3.3482,-3.3194,-3.2995,-3.2804,-3.2591,-3.2457,-3.2406,-3.2406,-3.2406,-3.2491,-3.28,-3.2908,-3.3166,-3.3578,-3.3797,-3.3947,-3.3998,-3.4074,-3.3947,-3.3829,-3.3671,-3.352,-3.3439,-3.3884,-3.4697,-3.4905,-3.5705,-3.6916,-3.7208,-3.6603,-3.5955,-3.5498,-3.5111,-3.5018,-3.5018,-3.5135,-3.5291,-3.5406,-3.5543,-3.5594,-3.5616,-3.56,-3.5492,-3.4904,-3.4235,-3.3767,-3.3277,-3.3145,-3.3171,-3.3964,-3.4641,-3.4967,-3.5414,-3.6107,-3.6492,-3.6492,-3.6846,-3.7415,-3.8046,-3.8754,-3.94,-4.0043,-4.0305,-4.0489,-4.0489,-4.0489,-4.0489,-4.0489,-4.0489]},{"header":{"parameterUnit":"m.s-1","parameterCategory":1,"la1":31.0,"la2":29.5877,"lo1":-88.7671,"lo2":-86.6584,"dx":0.0162,"dy":0.0185,"nx":115,"ny":88,"refTime":"2022-12-05T06:00:00:Z","depth":0,"parameterNumber":3,"parameterNumberName":"V-component_of_WINDS"},"data":[0.0,0.0,0.0,0.0,0.0,0.0,0.0,0.0,0.0,0.0,0.0,0.0,0.0,0.0,0.0,0.0,0.0,0.0,0.0,0.0,0.0,0.0,0.0,0.0,0.0,0.0,0.0,0.0,0.0,0.0,0.0,0.0,0.0,0.0,0.0,0.0,0.0,0.0,0.0,0.0,0.0,0.0,0.0,0.0,0.0,0.0,0.0,0.0,0.0,0.0,0.0,0.0,0.0,0.0,0.0,0.0,0.0,0.0,0.0,0.0,0.0,0.0,0.0,0.0,0.0,0.0,0.0,0.0,0.0,0.0,0.0,0.0,0.0,0.0,0.0,0.0,0.0,0.0,0.0,0.0,0.0,0.0,0.0,0.0,0.0,0.0,0.0,0.0,0.0,0.0,0.0,0.0,0.0,0.0,0.0,0.0,0.0,0.0,0.0,0.0,0.0,0.0,0.0,0.0,0.0,0.0,0.0,0.0,0.0,0.0,0.0,0.0,0.0,0.0,0.0,0.0,0.0,0.0,0.0,0.0,0.0,0.0,0.0,0.0,0.0,0.0,0.0,0.0,0.0,0.0,0.0,0.0,0.0,0.0,0.0,0.0,0.0,0.0,0.0,0.0,0.0,0.0,0.0,0.0,0.0,0.0,0.0,0.0,0.0,0.0,0.0,0.0,0.0,0.0,0.0,0.0,0.0,0.0,0.0,0.0,0.0,0.0,0.0,0.0,0.0,0.0,0.0,0.0,0.0,0.0,0.0,0.0,0.0,0.0,0.0,0.0,0.0,0.0,0.0,0.0,0.0,0.0,0.0,0.0,0.0,0.0,0.0,0.0,0.0,0.0,0.0,0.0,0.0,0.0,0.0,0.0,0.0,0.0,0.0,0.0,0.0,0.0,0.0,0.0,0.0,0.0,0.0,0.0,0.0,0.0,0.0,0.0,0.0,0.0,0.0,0.0,0.0,0.0,0.0,0.0,0.0,0.0,0.0,0.0,0.0,0.0,0.0,0.0,0.0,0.0,0.0,0.0,0.0,0.0,0.0,0.0,0.0,0.0,0.0,0.0,0.0,0.0,0.0,0.0,0.0,0.0,0.0,0.0,0.0,0.0,0.0,0.0,0.0,0.0,0.0,0.0,0.0,0.0,0.0,0.0,0.0,0.0,0.0,0.0,0.0,0.0,0.0,0.0,0.0,0.0,0.0,0.0,0.0,0.0,0.0,0.0,0.0,0.0,0.0,0.0,0.0,0.0,0.0,0.0,0.0,0.0,0.0,0.0,0.0,0.0,0.0,0.0,0.0,0.0,0.0,0.0,0.0,0.0,0.0,0.0,0.0,0.0,0.0,0.0,0.0,0.0,0.0,0.0,0.0,0.0,0.0,0.0,0.0,0.0,0.0,0.0,0.0,0.0,0.0,0.0,0.0,0.0,0.0,0.0,0.0,0.0,0.0,0.0,0.0,0.0,0.0,0.0,0.0,0.0,0.0,0.0,0.0,0.0,0.0,0.0,0.0,0.0,0.0,0.0,0.0,0.0,0.0,0.0,0.0,0.0,0.0,0.0,0.0,0.0,0.0,0.0,0.0,0.0,0.0,0.0,0.0,0.0,0.0,0.0,0.0,0.0,0.0,0.0,0.0,0.0,0.0,0.0,0.0,0.0,0.0,0.0,0.0,0.0,0.0,0.0,0.0,0.0,0.0,0.0,0.0,0.0,0.0,0.0,0.0,0.0,0.0,0.0,0.0,0.0,0.0,0.0,0.0,0.0,0.0,0.0,0.0,0.0,0.0,0.0,0.0,0.0,0.0,0.0,0.0,0.0,0.0,0.0,0.0,0.0,0.0,0.0,0.0,0.0,0.0,0.0,0.0,0.0,0.0,0.0,0.0,0.0,0.0,0.0,0.0,0.0,0.0,0.0,0.0,0.0,0.0,0.0,0.0,0.0,0.0,0.0,0.0,0.0,0.0,0.0,0.0,0.0,0.0,0.0,0.0,0.0,0.0,0.0,0.0,0.0,0.0,0.0,0.0,0.0,0.0,0.0,0.0,0.0,0.0,0.0,0.0,0.0,0.0,0.0,0.0,0.0,0.0,0.0,0.0,0.0,0.0,0.0,0.0,0.0,0.0,0.0,0.0,0.0,0.0,0.0,0.0,0.0,0.0,0.0,0.0,0.0,0.0,0.0,0.0,0.0,0.0,0.0,0.0,0.0,0.0,0.0,0.0,0.0,0.0,0.0,0.0,0.0,0.0,0.0,0.0,0.0,0.0,0.0,0.0,0.0,0.0,0.0,0.0,0.0,0.0,0.0,0.0,0.0,0.0,0.0,0.0,0.0,0.0,0.0,0.0,0.0,0.0,0.0,0.0,0.0,0.0,0.0,0.0,0.0,0.0,0.0,0.0,0.0,0.0,0.0,0.0,0.0,0.0,0.0,0.0,0.0,0.0,0.0,0.0,0.0,0.0,0.0,0.0,0.0,0.0,0.0,0.0,0.0,0.0,0.0,0.0,0.0,0.0,0.0,0.0,0.0,0.0,0.0,0.0,0.0,0.0,0.0,0.0,0.0,0.0,0.0,0.0,0.0,0.0,0.0,0.0,0.0,0.0,0.0,0.0,0.0,0.0,0.0,0.0,0.0,0.0,0.0,0.0,0.0,0.0,0.0,0.0,0.0,0.0,0.0,0.0,0.0,0.0,0.0,0.0,0.0,0.0,0.0,0.0,0.0,0.0,0.0,0.0,0.0,0.0,0.0,0.0,0.0,0.0,0.0,0.0,0.0,0.0,0.0,0.0,0.0,0.0,0.0,0.0,0.0,0.0,0.0,0.0,0.0,0.0,0.0,0.0,0.0,0.0,0.0,0.0,0.0,0.0,0.0,0.0,0.0,0.0,0.0,0.0,0.0,0.0,0.0,0.0,0.0,0.0,0.0,0.0,0.0,0.0,0.0,0.0,0.0,0.0,0.0,0.0,0.0,0.0,0.0,0.0,0.0,0.0,0.0,0.0,0.0,0.0,0.0,0.0,0.0,0.0,0.0,0.0,0.0,0.0,0.0,0.0,0.0,0.0,0.0,0.0,0.0,0.0,0.0,0.0,0.0,0.0,0.0,0.0,0.0,0.0,0.0,0.0,0.0,0.0,0.0,0.0,0.0,0.0,0.0,0.0,0.0,0.0,0.0,0.0,0.0,0.0,0.0,0.0,0.0,0.0,0.0,0.0,0.0,0.0,0.0,0.0,0.0,0.0,0.0,0.0,0.0,0.0,0.0,0.0,0.0,0.0,0.0,0.0,0.0,0.0,0.0,0.0,0.0,0.0,0.0,0.0,0.0,0.0,0.0,0.0,0.0,0.0,0.0,0.0,0.0,0.0,0.0,0.0,0.0,0.0,0.0,0.0,0.0,0.0,0.0,0.0,0.0,0.0,0.0,0.0,0.0,0.0,0.0,0.0,0.0,0.0,0.0,0.0,0.0,0.0,0.0,0.0,0.0,0.0,0.0,0.0,0.0,0.0,0.0,0.0,0.0,0.0,0.0,0.0,0.0,0.0,0.0,0.0,0.0,0.0,0.0,0.0,0.0,0.0,0.0,0.0,0.0,0.0,0.0,0.0,0.0,0.0,0.0,0.0,0.0,0.0,0.0,0.0,0.0,0.0,0.0,0.0,0.0,0.0,0.0,0.0,0.0,0.0,0.0,0.0,0.0,0.0,0.0,0.0,0.0,0.0,0.0,0.0,0.0,0.0,0.0,0.0,0.0,0.0,0.0,0.0,0.0,0.0,0.0,0.0,0.0,0.0,0.0,0.0,0.0,0.0,0.0,0.0,0.0,0.0,0.0,0.0,0.0,0.0,0.0,0.0,0.0,0.0,0.0,0.0,0.0,0.0,0.0,0.0,0.0,0.0,0.0,0.0,0.0,0.0,0.0,0.0,0.0,0.0,0.0,0.0,0.0,0.0,0.0,0.0,0.0,0.0,0.0,0.0,0.0,0.0,0.0,0.0,0.0,0.0,0.0,0.0,0.0,0.0,0.0,0.0,0.0,0.0,0.0,0.0,0.0,0.0,0.0,0.0,0.0,0.0,0.0,0.0,0.0,0.0,0.0,0.0,0.0,0.0,0.0,0.0,0.0,0.0,0.0,0.0,0.0,0.0,0.0,0.0,0.0,0.0,0.0,0.0,0.0,0.0,0.0,0.0,0.0,0.0,0.0,0.0,0.0,0.0,0.0,0.0,0.0,0.0,0.0,0.0,0.0,0.0,0.0,0.0,0.0,0.0524,0.0,0.0,0.0,0.0,0.0,0.0,0.0,0.0,0.0,0.0,0.0,0.0,0.0,0.0,0.0,0.0,0.0,0.0,0.0,0.0,0.0,0.0,0.0,0.0,0.0,0.0,0.0,0.0,0.0,0.0,0.0,0.0,0.0,0.0,0.0,0.0,0.0,0.0,0.0,0.0,0.0,0.0,0.0,0.0,0.0,0.0,0.0,0.0,0.0,0.0,0.0,0.0,0.0,0.0,0.0,0.0,0.0,0.0,0.0,0.0,0.0,0.0,0.0,0.0,0.0,0.0,0.0,0.0,0.0,0.0,0.0,0.0,0.0,0.0,0.0,0.0,0.0,0.0,0.0,0.0,0.0,0.0,0.0,0.0,0.0,0.0,0.0,0.0,0.0,0.0,0.0,0.0,0.0,0.0,0.0,0.0,0.0,0.0,0.0,0.0,0.0,0.0,0.0,0.0,0.0,0.0,0.0,0.0,0.0,0.0,0.0,0.0,0.0,0.0,0.0619,0.0,0.0,0.0,0.0,0.0,0.0,0.0,0.0,0.0,0.0,0.0,0.0,0.0,0.0,0.0,0.0,0.0,0.0,0.0,0.0,0.0,0.0,0.0,0.0,0.0,0.0,0.0,0.0,0.0,0.0,0.0,0.0,0.0,0.0,0.0,0.0,0.0,0.0,0.0,0.0,0.0,0.0,0.0,0.0,0.0,0.0,0.0,0.0,0.0,0.0,0.0,0.0,0.0,0.0,0.0,0.0,0.0,0.0,0.0,0.0,0.0,0.0,0.0,0.0,0.0,0.0,0.0,0.0,0.0,0.0,0.0,0.0,0.0,0.0,0.0,0.0,0.0,0.0,0.0,0.0,0.0,0.0,0.0,0.0,0.0,0.0,0.0,0.0,0.0,0.0,0.0,0.0,0.0,0.0,0.0,0.0,0.0,0.0,0.0,0.0,0.0,0.0,0.0,0.0,0.0,0.0,0.0,0.0,0.0,0.0,0.0,0.0,0.0,0.0,0.0,0.0,0.007,0.0,0.0,0.0,0.0,0.0,0.0,0.0,0.0,0.0,0.0,0.0,0.0,0.0,0.0,0.0,0.0,0.0,0.0,0.0,0.0,0.0,0.0,0.0,0.0,0.0,0.0,0.0,0.0,0.0,0.0,0.0,0.0,0.0,0.0,0.0,0.0,0.0,0.0,0.0,0.0,0.0,0.0,0.0,0.0,0.0,0.0,0.0,0.0,0.0,0.0,0.0,0.0,0.0,0.0,0.0,0.0,0.0,0.0,0.0,0.0,0.0,0.0,0.0,0.0,0.0,0.0,0.0,0.0,0.0,0.0,0.0,0.0,0.0,0.0,0.0,0.0,0.0,0.0,0.0,0.0,0.0,0.0,0.0,0.0,0.0,0.0,0.0,0.0,0.0,0.0,0.0,0.0,0.0,0.0,0.0,0.0,0.0,0.0,0.0,0.0,0.0,0.0,0.0,0.0,0.0,0.0,0.0,0.0,0.0,0.0,0.0,0.0,0.1473,0.1011,0.0348,0.0,0.0,0.0,0.0,0.0,0.0,0.0,0.0,0.0,0.0,0.0,0.0,0.0,0.0,0.0,0.0,0.0,0.0,0.0,0.0,0.0,0.0,0.0,0.0,0.0,0.0,0.0,0.0,0.0,0.0,0.0,0.0,0.0,0.0,0.0,0.0,0.0,0.0,0.0,0.0,0.0,0.0,0.0,0.0,0.0,0.0,0.0,0.0,0.0,0.0,0.0,0.0,0.0,0.0,0.0,0.0,0.0,0.0,0.0,0.0,0.0,0.0,0.0,0.0,0.0,0.0,0.0,0.0,0.0,0.0,0.0,0.0,0.0,0.0,0.0,0.0,0.0,0.0,0.0,0.0,0.0,0.0,0.0,0.0,0.0,0.0,0.0,0.0,0.0,0.0,0.0,0.0,0.0,0.0,0.0,0.0,0.0,0.0,0.0,0.0,0.0,0.0,0.0,0.0,0.0,0.0,0.0,0.0,0.0,0.0,0.0,0.0,0.1427,0.0873,0.0461,0.0237,0.0,0.0,0.0,0.0,0.0,0.0,0.0,0.0,0.0,0.0,0.0,0.0,0.0,0.0,0.0,0.0,0.0,0.0,0.0,0.0,0.0,0.0,0.0,0.0,0.0,0.0,0.0,0.0,0.0,0.0,0.0,0.0,0.0,0.0,0.0,0.0,0.0,0.0,0.0,0.0,0.0,0.0,0.0,0.0,0.0,0.0,0.0,0.0,0.0,0.0,0.0,0.0,0.0,0.0,0.0,0.0,0.0,0.0,0.0,0.0,0.0,0.0,0.0,0.0,0.0,0.0,0.0,0.0,0.0,0.0,0.0,0.0,0.0,0.0,0.0,0.0,0.0,0.0,0.0,0.0,0.0,0.0,0.0,0.0,0.0,0.0,0.0,0.0,0.0,0.0,0.0,0.0,0.0,0.0,0.0,0.0,0.0,0.0,0.0,0.0,0.0,0.0,0.0,0.0,0.0,0.0,0.0,0.0,0.0,0.0,0.2031,0.1251,0.0571,0.0712,0.0666,0.0412,0.0,0.0,0.0,0.0,0.0,0.0,0.0,0.0,0.0,0.0,0.0,0.0,0.0,0.0,0.0,0.0,0.0,0.0,0.0,0.0,0.0,0.0,0.0,0.0,0.0,0.0,0.0,0.0,0.0,0.0,0.0,0.0,0.0,0.0,0.0,0.0,0.0,0.0,0.0,0.0,0.0,0.0,0.0,0.0,0.0,0.0,0.0,0.0,0.0,0.0,0.0,0.0,0.0,0.0,0.0,0.0,0.0,0.0,0.0,0.0,0.0,0.0,0.0,0.0,0.0,0.0,0.0,0.0,0.0,0.0,0.0,0.0,0.0,0.0,0.0,0.0,0.0,0.0,0.0,0.0,0.0,0.0,0.0,0.0,0.0,0.0,0.0,0.0,0.0,0.0,0.0,0.0,0.0,0.0,0.0,0.0,0.0,0.0,0.0,0.0,0.0,0.0,0.0,0.0,0.0,0.0,0.0,0.0,0.3665,0.2338,0.1095,0.0127,0.1133,0.1312,0.0,0.0,0.0,0.0,0.0,0.0,0.0,0.0,0.0,0.0,0.0,0.0,0.0,0.0,0.0,0.0,0.0,0.0,0.0,0.0,0.0,0.0,0.0,0.0,0.0,0.0,0.0,0.0,0.0,0.0,0.0,0.0,0.0,0.0,0.0,0.0,0.0,0.0,0.0,0.0,0.0,0.0,0.0,0.0,0.0,0.0,0.0,0.0,0.0,0.0,0.0,0.0,0.0,0.0,0.0,0.0,0.0,0.0,0.0,0.0,0.0,0.0,0.0,0.0,0.0,0.0,0.0,0.0,0.0,0.0,0.0,0.0,0.0,0.0,0.0,0.0,0.0,0.0,0.0,0.0,0.0,0.0,0.0,0.0,0.0,0.0,0.0,0.0,0.0,0.0,0.0,0.0,0.0,0.0,0.0,0.0,0.0,0.0,0.0,0.0,0.0,0.0,0.0,0.0,0.0,0.0,0.0,0.0,0.0,0.3175,0.2243,0.1322,0.0516,0.1135,0.1227,0.0,0.0,0.0,0.0,0.0,0.0,0.0,0.0,0.0,0.0,0.0,0.0,0.0,0.0,0.0,0.0,0.0,0.0,0.0,0.0,0.0,0.0,0.0,0.0,0.0,0.0,0.0,0.0,0.0,0.0,0.0,0.0,0.0,0.0,0.0,0.0,0.0,0.0,0.0,0.0,0.0,0.0,0.0,0.0,0.0,0.0,0.0,0.0,0.0,0.0,0.0,0.0,0.0,0.0,0.0,0.0,0.0,0.0,0.0,0.0,0.0,0.0,0.0,0.0,0.0,0.0,0.0,0.0,0.0,0.0,0.0,0.0,0.0,0.0,0.0,0.0,0.0,0.0,0.0,0.0,0.0,0.0,0.0,0.0,0.0,0.0,0.0,0.0,0.0,0.0,0.0,0.0,0.0,0.0,0.0,0.0,0.0,0.0,0.0,0.0,0.0,0.0,0.0,0.0,0.0,0.0,0.0,0.0,0.0,0.2687,0.2575,0.1988,0.0901,0.1565,0.162,0.0,0.0,0.0,0.0,0.0,0.0,0.0,0.0,0.0,0.0,0.0,0.0,0.0,0.0,0.0,0.0,0.0,0.0,0.0,0.0,0.0,0.0,0.0,0.0,0.0,0.0,0.0,0.0,0.0,0.0,0.0,0.0,0.0,0.0,0.0,0.0,0.0,0.0,0.0,0.0,0.0,0.0,0.0,0.0,0.0,0.0,0.0,0.0,0.0,0.0,0.0,0.0,0.0,0.0,0.0,0.0,0.0,0.0,0.0,0.0,0.0,0.0,0.0,0.0,0.0,0.0,0.0,0.0,0.0,0.0,0.0,0.0,0.0,0.0,0.0,0.0,0.0,0.0,0.0,0.0,0.0,0.0,0.0,0.0,0.0,0.0,0.0,0.0,0.0,0.0,0.0,0.0,0.0,0.0,0.0,0.0,0.0,0.0,0.0,0.0,0.0,0.0,0.0,0.0,0.0,0.0,0.0,0.0,0.2579,0.2291,0.3356,0.3009,0.123,0.2475,0.2504,0.0,0.0,0.0,0.0,0.0,0.0,0.0,0.0,0.0,0.0,0.0,0.0,0.0,0.0,0.0,0.0,0.0,0.0,0.0,0.0,0.0,0.0,0.0,0.0,0.0,0.0,0.0,0.0,0.0,0.0,0.0,0.0,0.0,0.0,0.0,0.0,0.0,0.0,0.0,0.0,0.0,0.0,0.0,0.0,0.0,0.0,0.0,0.0,0.0,0.0,0.0,0.0,0.0,0.0,0.0,0.0,0.0,0.0,0.0,0.0,0.0,0.0,0.0,0.0,0.0,0.0,0.0,0.0,0.0,0.0,0.0,0.0,0.0,0.0,0.0,0.0,0.0,0.0,0.0,0.0,0.0,0.0,0.0,0.0,0.0,0.0,0.0,0.0,0.0,0.0,0.0,0.0,0.0,0.0,0.0,0.0,0.0,0.0,0.0,0.0,0.0,0.0,0.0,0.0,0.0,0.0,0.0,0.0,0.0,0.2838,0.328,0.3142,0.2389,0.2599,0.24,0.0,0.0,0.0,0.0,0.0,0.0,0.0,0.0,0.0,0.0,0.0,0.0,0.0,0.0,0.0,0.0,0.0,0.0,0.0,0.0,0.0,0.0,0.0,0.0,0.0,0.0,0.0,0.0,0.0,0.0,0.0,0.0,0.0,0.0,0.0,0.0,0.0,0.0,0.0,0.0,0.0,0.0,0.0,0.0,0.0,0.0,0.0,0.0,0.0,0.0,0.0,0.0,0.0,0.0,0.0,0.0,0.0,0.0,0.0,0.0,0.0,0.0,0.0,0.0,0.0,0.0,0.0,0.0,0.0,0.0,0.0,0.0,0.0,0.0,0.0,0.0,0.0,0.0,0.0,0.0,0.0,0.0,0.0,0.0,0.0,0.0,0.0,0.0,0.0,0.0,0.0,0.0,0.0,0.0,0.0,0.0,0.0,0.0,0.0,0.0,0.0,0.0,0.0,0.0,0.0,0.0,0.0,0.0,0.0,0.3507,0.3718,0.3607,0.3185,0.2916,0.2547,0.2035,0.0,0.0,0.0,0.0,0.0,0.0,0.0,0.0,0.0,0.0,0.0,0.0,0.0,0.0,0.0,0.0,0.0,0.0,0.0,0.0,0.0,0.0,0.0,0.0,0.0,0.0,0.0,0.0,0.0,0.0,0.0,0.0,0.0,0.0,0.0,0.0,0.0,0.0,0.0,0.0,0.0,0.0,0.0,0.0,0.0,0.0,0.0,0.0,0.0,0.0,0.0,0.0,0.0,0.0,0.0,0.0,0.0,0.0,0.0,0.0,0.0,0.0,0.0,0.0,0.0,0.0,0.0,0.0,0.0,0.0,0.0,0.0,0.0,0.0,0.0,0.0,0.0,0.0,0.0,0.0,0.0,0.0,0.0,0.0,0.0,0.0,0.0,0.0,0.0,0.0,0.0,0.0,0.0,0.0,0.0,0.0,0.0,0.0,0.0,0.0,0.0,0.0,0.0,0.0,0.0,0.0,0.0,0.0,0.4217,0.4562,0.4365,0.3698,0.3449,0.2918,0.0,0.0,0.0,0.0,0.0,0.0,0.0,0.0,0.0,0.0,0.0,0.0,0.0,0.0,0.0,0.0,0.0,0.0,0.0,0.0,0.0,0.0,0.0,0.0,0.0,0.0,0.0,0.0,0.0,0.0,0.0,0.0,0.0,0.0,0.0,0.0,0.0,0.0,0.0,0.0,0.0,0.0,0.0,0.0,0.0,0.0,0.0,0.0,0.0,0.0,0.0,0.0,0.0,0.0,0.0,0.0,0.0,0.0,0.0,0.0,0.0,0.0,0.0,0.0,0.0,0.0,0.0,0.0,0.0,0.0,0.0,0.0,0.0,0.0,0.0,0.0,0.0,0.0,0.0,0.0,0.0,0.0,0.0,0.0,0.0,0.0,0.0,0.0,0.0,0.0,0.0,0.0,0.0,0.0,0.0,0.0,0.0,0.0,0.0,0.0,0.0,0.0,0.0,0.0,0.0,0.0,0.0,0.0,0.0,0.4562,0.4863,0.4847,0.4555,0.3879,0.3329,0.0,0.0,0.0,0.0,0.0,0.0,0.0,0.0,0.0,0.0,0.0,0.0,0.0,0.0,0.0,0.0,0.0,0.0,0.0,0.0,0.0,0.0,0.0,0.0,0.0,0.0,0.0,0.0,0.0,0.0,0.0,0.0,0.0,0.0,0.0,0.0,0.0,0.0,0.0,0.0,0.0,0.0,0.0,0.0,0.0,0.0,0.0,0.0,0.0,0.0,0.0,0.0,0.0,0.0,0.0,0.0,0.0,0.0,0.0,0.0,0.0,0.0,0.0,0.0,0.0,0.0,0.0,0.0,0.0,0.0,0.0,0.0,0.0,0.0,0.0,0.0,0.0,0.0,0.0,0.0,0.0,0.0,0.0,0.0,0.0,0.0,0.0,0.0,0.0,0.0,0.0,0.0,0.0,0.0,0.0,0.0,0.0,0.0,0.0,0.0,0.0,0.0,0.0,0.0,0.0,0.0,0.0,0.0,0.4348,0.51,0.5387,0.5474,0.5385,0.4403,0.37,0.0,0.0,0.0,0.0,0.0,0.0,0.0,0.0,0.0,0.0,0.0,0.0,0.0,0.0,0.0,0.0,0.0,0.0,0.0,0.0,0.0,0.0,0.0,0.0,0.0,0.0,0.0,0.0,0.0,0.0,0.0,0.0,0.0,0.0,0.0,0.0,0.0,0.0,0.0,0.0,0.0,0.0,0.0,0.0,0.0,0.0,0.0,0.0,0.0,0.0,0.0,0.0,0.0,0.0,0.0,0.0,0.0,0.0,0.0,0.0,0.0,0.0,0.0,0.0,0.0,0.0,0.0,0.0,0.0,0.0,0.0,0.0,0.0,0.0,0.0,0.0,0.0,0.0,0.0,0.0,0.0,0.0,0.0,0.0,0.0,0.0,0.0,0.0,0.0,0.0,0.0,0.0,0.0,0.0,0.0,0.0,0.0,0.0,0.0,0.0,0.0,0.0,0.0,0.0,0.0,0.0,0.0,0.0,0.4761,0.5715,0.6041,0.6174,0.615,0.4962,0.4038,0.0,0.0,0.0,0.0,0.0,0.0,0.0,0.0,0.0,0.0,0.0,0.0,0.0,0.0,0.0,0.0,0.0,0.0,0.0,0.0,0.0,0.0,0.0,0.0,0.0,0.0,0.0,0.0,0.0,0.0,0.0,0.0,0.0,0.0,0.0,0.0,0.0,0.0,0.0,0.0,0.0,0.0,0.0,0.0,0.0,0.0,0.0,0.0,0.0,0.0,0.0,0.0,0.0,0.0,0.0,0.0,0.0,0.0,0.0,0.0,0.0,0.0,0.0,0.0,0.0,0.0,0.0,0.0,0.0,0.0,0.0,0.0,0.0,0.0,0.0,0.0,0.0,0.0,0.0,0.0,0.0,0.0,0.0,0.0,0.0,0.0,0.0,0.0,0.0,0.0,0.0,0.0,0.0,0.0,0.0,0.0,0.0,0.0,0.0,0.0,0.0,0.0,0.0,0.0,0.0,0.0,0.0,0.0,0.5344,0.5849,0.6415,0.6728,0.6724,0.5644,0.4594,0.0,0.0,0.0,0.0,0.0,0.0,0.0,0.0,0.0,0.0,0.0,0.0,0.0,0.0,0.0,0.0,0.0,0.0,0.0,0.0,0.0,0.0,0.0,0.0,0.0,0.0,0.0,0.0,0.0,0.0,0.0,0.0,0.0,0.0,0.0,0.0,0.0,0.0,0.0,0.0,0.0,0.0,0.0,0.0,0.0,0.0,0.0,0.0,0.6137,0.0,0.0,0.0,0.0,0.0,0.0,0.0,0.0,0.0,0.0,0.0,0.0,0.0,0.0,0.0,0.0,0.0,0.0,0.0,0.0,0.0,0.0,0.0,0.0,0.0,0.0,0.0,0.0,0.0,0.0,0.0,0.0,0.0,0.0,0.0,0.0,0.0,0.0,0.0,0.0,0.0,0.0,0.0,0.0,0.0,0.0,0.0,0.0,0.0,0.0,0.0,0.0,0.0,0.0,0.0,0.0,0.0,0.0,0.0,0.5739,0.6621,0.7058,0.7293,0.727,0.6836,0.5824,0.0,0.0,0.0,0.0,0.0,0.0,0.0,0.0,0.0,0.0,0.0,0.0,0.0,0.0,0.0,0.0,0.0,0.0,0.0,0.0,0.0,0.0,0.0,0.0,0.0,0.0,0.0,0.0,0.0,0.0,0.0,0.0,0.0,0.0,0.0,0.0,0.0,0.0,0.0,0.0,0.0,0.0,0.0,0.0,0.0,0.0,0.0,0.0,0.0,0.0,0.0,0.0,0.0,0.0,0.0,0.0,0.0,0.0,0.0,0.0,0.0,0.0,0.0,0.0,0.0,0.0,0.0,0.0,0.0,0.0,0.0,0.0,0.0,0.0,0.0,0.0,0.0,0.0,0.0,0.0,0.0,0.0,0.0,0.0,0.0,0.0,0.0,0.0,0.0,0.0,0.0,0.0,0.0,0.0,0.0,0.0,0.0,0.0,0.0,0.0,0.0,0.0,0.0,0.0,0.0,0.0,0.0,0.5035,0.6151,0.7544,0.7854,0.7982,0.7982,0.8175,0.7256,0.5152,0.0,0.0,0.0,0.0,0.0,0.0,0.0,0.0,0.0,0.0,0.0,0.0,0.0,0.0,0.0,0.0,0.0,0.0,0.0,0.0,0.0,0.0,0.0,0.0,0.0,0.0,0.0,0.0,0.0,0.0,0.0,0.0,0.0,0.0,0.0,0.0,0.0,0.0,0.5349,0.657,0.0,0.0,0.0,0.0,0.0,0.0,0.0,0.0,0.7555,0.0,0.0,0.0,0.0,0.0,0.0,0.0,0.0,0.0,0.0,0.0,0.0,0.0,0.0,0.0,0.0,0.0,0.0,0.0,0.0,0.0,0.0,0.0,0.0,0.0,0.0,0.0,0.0,0.0,0.0,0.0,0.0,0.0,0.0,0.0,0.0,0.0,0.0,0.0,0.0,0.0,0.0,0.0,0.0,0.0,0.0,0.0,0.0,0.0,0.0,0.0,0.0,0.0,0.0,0.0,0.0,0.4856,0.5701,0.6781,0.8051,0.8822,0.9198,0.9198,0.9398,0.8492,0.6335,0.0,0.0,0.0,0.0,0.0,0.0,0.0,0.0,0.0,0.0,0.0,0.0,0.0,0.0,0.0,0.0,0.0,0.0,0.0,0.0,0.0,0.0,0.0,0.0,0.0,0.0,0.0,0.0,0.0,0.0,0.0,0.0,0.0,0.0,0.0,0.0,0.0,0.0,0.0,0.8431,0.8742,0.0,0.0,0.0,0.0,0.0,0.0,0.0,0.0,0.8096,0.0,0.0,0.0,0.0,0.0,0.0,0.0,0.0,0.0,0.0,0.0,0.0,0.0,0.0,0.0,0.0,0.0,0.0,0.0,0.0,0.0,0.0,0.0,0.0,0.0,0.0,0.0,0.0,0.0,0.0,0.0,0.0,0.0,0.0,0.0,0.0,0.0,0.0,0.0,0.0,0.0,0.0,0.0,0.0,0.0,0.0,0.0,0.0,0.0,0.0,0.0,0.0,0.0,0.0,0.0,0.5349,0.6657,0.7838,0.8843,0.9294,0.9486,0.9512,0.9624,0.8683,0.0,0.0,0.0,0.0,0.0,0.0,0.0,0.0,0.0,0.0,0.0,0.0,0.0,0.0,0.0,0.0,0.0,0.0,0.0,0.0,0.0,0.0,0.0,0.0,0.0,0.0,0.0,0.0,0.0,0.0,0.0,0.0,0.0,0.0,0.0,0.0,0.0,0.0,0.0,0.0,0.9457,0.9969,1.0584,0.0,0.0,0.0,0.0,0.0,0.0,0.9031,0.8396,0.0,0.0,0.0,0.0,0.0,0.0,0.0,0.0,0.0,0.0,0.0,0.0,0.0,0.0,0.0,0.0,0.0,0.0,0.0,0.0,0.0,0.0,0.0,0.0,0.0,0.0,0.0,0.0,0.0,0.0,0.0,0.0,0.0,0.0,0.0,0.0,0.0,0.0,0.0,0.0,0.0,0.0,0.0,0.0,0.0,0.0,0.0,0.0,0.0,0.0,0.0,0.0,0.0,0.0,0.0,0.5799,0.7444,0.8767,0.9637,0.9763,0.9796,0.9783,0.98,0.8796,0.0,0.0,0.0,0.0,0.0,0.0,0.0,0.0,0.0,0.0,0.0,0.0,0.0,0.0,0.0,0.0,0.0,0.0,0.0,0.0,0.0,0.0,0.0,0.0,0.0,0.0,0.0,0.0,0.0,0.0,0.0,0.0,0.0,0.0,0.0,0.0,0.0,0.0,0.0,0.0,0.0,1.0902,1.1856,1.0915,0.0,0.0,0.0,0.0,1.0897,1.0156,0.0,0.0,0.0,0.0,0.0,0.0,0.0,0.0,0.0,0.0,0.0,0.0,0.0,0.0,0.0,0.0,0.0,0.0,0.0,0.0,0.0,0.0,0.0,0.0,0.0,0.0,0.0,0.0,0.0,0.0,0.0,0.0,0.0,0.0,0.0,0.0,0.0,0.0,0.0,0.0,0.0,0.0,0.0,0.0,0.0,0.0,0.0,0.0,0.0,0.0,0.0,0.0,0.0,0.0,0.0,0.0,0.605,0.7512,0.8998,1.0326,1.0673,1.0811,1.0837,1.0597,0.9384,0.0,0.0,0.0,0.0,0.0,0.0,0.0,0.0,0.0,0.0,0.0,0.0,0.0,0.0,0.0,0.0,0.0,0.0,0.0,0.0,0.0,0.0,0.0,0.0,0.0,0.0,0.0,0.0,0.0,0.0,0.0,0.0,0.0,0.0,0.0,0.0,0.0,0.0,0.0,0.0,0.0,1.1338,1.1099,1.0895,1.0906,0.0,0.0,1.2215,1.3471,1.3227,0.0,0.0,0.0,0.0,0.0,0.0,0.0,0.0,0.0,0.0,0.0,0.0,0.0,0.0,0.0,0.0,0.0,0.0,0.0,0.0,0.0,0.0,0.0,0.0,0.0,0.0,0.0,0.0,0.0,0.0,0.0,0.0,0.0,0.0,0.0,0.0,0.0,0.0,0.0,0.0,0.0,0.0,0.0,0.0,0.0,0.0,0.0,0.0,0.0,0.0,0.0,0.0,0.0,0.0,0.0,0.5737,0.6653,0.8608,1.011,1.0974,1.1168,1.1162,1.0995,1.0747,0.94,0.0,0.0,0.0,0.0,0.0,0.0,0.0,0.0,0.0,0.0,0.0,0.0,0.0,0.0,0.0,0.0,0.0,0.0,0.0,0.0,0.0,0.0,0.0,0.0,0.0,0.0,0.0,0.0,0.0,0.0,0.0,0.0,0.0,0.0,0.0,0.0,0.0,0.0,0.0,0.0,0.0,0.0,1.2998,1.249,0.0,0.0,0.0,1.2895,1.3807,0.0,0.0,0.0,0.0,0.0,0.0,0.0,0.0,0.0,0.0,0.0,0.0,0.0,0.0,0.0,0.0,0.0,0.0,0.0,0.0,0.0,0.0,0.0,0.0,0.0,0.0,0.0,0.0,0.0,0.0,0.0,0.0,0.0,0.0,0.0,0.0,0.0,0.0,0.0,0.0,0.0,0.0,0.0,0.0,0.0,0.0,0.0,0.0,0.0,0.0,0.0,0.0,0.0,0.0,0.0,0.0,0.0,0.7147,0.9504,1.1006,1.1495,1.1543,1.1436,1.1249,1.0894,0.0,0.0,0.0,0.0,0.0,0.0,0.0,0.0,0.0,0.0,0.0,0.0,0.0,0.0,0.0,0.0,0.0,0.0,0.0,0.0,0.0,0.0,0.0,0.0,0.0,0.0,0.0,0.2687,0.0,0.0,0.0,0.0,0.0,0.0,0.0,0.0,0.0,0.0,0.0,0.0,0.0,0.0,1.2779,1.4477,1.4105,1.4095,0.0,0.0,1.3886,1.4841,1.5104,1.4496,0.0,0.0,0.0,0.0,0.0,0.0,0.0,0.0,0.0,0.0,0.0,0.0,0.0,0.0,0.0,0.0,0.0,0.0,0.0,0.0,0.0,0.0,0.0,0.0,0.0,0.0,0.0,0.0,0.0,0.0,0.0,0.0,0.0,0.0,0.0,0.0,0.0,0.0,0.0,0.0,0.0,0.0,0.0,0.0,0.0,0.0,0.0,0.0,0.0,0.0,0.0,0.0,0.0,0.0,0.6829,0.7519,0.9734,1.1197,1.1824,1.1873,1.1866,1.1839,1.129,0.9719,0.0,0.0,0.0,0.0,0.0,0.0,0.0,0.0,0.0,0.0,0.0,0.0,0.0,0.0,0.0,0.0,0.0,0.0,0.0,0.0,0.0,0.0,0.0,0.0,0.0,0.0,0.0,0.0,0.0,0.0,0.0,0.0,0.0,0.0,0.0,0.0,0.0,0.0,0.0,0.0,0.0,1.2627,1.4289,1.5149,1.6074,0.0,1.6266,1.593,1.7957,1.7743,1.6386,1.3576,0.0,0.0,0.0,0.0,0.0,0.0,0.0,0.0,0.0,0.0,0.0,0.0,0.0,0.0,0.0,0.0,0.0,0.0,0.0,0.0,0.0,0.0,0.0,0.0,0.0,0.0,0.0,0.0,0.0,0.0,0.0,0.0,0.0,0.0,0.0,0.0,0.0,0.0,0.0,0.0,0.0,0.0,0.0,0.0,0.0,0.0,0.0,0.0,0.0,0.0,0.0,0.0,0.0,0.7109,0.7752,1.023,1.1731,1.2118,1.2138,1.2051,1.1906,1.159,1.0394,0.0,0.0,0.0,0.0,0.0,0.0,0.0,0.0,0.0,0.0,0.0,0.0,0.0,0.0,0.0,0.0,0.0,0.0,0.0,0.0,0.0,0.0,0.0,0.0,0.0,0.0,0.0,0.0,0.7348,0.7627,0.6521,0.0,0.0,0.0,0.0,0.0,0.0,0.0,0.0,0.0,0.0,1.4736,1.6851,1.7231,0.0,0.0,1.7916,1.7632,1.8744,1.8145,1.6862,1.4871,1.3357,0.0,0.0,0.0,0.0,0.0,0.0,0.0,0.0,0.0,0.0,0.0,0.0,0.0,0.0,0.0,0.0,0.0,0.0,0.0,0.0,0.0,0.0,0.0,0.0,0.0,0.0,0.0,0.0,0.0,0.0,0.0,0.0,0.0,0.0,0.0,0.0,0.0,0.0,0.0,0.0,0.0,0.0,0.0,0.0,0.0,0.0,0.0,0.0,0.0,0.0,0.0,0.0,0.7299,0.7912,1.0528,1.2011,1.2298,1.2305,1.2204,1.2004,1.1915,1.1005,0.0,0.0,0.0,0.0,0.0,0.0,0.0,0.0,0.0,0.0,0.0,0.0,0.0,0.0,0.0,0.0,0.0,0.0,0.0,0.0,0.0,0.0,0.0,0.0,0.0,0.0,0.0,0.0,0.8081,0.8027,0.6457,0.0,0.0,0.0,0.0,0.0,0.0,0.0,0.0,0.0,0.0,1.6822,1.8581,1.8679,1.8641,1.8931,1.8331,1.8076,1.8595,1.8306,1.7553,1.6215,0.0,0.0,0.0,0.0,0.0,0.0,0.0,0.0,0.0,0.0,0.0,0.0,0.0,0.0,0.0,0.0,0.0,0.0,0.0,0.0,0.0,0.0,0.0,0.0,0.0,0.0,0.0,0.3519,0.0,0.0,0.3506,0.0,0.0,0.0,0.0,0.0,0.0,0.0,0.0,0.0,0.0,0.0,0.0,0.0,0.0,0.0,0.0,0.0,0.0,0.0,0.0,0.0,0.0,0.7299,0.7932,1.0566,1.2053,1.2291,1.2305,1.2291,1.2278,1.2233,1.1497,1.0004,0.0,0.0,0.0,0.0,0.0,0.0,0.0,0.0,0.0,0.0,0.0,0.0,0.0,0.0,0.0,0.0,0.0,0.0,0.0,0.0,0.0,0.0,0.0,0.0,0.0,0.0,0.4115,0.5435,0.6376,0.0,0.0,0.0,0.0,0.0,0.0,0.0,0.0,0.0,1.4231,1.6807,1.8498,1.8969,1.9172,1.9049,1.8271,1.7357,1.6983,1.7781,1.8565,1.8764,0.0,0.0,0.0,0.0,0.0,0.0,0.0,0.0,0.0,0.0,0.0,0.0,0.0,0.0,0.0,0.0,0.0,0.0,0.0,0.0,0.0,0.0,0.0,0.0,0.0,0.0,0.0,0.5328,0.4975,0.0,0.0,0.0,0.0,0.0,0.0,0.0,0.0,0.0,0.0,0.0,1.01,1.0417,0.0,0.0,0.0,0.0,0.0,0.0,0.0,0.0,0.0,0.0,0.0,0.0,0.7299,0.7999,1.0722,1.2278,1.2482,1.2378,1.2378,1.2526,1.2656,1.2002,1.0535,0.0,0.0,0.0,0.0,0.0,0.0,0.0,0.0,0.0,0.0,0.0,0.0,0.0,0.0,0.0,0.0,0.0,0.0,0.0,0.0,0.0,0.0,0.0,0.0,0.0,0.5723,0.0,0.0,0.0,0.0,0.0,0.0,0.0,0.0,0.0,0.0,1.0816,1.3602,1.6314,1.7772,1.9021,2.017,2.0706,2.0993,0.0,0.0,0.0,0.0,0.0,0.0,0.0,0.0,0.0,0.0,0.0,0.0,0.0,1.8523,1.829,1.4289,1.3708,1.3958,1.4308,0.0,0.0,0.0,0.0,0.0,0.0,0.0,0.0,0.0,0.0,0.0,0.0,0.0,0.0,0.7178,0.6838,0.6657,0.0,0.0,0.0,0.0,0.0,0.0,0.0,0.0,1.0964,1.1859,1.2527,1.2782,1.2606,1.2047,1.1032,0.9174,0.0,0.0,0.0,0.0,0.0,0.0,0.0,0.0,0.7668,0.8707,1.1114,1.2489,1.2673,1.2562,1.2666,1.2996,1.3494,1.3363,1.2567,1.3009,1.1817,0.0,0.0,0.0,0.0,0.0,0.0,0.0,0.0,0.0,0.0,0.0,0.0,0.0,0.0,0.0,0.0,0.0,0.0,0.0,0.0,0.0,0.0,0.0,0.66,0.0,0.0,0.0,0.0,0.0,0.0,0.0,0.0,0.0,1.0361,1.3357,1.6324,1.8304,1.9543,2.0286,2.033,0.0,0.0,0.0,0.0,0.0,0.0,0.0,1.961,2.0312,1.9459,1.8831,1.9296,2.0754,2.1609,2.0842,0.0,0.0,1.7971,1.7289,1.7507,1.7847,1.8263,1.8713,1.9258,2.0149,2.0754,0.0,0.0,0.0,0.0,0.8523,0.0,0.0,0.0,0.8943,0.909,0.0,0.862,0.0,0.0,0.0,0.0,0.845,1.0203,0.0,0.0,1.4377,1.5088,1.4822,1.4686,1.452,1.442,1.3516,1.2341,1.0825,0.8832,0.676,0.0,0.0,0.0,0.0,0.0,0.836,0.9969,1.1683,1.2709,1.29,1.2856,1.3185,1.3861,1.4729,1.546,1.5893,1.4057,1.2803,1.2331,0.603,0.0,0.0,0.0,0.0,0.0,0.0,0.0,0.0,0.0,0.0,0.0,0.0,0.0,0.0,0.0,0.0,0.0,0.0,0.0,0.0,0.6968,0.0,0.0,0.0,0.0,0.0,0.0,0.0,0.0,0.0,1.529,1.3156,1.5758,1.8496,2.0121,0.0,0.0,0.0,0.0,2.0481,1.878,1.8702,1.9008,1.932,2.1453,2.3095,2.3183,0.0,0.0,2.3672,2.3715,2.3439,2.1395,2.3461,2.4843,2.3245,2.1617,2.0813,2.1274,2.1436,2.1844,2.3002,2.4349,2.5393,1.3279,0.0,0.0,0.0,0.0,1.2069,1.2422,1.3052,1.2921,1.2493,1.1852,1.1701,0.0,0.0,0.0,0.0,0.0,0.0,1.3679,1.5289,1.5955,1.6806,1.7784,1.7856,1.7827,1.7644,1.6865,1.6026,1.5187,1.4301,1.0895,0.5291,0.0,0.0,0.0,0.0,0.9371,1.0297,1.1833,1.2709,1.29,1.2746,1.3361,1.4768,1.5564,1.6117,1.6437,1.6198,1.5012,1.2775,1.074,0.0,0.0,0.0,0.0,0.0,0.0,0.0,0.0,0.0,0.0,0.0,0.0,0.0,0.0,0.0,0.0,0.0,0.0,0.0,0.5348,0.779,0.8899,0.0,0.0,0.0,0.0,0.0,0.0,0.0,0.0,0.0,1.7245,1.8585,1.9738,0.0,0.0,2.0761,1.8987,2.0873,2.2226,2.1549,2.2667,0.0,2.4274,2.3991,2.4142,2.531,2.6502,2.7005,2.6226,2.6239,2.623,2.5793,2.6164,2.6381,2.6049,2.5216,2.4719,2.5186,2.5457,2.5632,2.6088,2.7105,2.7777,1.6413,1.5178,1.4262,1.4317,1.502,1.4939,1.5227,1.5716,1.567,1.5312,1.4776,1.4556,1.3846,1.2814,1.2472,0.0,0.0,0.0,1.5955,1.7567,1.7667,1.8232,1.9076,1.9178,1.9151,1.9058,1.8421,1.7834,1.7336,1.6818,1.3969,0.9029,0.0,0.9221,0.8516,0.9955,1.1074,1.1703,1.2696,1.3201,1.3149,1.3462,1.433,1.5692,1.6429,1.6874,1.7168,1.747,1.6699,1.4725,1.3753,1.214,0.0,0.0,0.0,0.0,0.0,0.0,0.0,0.0,0.0,0.0,0.0,0.7388,0.9028,0.0,0.0,0.0,0.8237,0.7893,0.8331,1.0337,0.0,0.0,0.0,0.0,0.0,0.0,0.0,1.5309,1.803,2.0011,2.0562,2.1106,2.1469,2.1453,2.1958,2.1778,2.0297,0.0,2.342,2.298,2.3971,2.5094,2.5979,2.5674,2.5862,2.7542,2.7657,2.7708,2.7908,2.777,2.7673,2.7753,2.7668,2.757,2.7796,2.7336,2.6954,2.7174,2.7368,2.7549,2.7835,2.8201,2.8278,1.9134,1.9529,1.7735,1.7073,1.7195,1.7388,1.7387,1.7278,1.7446,1.7576,1.7614,1.7114,1.6341,1.5335,1.4582,0.0,1.7019,1.7451,1.8296,1.9385,1.9385,1.9385,1.9385,1.9221,1.9211,1.9394,1.8824,1.839,1.8072,1.7449,1.6274,1.462,1.4626,1.4073,1.2967,1.2846,1.3184,1.39,1.4214,1.4183,1.3809,1.4764,1.5692,1.6568,1.7176,1.7642,1.7974,1.8008,1.7832,1.7393,1.5488,1.4699,1.5342,0.0,0.0,0.0,0.0,0.0,0.0,0.0,0.0,0.0,0.0,0.0,0.0,0.0,0.0,1.2161,1.3259,0.0,1.3652,1.39,0.0,0.0,0.0,1.3144,1.4475,1.6371,1.8016,1.9133,0.0,0.0,2.317,2.3246,2.3471,2.4117,2.4519,2.4147,2.2553,2.3478,2.4142,2.3408,2.3623,2.4311,2.5715,2.6741,2.7971,2.9478,2.9013,2.8599,2.8938,2.8512,2.8137,2.8189,2.8224,2.8464,2.8828,2.8487,2.8078,2.7914,2.7965,2.8251,2.8837,2.8605,2.8206,1.9775,2.0314,1.9865,1.9691,1.9705,1.9762,1.9572,1.9221,1.9259,1.9114,1.8851,1.8718,1.8703,1.875,1.8903,1.9221,1.9695,1.9793,2.0008,2.0292,2.0292,2.0302,2.0302,2.0264,2.0264,2.0292,2.0166,1.986,1.9474,1.9593,1.9135,1.8164,1.8417,1.6903,1.3813,1.4529,1.5168,1.5524,1.5614,1.551,1.5282,1.5755,1.6219,1.6603,1.7185,1.7642,1.7974,1.8008,1.7959,1.7852,1.7061,1.6553,1.6356,1.2788,0.0,0.0,0.0,0.0,0.0,0.0,0.0,0.0,0.0,1.1463,1.4202,0.0,0.9176,0.0,1.5828,1.6303,1.5029,1.5824,0.0,0.0,1.5287,1.5588,1.8756,1.9196,1.9823,2.1327,2.2749,2.3803,2.4324,2.4399,2.4782,2.5745,2.4895,2.3653,2.2324,2.3941,2.4976,2.4362,2.5332,2.6507,2.6919,2.8197,2.9566,3.0809,3.0432,3.0206,3.0708,2.9641,2.8975,2.9769,2.9032,2.8829,2.9805,2.9715,2.9733,3.0081,2.9926,2.9731,3.0102,3.0296,3.0281,2.0652,2.1182,2.0947,2.0859,2.085,2.0693,2.0458,2.0205,2.0205,2.0068,1.9853,1.9901,2.0018,2.0215,2.0498,2.0615,2.0615,2.0615,2.0615,2.0615,2.0615,2.0615,2.0615,2.0615,2.0615,2.0615,2.0615,2.0489,2.0255,2.0489,2.0362,1.988,2.009,1.9012,1.6686,1.6589,1.624,1.5522,1.6029,1.6448,1.6789,1.6677,1.63,1.5711,1.6665,1.6906,1.6297,1.7031,1.7058,1.6297,1.6064,1.5742,1.5254,1.3154,1.2236,0.0,0.0,0.0,0.0,0.0,0.0,0.0,0.0,0.0,0.0,0.0,1.1691,1.431,1.6986,1.7928,1.6376,1.7785,1.8919,1.9208,1.8557,1.9158,2.1772,2.1743,2.2064,2.3461,2.4267,2.4921,2.5473,2.5548,2.5762,2.6411,2.5707,2.4821,2.4128,2.5136,2.5806,2.5306,2.6355,2.7595,2.826,2.9377,3.0432,3.1148,3.0972,3.0783,3.126,3.047,2.9963,3.0638,3.0165,2.9838,3.0714,3.0722,3.081,3.1467,3.1472,3.1154,3.0979,3.0548,3.002,2.1492,2.1846,2.1434,2.1278,2.1239,2.0898,2.0703,2.0615,2.0664,2.0693,2.0693,2.0625,2.0615,2.0615,2.0615,2.0615,2.0615,2.0615,2.0615,2.0615,2.0615,2.0615,2.0615,2.0615,2.0615,2.0615,2.0615,2.0615,2.0615,2.0615,2.0576,2.0517,2.0517,2.0224,1.9563,1.8434,1.7053,1.542,1.618,1.7061,1.7917,1.7171,1.6077,1.4735,1.5999,1.6023,1.4554,1.5898,1.6005,1.4552,1.4445,1.4343,1.4136,1.3466,1.278,0.0,1.0655,0.0,0.0,0.0,0.0,0.0,0.0,0.0,0.0,1.5721,1.4912,1.4629,1.7617,1.9155,1.8219,1.9874,2.1194,2.1656,2.2052,2.2685,2.3592,2.384,2.4268,2.5244,2.5461,2.5765,2.6202,2.6349,2.6349,2.6314,2.6355,2.6255,2.622,2.6374,2.6509,2.6335,2.6937,2.7946,2.9327,3.0193,3.0796,3.1286,3.1198,3.1022,3.1574,3.1122,3.0829,3.1199,3.1145,3.1203,3.1649,3.1516,3.1614,3.2469,3.2525,3.224,3.1693,3.0639,2.9421,2.1492,2.1875,2.1797,2.1758,2.1758,2.167,2.1271,2.0625,2.0957,2.1064,2.1034,2.0732,2.0615,2.0615,2.0615,2.0615,2.0615,2.0615,2.0615,2.0615,2.0615,2.0615,2.0615,2.0615,2.0615,2.0615,2.0615,2.0615,2.0615,2.0615,2.0419,2.0049,2.0039,1.9307,1.7988,0.0,0.0,0.0,1.7643,1.7254,1.724,1.6157,1.537,1.5099,1.599,0.0,1.6248,1.6521,1.656,1.6239,1.621,0.0,0.0,0.0,0.0,0.0,0.0,0.0,0.0,0.0,0.0,0.0,1.4627,1.491,1.5672,1.6681,1.7271,1.7314,1.9111,2.0754,2.1922,2.2368,2.2681,2.2807,2.3131,2.3549,2.391,2.4544,2.5132,2.5473,2.5431,2.539,2.5499,2.5523,2.5523,2.5558,2.6094,2.6465,2.643,2.6781,2.7105,2.7132,2.7582,2.8373,2.9603,3.0269,3.0984,3.1738,3.2001,3.2114,3.2503,3.1888,3.1567,3.2182,3.168,3.1431,3.2308,3.2128,3.2005,3.287,3.2995,3.2932,3.2792,3.2473,3.2068,2.1521,2.249,2.2275,2.2197,0.0,2.1973,2.1681,2.123,2.1455,2.1562,2.1533,2.1094,2.0898,2.0879,2.0703,2.0615,2.0615,2.0615,2.0615,2.0615,2.0615,2.0615,2.0615,2.0615,2.0615,2.0615,2.0615,2.0615,2.0615,2.0615,2.0488,2.0234,2.0234,1.9805,1.904,1.9525,1.9664,1.9461,1.8929,1.849,1.8153,1.7441,1.641,1.5119,1.6141,0.0,0.0,0.0,0.0,0.0,0.0,0.0,0.0,1.605,1.6315,1.8434,1.6777,1.6342,1.7747,1.7266,1.729,1.8123,1.8189,1.7959,1.7474,1.8402,1.9118,1.9483,2.0019,2.0788,2.1973,2.2335,2.2554,2.286,2.285,2.3203,2.4275,2.4249,2.4384,2.5109,2.4944,2.4707,2.4707,2.4719,2.4707,2.4743,2.5406,2.5933,2.598,2.6469,2.7052,2.7582,2.7896,2.8612,2.9917,3.0645,3.1248,3.2014,3.2453,3.2729,3.3018,3.2646,3.2386,3.2789,3.2409,3.2284,3.2696,3.2573,3.2486,3.295,3.2995,3.2939,3.3038,3.2723,3.222,2.1498,2.2877,2.2721,2.2617,2.2598,2.2256,2.2109,2.21,2.1943,0.0,0.0,2.1543,2.1268,2.1171,2.0839,2.0713,2.0684,2.0644,2.0635,2.0713,2.0635,2.0615,2.0615,2.0615,2.0615,2.0615,2.0615,2.0615,2.0615,2.0615,2.0615,2.0615,2.0615,2.0566,2.0566,2.0566,2.0313,1.9735,1.9615,1.9375,1.8965,1.8666,1.7344,1.4951,1.6292,1.652,1.5529,1.696,1.7389,1.6552,1.661,1.6748,1.6942,1.6968,1.7693,1.9276,1.9475,1.9775,2.0399,2.0997,2.1308,2.1126,2.0976,2.056,1.9671,1.9891,2.0334,2.0869,2.0497,2.0488,2.1177,2.1655,2.2106,2.2598,2.2297,2.2811,2.4412,2.3723,2.3505,2.4518,2.4301,2.3913,2.3902,2.3913,2.3948,2.41,2.4751,2.5278,2.5445,2.6267,2.7266,2.8059,2.8423,2.895,3.0118,3.0972,3.1537,3.1868,3.2549,3.3013,3.2982,3.2995,3.3025,3.2957,3.3068,3.3056,3.3068,3.2914,3.2853,3.3068,3.2939,3.2766,3.2723,3.2164,3.1669,2.1239,2.2271,2.2804,2.3013,2.3003,2.2945,2.2916,2.2857,2.2207,2.209,2.2393,2.1982,2.1592,2.121,2.1125,2.1099,2.1103,2.0723,2.0723,2.1073,2.0781,2.0615,2.0615,2.0615,2.0615,2.0615,2.0615,2.0615,2.0615,2.0615,2.0615,2.0615,2.0615,2.0527,2.0381,2.0527,2.0459,2.0188,1.8915,1.8076,1.7646,1.6904,1.6162,1.54,1.6278,1.6668,1.652,1.7338,1.7728,1.7578,1.8124,1.8873,1.9815,1.9844,2.0484,2.1769,2.2037,2.2262,2.245,2.2687,2.2305,2.1209,2.0579,2.0171,2.005,2.0084,2.0128,2.0248,2.0489,2.0997,2.1648,2.208,2.2343,2.2502,2.2568,2.286,2.3537,2.3419,2.3498,2.4108,2.3596,2.3139,2.3139,2.3139,2.3282,2.3725,2.4322,2.4964,2.5527,2.6881,2.8012,2.8712,2.9239,2.9628,3.0055,3.0771,3.1304,3.1253,3.2132,3.2723,3.2562,3.268,3.2711,3.2723,3.2896,3.3038,3.2995,3.3068,3.2896,3.2884,3.2754,3.2624,3.1945,3.1548,3.1472,2.0413,2.1721,2.2413,2.2882,2.3101,2.3101,2.3013,2.2896,2.2572,2.2547,2.275,2.2295,2.1994,2.1892,2.1678,2.1428,2.1195,2.1245,2.1236,2.1166,2.1003,2.0928,2.0908,2.0684,2.0615,2.0615,2.0615,2.0615,2.0615,2.0615,2.0615,2.0615,2.0615,2.0566,2.0498,2.0566,2.0566,2.044,1.9757,1.9189,1.876,1.8135,1.7607,1.7135,1.7363,1.7586,1.7958,1.8658,1.921,1.9577,2.0262,2.088,2.1391,2.1495,2.1756,2.2254,2.2555,2.272,2.28,2.2304,2.1753,2.1135,2.0139,1.9561,1.9551,1.9561,1.9551,1.9572,1.9986,2.0364,2.0681,2.1344,2.1849,2.2203,2.203,2.2289,2.3067,2.2535,2.2435,2.3095,2.267,2.2225,2.2327,2.2365,2.2535,2.3026,2.3727,2.4437,2.5044,2.5871,2.6867,2.7934,2.8561,2.9264,3.0016,3.0763,3.1256,3.1468,3.2061,3.2444,3.24,3.2487,3.232,3.2077,3.2394,3.245,3.1845,3.1833,3.1877,3.1524,3.1235,3.0911,3.0621,3.0296,3.0088,1.9687,2.1033,2.2015,2.2662,2.3003,2.3091,2.2969,2.2803,2.2706,2.2838,2.2965,2.2457,2.2351,2.2448,2.2139,2.1774,2.1543,2.1771,2.172,2.1495,2.1409,2.1337,2.1348,2.1025,2.085,2.0772,2.0713,2.0664,2.0625,2.0615,2.0615,2.0615,2.0615,2.0615,2.0615,2.0615,2.0615,2.0615,2.0615,2.039,1.9922,1.96,1.9219,1.8763,1.8467,1.8483,1.8907,1.9766,2.0433,2.088,2.1737,2.2197,2.2197,2.2309,2.234,2.234,2.2555,2.2647,2.2512,2.1639,2.1028,2.0869,1.9781,1.9098,1.9098,1.9098,1.916,1.9285,1.9734,2.0024,2.0278,2.0866,2.1454,2.1881,2.1552,2.1756,2.2686,2.1814,2.1349,2.2182,2.1911,2.1655,2.1769,2.1807,2.2084,2.2689,2.3492,2.4348,2.4826,2.5045,2.5827,2.6855,2.7668,2.8458,2.9923,3.0642,3.105,3.1454,3.192,3.1909,3.1749,3.1649,3.1605,3.1024,3.1347,3.1347,3.0339,3.0406,3.0553,3.0237,2.9909,2.9544,2.9372,2.8888,2.8678,1.9467,2.0204,2.1758,2.2574,2.2838,2.3013,2.2969,2.2803,2.2574,2.2574,2.2784,2.2482,2.2428,2.2469,2.221,2.2187,2.2291,2.1983,2.2026,2.2275,2.2021,2.1826,2.1816,2.1758,2.1553,2.1151,2.1093,2.0898,2.0625,2.0615,2.0615,2.0615,2.0615,2.0615,2.0615,2.0615,2.0615,2.0615,2.0615,2.0352,1.9941,1.9873,1.9648,1.9248,1.9189,1.902,1.8734,1.9918,2.0511,2.0346,2.1486,2.2197,2.2197,2.2216,2.234,2.2629,2.2659,2.2543,2.2144,2.1502,2.0837,2.0237,1.9561,1.9098,1.9098,1.9108,1.9295,1.9689,2.01,2.0483,2.0959,2.1424,2.1731,2.1786,2.1614,2.154,2.1693,2.1578,2.1512,2.1578,2.1683,2.1769,2.1769,2.1869,2.2211,2.2946,2.4255,2.5088,2.5083,2.5267,2.5613,2.6282,2.6978,2.7806,2.8762,2.9985,3.0356,3.019,3.1081,3.1045,3.017,3.0068,3.0351,2.9647,2.9647,2.9772,2.9498,2.9533,2.9487,2.9235,2.9039,2.9039,2.8301,2.7803,2.8032,1.933,2.0421,2.1668,2.253,2.2969,2.3047,2.2872,2.2583,2.2441,2.2397,2.2362,2.2087,2.2268,2.264,2.2551,2.2435,2.2292,2.2457,2.2491,2.2462,2.2324,2.2266,2.2217,2.1719,2.1356,2.1171,2.0967,2.0732,2.0635,2.0615,2.0615,2.0615,2.0615,2.0615,2.0615,2.0615,2.0615,2.0615,2.0615,2.0517,2.0331,2.0049,1.9834,1.9658,1.9424,1.9219,1.9177,2.0285,2.0843,2.0566,2.1744,2.2416,2.2209,2.2278,2.2359,2.2494,2.2316,2.2199,2.2113,2.1112,2.0387,2.0128,1.9485,1.9098,1.9119,1.9347,1.971,2.0089,2.0281,2.0607,2.1036,2.1528,2.1807,2.1769,2.1617,2.1464,2.132,2.1205,2.1167,2.132,2.1397,2.154,2.1814,2.2283,2.2739,2.3287,2.4283,2.4923,2.4821,2.484,2.4935,2.5225,2.5808,2.6774,2.7921,2.8715,2.9175,2.9353,2.9648,2.9407,2.9096,2.8993,2.9143,2.8319,2.8634,2.8552,2.7778,2.8085,2.8226,2.7992,2.7531,2.7247,2.6696,2.6884,2.7834,1.9486,2.075,2.1723,2.2485,2.3013,2.3013,2.2784,2.2441,2.2397,2.2318,2.2097,2.183,2.2008,2.2539,2.2627,2.2485,2.2362,2.2794,2.2882,2.2624,2.265,2.2685,2.2607,2.2029,2.16,2.1356,2.1153,2.082,2.0644,2.0615,2.0615,2.0615,2.0615,2.0615,2.0615,2.0615,2.0615,2.0615,2.0615,2.0615,2.0566,2.0254,2.0098,2.0059,1.9795,1.959,1.95,2.0694,2.1204,2.0888,2.1862,2.2295,2.2036,2.1859,2.1808,2.1901,2.192,2.1772,2.1561,2.0634,2.0009,1.9813,1.9363,1.9098,1.9181,1.9533,1.9944,2.0323,2.0319,2.0486,2.1222,2.16,2.1797,2.1807,2.1655,2.1502,2.132,2.1138,2.1138,2.1254,2.1359,2.1397,2.1834,2.2439,2.2967,2.3134,2.3938,2.4635,2.4651,2.4662,2.4688,2.4726,2.5162,2.5915,2.7259,2.7988,2.8247,2.8403,2.8588,2.8669,2.8215,2.8028,2.7945,2.7305,2.7861,2.7814,2.6897,2.6897,2.7078,2.6476,2.6197,2.6052,2.5965,2.6595,2.7824,2.0033,2.0922,2.1968,2.2539,2.2794,2.2847,2.2662,2.2397,2.2397,2.2264,2.2052,2.183,2.1874,2.2132,2.2141,2.2362,2.2706,2.2759,2.2882,2.296,2.3008,2.3052,2.3071,2.3013,2.2555,2.1836,2.1689,2.1289,2.0566,2.0605,2.0615,2.0566,2.0566,2.0615,2.0615,2.0615,2.0615,2.0615,2.0615,2.0615,2.0605,2.0576,2.0546,2.0537,2.0537,2.0273,2.0054,2.1125,2.1629,2.1191,2.1486,2.1651,2.1571,2.0762,2.0441,2.0762,2.1428,2.1365,2.042,2.0128,1.9813,1.9297,1.9098,1.9075,1.9073,1.9404,1.9811,2.0318,2.0008,2.0399,2.1329,2.1555,2.1693,2.1731,2.1769,2.1693,2.1502,2.1397,2.1464,2.1474,2.1502,2.1578,2.179,2.2211,2.263,2.3012,2.3929,2.4812,2.5032,2.5237,2.5368,2.5325,2.5317,2.5471,2.6496,2.7133,2.7462,2.7541,2.7673,2.7992,2.7115,2.637,2.6332,2.6235,2.638,2.6294,2.5917,2.583,2.5965,2.583,2.582,2.5732,2.6052,2.7408,2.8562,2.0359,2.1777,2.2076,2.2441,2.2803,2.2803,2.2618,2.2397,2.2397,2.2176,2.1874,2.1741,2.1741,2.182,2.1705,2.183,2.2087,2.2397,2.2574,2.2706,2.2969,2.3101,2.3071,2.2838,2.2461,2.1934,2.1592,2.0872,1.9959,2.0284,2.0323,1.9971,2.0323,2.0615,2.0615,2.0615,2.0615,2.0615,2.0615,2.0615,2.0615,2.0615,2.0615,2.0615,2.0615,2.0537,2.0332,2.1199,2.148,2.1109,2.1237,2.1248,2.103,2.0642,2.0462,2.059,2.0698,2.0549,2.0128,1.9682,1.9363,1.9131,1.8774,1.8596,1.8626,1.8799,1.8976,1.9126,1.9421,1.9782,2.0159,2.0653,2.0972,2.1021,2.1443,2.1731,2.154,2.1387,2.1359,2.1464,2.1617,2.1731,2.1865,2.2331,2.2695,2.289,2.3841,2.4543,2.4806,2.5175,2.5513,2.5526,2.5513,2.5594,2.591,2.6235,2.6448,2.6386,2.6476,2.6562,2.6004,2.5955,2.5965,2.6014,2.5732,2.5684,2.5732,2.5732,2.5684,2.5684,2.5684,2.5955,2.6552,2.7791,2.8796,2.1212,2.2263,2.2224,2.2342,2.2681,2.2671,2.2564,2.2397,2.2388,2.2176,2.1874,2.1741,2.1687,2.1642,2.1383,2.1329,2.1499,2.19,2.2176,2.2432,2.274,2.296,2.3042,2.2799,2.2422,2.1865,2.1279,2.0524,1.9852,2.001,1.9854,1.9381,1.9932,2.0177,2.0216,2.044,2.0615,2.0615,2.0615,2.0615,2.0615,2.0615,2.0615,2.0615,2.0615,2.0615,2.0595,2.1195,2.1407,2.1209,2.1109,2.0762,2.0136,2.0072,2.0042,1.9922,1.9966,1.9879,1.9748,1.9363,1.9031,1.8841,1.8506,1.8269,1.8091,1.8254,1.8378,1.849,1.8643,1.8908,1.9027,1.9629,2.0196,2.0537,2.129,2.1731,2.1589,2.1359,2.1244,2.132,2.1502,2.1655,2.1727,2.2176,2.2483,2.2656,2.3569,2.4141,2.4351,2.4871,2.5362,2.5401,2.5545,2.5644,2.5809,2.5925,2.6021,2.5945,2.5965,2.5781,2.5684,2.5684,2.5684,2.5684,2.5684,2.5684,2.5684,2.5684,2.5732,2.5732,2.5781,2.5965,2.6903,2.8063,2.9115,2.2539,2.2502,2.2373,2.236,2.2473,2.2504,2.2441,2.2441,2.2397,2.2264,2.2008,2.182,2.1687,2.1597,2.1275,2.1042,2.1132,2.1338,2.1785,2.2309,2.2432,2.2696,2.3081,2.2994,2.2568,2.1807,2.1026,2.0557,2.0245,1.9696,1.9341,1.9222,1.9222,1.9341,1.9341,2.0089,2.0527,2.0566,2.0615,2.0615,2.0615,2.0615,2.0615,2.0615,2.0615,2.0615,2.0595,2.1118,2.1405,2.1344,2.0965,2.0105,1.9028,1.8954,1.8888,1.8841,1.9218,1.9407,1.9198,1.9075,1.8798,1.8438,1.8259,1.7886,1.7555,1.7885,1.8184,1.8136,1.8043,1.7997,1.8118,1.8838,1.9687,2.043,2.1213,2.1769,2.1693,2.1436,2.1138,2.1061,2.1292,2.1464,2.1517,2.1716,2.203,2.2491,2.3066,2.3598,2.3816,2.4506,2.4998,2.5155,2.54,2.5664,2.5684,2.5684,2.5723,2.5732,2.5732,2.5684,2.5684,2.5684,2.5684,2.5684,2.5684,2.5684,2.5771,2.582,2.583,2.5878,2.5927,2.6352,2.7431,2.8583,2.9704,2.1563,2.1629,2.2112,2.2391,2.255,2.2653,2.2671,2.2671,2.2485,2.2274,2.2097,2.183,2.1687,2.1597,2.1221,2.0997,2.0997,2.1096,2.1419,2.1909,2.2255,2.2652,2.2935,2.2789,2.2223,2.1465,2.0889,1.9962,1.9085,1.9134,1.8776,1.7836,1.8167,1.8736,1.9253,1.9578,1.9971,2.0527,2.0615,2.0615,2.0615,2.0605,2.0605,2.0615,2.0615,2.0615,2.0605,2.0799,2.0886,2.0915,2.0412,1.9706,1.8811,1.8634,1.8627,1.8573,1.8975,1.9231,1.9065,1.8741,1.8506,1.8202,1.7613,1.7123,1.6859,1.6905,1.7006,1.7016,1.7017,1.7082,1.7326,1.8479,1.9402,1.9659,2.0934,2.1741,2.1609,2.1359,2.1205,2.1128,2.1205,2.1282,2.1314,2.147,2.178,2.2227,2.2636,2.2987,2.3359,2.4092,2.459,2.4658,2.5185,2.5654,2.5684,2.5684,2.5684,2.5684,2.5684,2.5684,2.5684,2.5684,2.5684,2.5684,2.5684,2.582,2.5868,2.6052,2.6197,2.6524,2.6887,2.7468,2.8196,2.9128,3.0259,2.0889,2.1155,2.1639,2.2107,2.2409,2.2614,2.2669,2.2596,2.2454,2.2309,2.2176,2.1874,2.1741,2.1731,2.1266,2.1132,2.123,2.1087,2.1365,2.1919,2.222,2.2585,2.2755,2.2253,2.1756,2.122,2.0781,1.9883,1.8567,1.8647,1.8078,1.7066,1.7594,1.8247,1.8886,1.9499,2.0089,2.0527,2.0615,2.0615,2.0576,2.0439,2.0439,2.0576,2.0615,2.0615,2.0615,2.0615,2.0615,2.0507,2.001,1.9346,1.8682,1.8517,1.8448,1.8549,1.8774,1.8931,1.8808,1.8496,1.8066,1.7647,1.6985,1.6508,1.6369,1.626,1.6294,1.6324,1.6557,1.6689,1.6927,1.8278,1.928,1.9565,2.0907,2.166,2.1588,2.145,2.1287,2.1211,2.1132,2.1081,2.1141,2.1283,2.1629,2.2073,2.2372,2.2666,2.3081,2.374,2.4072,2.4453,2.498,2.54,2.5635,2.5684,2.5684,2.5684,2.5684,2.5684,2.5684,2.5684,2.5684,2.5684,2.5684,2.6139,2.6284,2.6686,2.6962,2.7379,2.7804,2.8423,2.9046,2.9831,3.0817,2.039,2.0957,2.1007,2.1453,2.2028,2.2354,2.2418,2.2372,2.2335,2.2353,2.2264,2.1865,2.183,2.1874,2.1311,2.123,2.1553,2.1275,2.1499,2.2059,2.2312,2.2399,2.224,2.1648,2.1268,2.1094,2.0742,2.0108,1.9143,1.8487,1.7594,1.6944,1.7391,1.7917,1.8238,1.9608,2.0167,2.0255,2.0372,2.0362,2.0411,2.0138,2.0089,2.0498,2.0576,2.0615,2.0615,2.0615,2.0615,2.0507,1.9871,1.9311,1.8756,1.8478,1.8552,1.8569,1.8707,1.864,1.8405,1.8202,1.7759,1.6881,1.6603,1.6333,1.5962,1.6132,1.628,1.6313,1.6525,1.6689,1.7009,1.8278,1.9439,2.0176,2.1283,2.1851,2.1878,2.1674,2.1489,2.1263,2.1036,2.0887,2.0917,2.1095,2.1518,2.1981,2.232,2.2656,2.3042,2.353,2.3945,2.4336,2.4727,2.498,2.5187,2.5478,2.5478,2.5527,2.5605,2.5674,2.5684,2.5684,2.5684,2.5684,2.5771,2.6235,2.6781,2.7189,2.7699,2.8121,2.8634,2.9235,2.9805,3.0468,3.131,1.9243,1.9442,2.017,2.0851,2.1466,2.1686,2.2008,2.2344,2.2241,2.2185,2.2097,2.1865,2.1741,2.1741,2.1275,2.1275,2.1553,2.1553,2.1597,2.1898,2.2153,2.1961,2.1607,2.1327,2.1055,2.0771,2.0644,2.0128,1.9301,1.8576,1.7764,1.6952,1.6796,1.7009,1.7602,1.8118,1.8567,1.9094,1.9213,1.9323,1.9476,1.9628,1.9802,2.006,2.0391,2.0586,2.0605,2.0615,2.0615,2.0615,2.0351,1.9919,1.9354,1.9293,1.9104,1.8792,1.8841,1.8774,1.8303,1.7862,1.7304,1.6682,1.6237,1.5973,1.5822,1.612,1.6261,1.6357,1.6517,1.673,1.6968,1.8345,1.9923,2.1531,2.219,2.2412,2.2403,2.2109,2.1687,2.147,2.1252,2.0997,2.083,2.1007,2.1398,2.1869,2.2249,2.2627,2.2964,2.3383,2.3809,2.3975,2.4277,2.4512,2.4766,2.5059,2.5215,2.5273,2.5439,2.5654,2.5664,2.5684,2.5684,2.5684,2.5684,2.6052,2.702,2.7757,2.8262,2.8855,2.9841,3.0588,3.0453,3.0831,3.1756,1.8393,1.8835,1.9587,2.0352,2.1204,2.1617,2.1953,2.215,2.2162,2.2106,2.2052,2.183,2.1785,2.182,2.1463,2.141,2.1687,2.1687,2.1675,2.1583,2.1646,2.1412,2.1109,2.0994,2.081,2.0644,2.0605,2.0128,1.9301,1.8616,1.7844,1.7164,1.6763,1.6927,1.7399,1.7804,1.8167,1.8581,1.8514,1.8518,1.8972,1.8972,1.9392,1.9761,2.0185,2.0352,2.0556,2.0615,2.0575,2.0521,2.0295,1.9949,1.959,1.9426,1.9185,1.8818,1.8808,1.8496,1.7964,1.7373,1.6855,1.6377,1.5938,1.5841,1.5862,1.6112,1.628,1.6308,1.6541,1.6863,1.7539,1.9115,2.0962,2.2452,2.3033,2.3111,2.299,2.249,2.2024,2.1706,2.1368,2.1025,2.0674,2.083,2.1143,2.1543,2.1943,2.2363,2.2793,2.3242,2.3613,2.3789,2.3935,2.416,2.4385,2.4658,2.4844,2.4912,2.5225,2.5518,2.5751,2.5781,2.5684,2.5684,2.5684,2.61,2.7295,2.8402,2.9096,2.9943,3.1059,3.1439,3.1193,3.1015,3.1986,1.7747,1.8624,1.9094,1.9938,2.0883,2.1734,2.1934,2.1944,2.2013,2.2008,2.2008,2.183,2.1874,2.2106,2.182,2.1776,2.182,2.1731,2.1551,2.1323,2.11,2.0809,2.0785,2.0693,2.0635,2.0566,2.0566,2.001,1.9292,1.8616,1.7853,1.7286,1.7245,1.7237,1.7326,1.7974,1.8359,1.8099,1.7725,1.77,1.8181,1.8271,1.8713,1.9401,2.0011,2.0264,2.0527,2.0586,2.0573,2.0521,2.0042,1.9867,1.961,1.9124,1.9012,1.8849,1.8612,1.8272,1.7549,1.7073,1.6545,1.6164,1.6029,1.5882,1.5954,1.6221,1.6363,1.628,1.6525,1.7147,1.8285,2.0342,2.1806,2.2828,2.3607,2.3786,2.3331,2.2833,2.2448,2.2048,2.1623,2.1133,2.0801,2.0713,2.082,2.1377,2.1765,2.2324,2.2685,2.3037,2.3359,2.3594,2.3721,2.3838,2.4053,2.4277,2.4414,2.4541,2.4951,2.5321,2.5834,2.5914,2.5732,2.5684,2.5684,2.661,2.8085,2.9004,2.9658,3.0588,3.1484,3.1661,3.1617,3.1472,3.2018,1.7201,1.7234,1.8095,1.8893,1.9718,2.0632,2.1296,2.1725,2.1742,2.1731,2.183,2.1919,2.2052,2.2106,2.2052,2.2185,2.2344,2.1924,2.1443,2.0908,2.0535,2.0417,2.0436,2.0508,2.0576,2.0411,1.9854,1.9569,1.9204,1.8287,1.7602,1.7529,1.709,1.6845,1.6927,1.7123,1.6895,1.6581,1.6404,1.6362,1.6661,1.7433,1.808,1.8789,1.9812,2.043,2.0576,2.0615,2.0582,2.0644,2.0897,2.0645,1.9849,2.0488,2.0334,1.9298,1.8948,1.8578,1.7796,1.7298,1.6936,1.665,1.653,1.6513,1.6212,1.6468,1.6525,1.6448,1.6557,1.7334,1.8843,2.0358,2.1729,2.2695,2.3495,2.3885,2.352,2.3366,2.3083,2.2658,2.2097,2.1572,2.1152,2.1016,2.1123,2.1288,2.1707,2.2262,2.2588,2.2803,2.3086,2.333,2.3393,2.3481,2.3623,2.3848,2.4043,2.4199,2.458,2.536,2.5872,2.5901,2.5711,2.5664,2.5684,2.6935,2.8402,2.9004,2.951,3.0678,3.1705,3.1705,3.1705,3.1705,3.1765,1.684,1.6773,1.7483,1.8063,1.8632,1.9457,2.0254,2.097,2.1168,2.1401,2.1731,2.2087,2.2185,2.2097,2.2318,2.2495,2.2284,2.1649,2.0994,2.0559,2.0301,2.0318,2.0283,2.0137,1.9981,1.9883,1.9687,1.9362,1.8767,1.8078,1.7651,1.7619,1.7057,1.6771,1.6689,1.6681,1.6458,1.5991,1.563,1.5552,1.5948,1.6518,1.7798,1.8765,1.9976,2.0615,2.0615,2.0615,2.0358,2.0364,2.1066,2.1273,2.0298,2.0896,2.0803,2.0122,1.9247,1.8948,1.8321,1.7557,1.7003,1.691,1.6927,1.6696,1.6507,1.6639,1.6608,1.645,1.6667,1.7408,1.9134,2.0721,2.1789,2.2736,2.3629,2.4062,2.3965,2.3796,2.3421,2.2909,2.2286,2.173,2.1396,2.1269,2.1025,2.1025,2.1641,2.2158,2.2058,2.2311,2.2721,2.2964,2.3071,2.3149,2.3188,2.3374,2.3682,2.3877,2.4141,2.5185,2.6155,2.5956,2.5641,2.5952,2.6418,2.7115,2.8355,2.8866,2.9704,3.0913,3.1705,3.1705,3.1705,3.1705,3.1753,1.6613,1.6632,1.7077,1.7494,1.786,1.8605,1.9484,2.0339,2.0512,2.1078,2.1687,2.2211,2.2318,2.2274,2.2618,2.252,2.1954,2.125,2.0619,2.037,2.0246,2.0175,2.0089,1.9657,1.9134,1.9015,1.8926,1.8647,1.8256,1.7772,1.7375,1.7416,1.7017,1.673,1.6689,1.6561,1.6275,1.5723,1.5389,1.5258,1.5777,1.6158,1.7471,1.919,1.9953,2.045,2.0527,2.0556,2.0253,1.9539,2.0818,2.112,2.0959,2.1154,2.0948,2.0831,1.9855,1.9259,1.8639,1.7974,1.7505,1.717,1.7306,1.6997,1.6756,1.6699,1.6644,1.6713,1.6944,1.7836,1.9231,2.1068,2.2261,2.3022,2.3856,2.4341,2.4286,2.3996,2.3531,2.3143,2.2574,2.1973,2.1602,2.1377,2.1016,2.0909,2.1514,2.1934,2.1914,2.2077,2.2613,2.2877,2.3023,2.3081,2.312,2.314,2.3383,2.3663,2.3879,2.5098,2.6277,2.6563,2.6568,2.7018,2.751,2.8028,2.8634,2.9418,3.0306,3.1383,3.1705,3.1705,3.1705,3.1705,3.1753,1.6199,1.6013,1.6907,1.7456,1.7852,1.8711,1.9521,2.0447,2.0484,2.0997,2.1687,2.2167,2.2344,2.2441,2.2838,2.2558,2.173,2.0959,2.052,2.0332,2.0121,1.9863,1.9578,1.9173,1.8479,1.7602,1.7521,1.761,1.7529,1.7049,1.6927,1.6853,1.6771,1.6689,1.6569,1.6299,1.58,1.5278,1.5063,1.4972,1.5034,1.6167,1.7496,1.9237,1.9562,1.9905,2.0362,2.0489,2.0322,1.9922,2.0456,2.0444,2.0487,2.1528,2.1417,2.0461,2.038,1.993,1.8677,1.9001,1.869,1.8333,1.825,1.7985,1.7277,1.6991,1.6891,1.696,1.777,1.8899,1.9283,2.1368,2.2523,2.2989,2.3525,2.4149,2.3827,2.3662,2.3594,2.3414,2.284,2.2314,2.1982,2.1689,2.1455,2.1426,2.1865,2.2139,2.2119,2.2389,2.2877,2.3023,2.3071,2.3091,2.3101,2.3101,2.3242,2.355,2.4003,2.5184,2.6292,2.7183,2.7685,2.825,2.8315,2.8391,2.9096,2.9977,3.0678,3.1528,3.1661,3.1705,3.1705,3.1705,3.1705,1.6477,1.6258,1.6588,1.6817,1.6951,1.7264,1.8326,1.9575,1.9795,2.0529,2.1499,2.2087,2.2309,2.2388,2.2299,2.1979,2.1269,2.0591,2.0292,2.0226,1.9869,1.9499,1.9173,1.8767,1.8046,1.7277,1.6837,1.6722,1.696,1.6763,1.6599,1.6648,1.6599,1.6566,1.6468,1.618,1.5403,1.4793,1.4567,1.4523,1.4489,1.6181,1.7817,1.8311,1.864,1.8864,1.8983,1.8839,1.8653,1.8618,1.9211,1.9468,1.9907,2.0501,2.1207,2.0292,2.052,2.0293,1.9018,1.9325,1.903,1.8212,1.8465,1.8211,1.7493,1.7191,1.7091,1.7381,1.7713,1.9027,1.9883,2.1589,2.2433,2.299,2.3658,2.3982,2.3864,2.3664,2.3584,2.3584,2.2968,2.248,2.2393,2.2139,2.1943,2.2051,2.2305,2.2353,2.2334,2.2685,2.3071,2.2994,2.3003,2.3101,2.3101,2.3101,2.3101,2.3378,2.4135,2.5314,2.6303,2.7228,2.8554,2.9629,2.95,2.9066,2.9647,3.0543,3.1104,3.1528,3.1617,3.1705,3.1705,3.1705,3.1705,1.6805,1.6588,1.6359,1.6265,1.6265,1.6298,1.7178,1.8465,1.9193,2.0113,2.1284,2.1741,2.1998,2.2031,2.1729,2.1278,2.0791,2.0148,1.9956,2.0115,1.935,1.8935,1.8767,1.8158,1.7391,1.6927,1.6525,1.6237,1.6566,1.6648,1.6648,1.6599,1.6435,1.6221,1.5992,1.555,1.4812,1.4186,1.3856,1.3997,1.4881,1.6348,1.7528,1.755,1.7603,1.7666,1.7775,1.7526,1.7474,1.7687,1.815,1.8608,1.8872,1.9568,1.9982,2.007,2.0421,2.0196,1.9608,1.9825,1.967,1.8545,1.8226,1.7895,1.7402,1.7123,1.7161,1.7679,1.8241,1.8948,2.0253,2.1539,2.2412,2.3053,2.3668,2.4057,2.3897,2.3701,2.3396,2.3201,2.2807,2.2728,2.2656,2.2604,2.2461,2.2441,2.2685,2.2656,2.2676,2.2808,2.3052,2.2906,2.2906,2.3052,2.3101,2.3101,2.3101,2.3208,2.4217,2.5445,2.6376,2.7255,2.8743,3.0123,3.0361,3.0128,3.0648,3.0958,3.1383,3.1661,3.1705,3.1705,3.1705,3.1705,3.1705,1.6616,1.6588,1.6588,1.6541,1.6636,1.7333,1.7746,1.8017,1.9355,2.0093,2.0311,2.1051,2.1517,2.1433,2.1148,2.1023,2.0702,1.9783,1.9543,2.001,1.8776,1.8046,1.7965,1.7074,1.6722,1.6484,1.6245,1.6327,1.6533,1.6648,1.6607,1.6476,1.6263,1.5966,1.5108,1.4683,1.375,1.3147,1.3044,1.3735,1.5047,1.6201,1.6766,1.6956,1.6948,1.6904,1.6856,1.6648,1.6855,1.7441,1.7536,1.7887,1.8245,1.8261,1.8313,1.8975,1.9982,2.0962,1.9795,2.0294,2.0401,1.9164,1.8668,1.8021,1.729,1.6812,1.6968,1.7761,1.8526,1.945,2.0585,2.205,2.2848,2.3289,2.3676,2.3826,2.3711,2.3711,2.345,2.3178,2.2886,2.3022,2.3041,2.3018,2.2964,2.2974,2.2964,2.2916,2.2916,2.3033,2.3101,2.2974,2.2916,2.3052,2.3101,2.3101,2.3135,2.3135,2.438,2.558,2.6315,2.7304,2.8836,3.0013,3.0374,3.0866,3.1208,3.1472,3.1661,3.1705,3.1705,3.1705,3.1705,3.1705,3.1705,1.6918,1.6784,1.6683,1.6494,1.6407,1.6723,1.7091,1.7692,1.8711,1.9492,1.9994,2.0645,2.0953,2.0905,2.0918,2.0919,2.0481,1.9186,1.8966,1.9362,1.8126,1.7188,1.7188,1.6911,1.6558,1.6211,1.6203,1.6402,1.6607,1.6558,1.6476,1.6312,1.5767,1.5186,1.442,1.3886,1.3112,1.2556,1.2513,1.3293,1.4469,1.5455,1.6108,1.6325,1.607,1.5853,1.5549,1.5149,1.5493,1.6061,1.6378,1.6979,1.762,1.791,1.8031,1.8152,1.9402,1.9913,1.9578,2.0479,2.012,1.9234,1.8404,1.7583,1.6937,1.6774,1.6954,1.7752,1.8722,1.9676,2.078,2.2301,2.3063,2.3546,2.3566,2.3381,2.3343,2.357,2.3484,2.3212,2.3008,2.3134,2.3215,2.3089,2.3022,2.3086,2.3076,2.3057,2.3003,2.3062,2.3101,2.3081,2.3052,2.3091,2.3101,2.3091,2.3178,2.343,2.4734,2.5748,2.6285,2.7349,2.8893,2.9965,3.0481,3.0973,3.156,3.1705,3.1705,3.1705,3.1705,3.1705,3.1705,3.1705,3.1717,1.7106,1.6878,1.673,1.6548,1.6312,1.6251,1.6534,1.6951,1.8017,1.8796,1.9497,2.0245,2.0545,2.0497,2.0797,2.0811,2.0438,1.8771,1.8674,1.8447,1.7513,1.6617,1.6657,1.6706,1.6435,1.6095,1.5899,1.6229,1.6443,1.627,1.5982,1.6278,1.5436,1.4552,1.3922,1.3262,1.2505,1.1713,1.2176,1.3021,1.405,1.497,1.5524,1.5648,1.5397,1.4874,1.4313,1.3866,1.4134,1.5142,1.5721,1.6439,1.7404,1.7838,1.7991,1.8158,1.8955,1.9277,1.9238,1.958,1.9477,1.8793,1.7796,1.709,1.6711,1.6817,1.726,1.7778,1.8404,1.9497,2.0702,2.1816,2.2479,2.2908,2.3176,2.2945,2.2761,2.2862,2.2948,2.276,2.2773,2.3212,2.3235,2.3064,2.3044,2.3173,2.3188,2.3115,2.3125,2.3081,2.3091,2.3081,2.3101,2.3144,2.3178,2.3178,2.3222,2.3854,2.5158,2.6008,2.6584,2.7566,2.8986,2.9821,3.0422,3.1019,3.15,3.1609,3.1705,3.1705,3.1705,3.1705,3.1705,3.1749,3.1805,1.6878,1.6636,1.6878,1.6784,1.6588,1.7318,1.6897,1.6204,1.7692,1.8326,1.8716,1.9694,2.0483,2.0494,2.0473,2.051,2.0469,1.8776,1.8527,1.8046,1.696,1.618,1.6263,1.6221,1.5982,1.6004,1.5733,1.594,1.6154,1.5394,1.5526,1.5831,1.5019,1.4077,1.319,1.2473,1.2143,1.1733,1.2317,1.317,1.4077,1.49,1.5539,1.5665,1.535,1.4874,1.4306,1.3874,1.4096,1.5281,1.5674,1.6407,1.7428,1.7794,1.7906,1.8046,1.8227,1.8541,1.868,1.8813,1.8882,1.848,1.7707,1.6661,1.6436,1.647,1.6962,1.7726,1.8175,1.877,1.9698,2.0485,2.1566,2.1951,2.2207,2.1953,2.1789,2.1978,2.2064,2.2154,2.2516,2.3064,2.3212,2.3066,2.303,2.312,2.2951,2.2879,2.3037,2.3042,2.3062,2.3071,2.3091,2.3178,2.3309,2.3474,2.394,2.4659,2.5788,2.6464,2.7021,2.8099,2.9039,2.9617,3.0194,3.0838,3.138,3.156,3.1681,3.1705,3.1705,3.1705,3.1805,3.1849,3.1906,1.7059,1.6831,1.6784,1.6494,1.6109,1.6386,1.6251,1.6008,1.7037,1.8118,1.886,1.9935,2.049,2.0386,1.9925,1.9785,1.9539,1.7997,1.7674,1.7147,1.627,1.5782,1.5906,1.6064,1.6079,1.6023,1.5636,1.5767,1.6443,1.4921,1.4713,1.4754,1.4329,1.3112,1.2174,1.1966,1.2063,1.2577,1.2997,1.3753,1.4594,1.5067,1.539,1.5357,1.5668,1.4889,1.4074,1.4267,1.4758,1.5294,1.5825,1.6643,1.7408,1.763,1.7658,1.7646,1.7746,1.7701,1.7905,1.8053,1.8137,1.7345,1.6785,1.637,1.6272,1.6482,1.671,1.7261,1.7843,1.8469,1.8991,1.9927,2.081,2.1034,2.1004,2.0721,2.0961,2.1183,2.1377,2.1539,2.2322,2.3115,2.3135,2.3074,2.3069,2.3076,2.2827,2.2637,2.2787,2.2847,2.2818,2.2906,2.2925,2.3418,2.3634,2.4137,2.4691,2.5579,2.6423,2.6958,2.7458,2.795,2.8823,2.9388,2.9953,3.0561,3.1067,3.1464,3.1657,3.1693,3.1749,3.1749,3.1849,3.1994,3.2038,1.7019,1.6744,1.6548,1.6258,1.5927,1.5832,1.5825,1.592,1.6574,1.7705,1.9138,1.9983,2.0431,2.0231,1.9706,1.935,1.8895,1.7674,1.6944,1.6337,1.5767,1.545,1.5496,1.5423,1.5211,1.5543,1.4979,1.4834,1.5665,1.4317,1.3906,1.3726,1.3322,1.2382,1.1666,1.1628,1.2314,1.3252,1.3669,1.4216,1.5061,1.5289,1.5614,1.5495,1.5668,1.5258,1.4539,1.4558,1.4842,1.5393,1.5935,1.6558,1.7074,1.7397,1.7338,1.7184,1.6999,1.6804,1.705,1.727,1.7225,1.6504,1.6339,1.6192,1.6272,1.6441,1.6588,1.6653,1.7398,1.8001,1.8226,1.8816,1.9643,1.9878,1.9462,1.9272,2.011,2.055,2.0749,2.0955,2.1847,2.2659,2.2775,2.2685,2.2686,2.2659,2.2478,2.2343,2.2386,2.2451,2.2432,2.2568,2.2701,2.338,2.4058,2.4693,2.5368,2.6287,2.704,2.7458,2.7926,2.8339,2.8691,2.928,2.9809,3.0266,3.0826,3.1368,3.1585,3.1705,3.1761,3.1849,3.2069,3.2169,3.2257,1.6744,1.6224,1.6224,1.6224,1.6076,1.5933,1.5825,1.5994,1.6591,1.7485,1.8639,1.9637,2.0151,2.0016,1.9271,1.8856,1.8527,1.731,1.6542,1.6173,1.5269,1.5103,1.4919,1.4674,1.4336,1.4252,1.3682,1.3487,1.4395,1.3335,1.2941,1.2714,1.2391,1.2132,1.1365,1.1628,1.2437,1.3535,1.3831,1.4636,1.5269,1.556,1.5924,1.5994,1.5684,1.5304,1.4956,1.4675,1.4964,1.551,1.5828,1.6359,1.6898,1.6966,1.6935,1.6901,1.655,1.639,1.6401,1.6537,1.6219,1.5987,1.5993,1.6042,1.6083,1.62,1.6368,1.6438,1.6761,1.6903,1.7082,1.7422,1.8296,1.8524,1.8097,1.8294,1.9153,2.0177,2.0392,2.0709,2.1351,2.1966,2.2158,2.2237,2.2221,2.219,2.2073,2.2016,2.2063,2.2002,2.1992,2.2343,2.2601,2.3448,2.4232,2.5196,2.6033,2.6964,2.7592,2.7966,2.8179,2.8391,2.8799,2.922,2.9713,3.0218,3.079,3.1332,3.1568,3.1849,3.1906,3.2038,3.2225,3.2356,3.2344,1.6697,1.6224,1.6224,1.6123,1.5927,1.5832,1.5967,1.6504,1.7394,1.7898,1.8052,1.8961,1.9408,1.9103,1.823,1.7634,1.735,1.655,1.5824,1.5658,1.4692,1.4776,1.4545,1.396,1.3553,1.3581,1.2828,1.2515,1.3627,1.2476,1.1909,1.1695,1.1558,1.1472,1.2211,1.2984,1.4048,1.4929,1.5345,1.5726,1.6023,1.6139,1.6211,1.6219,1.5755,1.5358,1.498,1.4749,1.5109,1.5463,1.57,1.6289,1.6684,1.6713,1.655,1.6473,1.6146,1.5718,1.5261,1.4979,1.5026,1.5392,1.5763,1.5818,1.5983,1.6179,1.6261,1.6388,1.656,1.6693,1.6782,1.6976,1.7441,1.7308,1.7159,1.7573,1.8327,1.9531,2.025,2.0605,2.1148,2.1647,2.1958,2.1841,2.1807,2.162,2.1511,2.1685,2.177,2.1611,2.1562,2.2093,2.2579,2.3495,2.4383,2.5215,2.6408,2.7487,2.8007,2.8299,2.8471,2.851,2.8595,2.8871,2.952,3.0224,3.0778,3.1315,3.178,3.2038,3.2081,3.2081,3.2213,3.2344,3.24,1.6454,1.6076,1.6082,1.5974,1.5825,1.5825,1.6062,1.6554,1.7347,1.7549,1.7519,1.8087,1.8487,1.8078,1.7131,1.6363,1.6206,1.5193,1.4706,1.458,1.3808,1.3814,1.3668,1.3007,1.2429,1.2487,1.2111,1.1772,1.2338,1.1376,1.1205,1.1297,1.0814,1.1252,1.2169,1.3112,1.4168,1.5005,1.5636,1.627,1.6443,1.6519,1.6393,1.6006,1.5614,1.5281,1.4849,1.4877,1.5202,1.5349,1.5755,1.624,1.6388,1.6345,1.6165,1.6062,1.5593,1.5169,1.4661,1.4013,1.4294,1.4756,1.509,1.5288,1.543,1.5532,1.5823,1.6079,1.6517,1.6561,1.6531,1.6681,1.6654,1.6574,1.6976,1.7351,1.8241,1.9487,2.0479,2.0809,2.1146,2.154,2.1731,2.1504,2.1356,2.1141,2.0897,2.1184,2.1417,2.125,2.1143,2.1569,2.222,2.2991,2.3981,2.5095,2.6421,2.7947,2.8351,2.851,2.851,2.851,2.851,2.8631,2.9436,3.017,3.0766,3.1298,3.178,3.2081,3.2169,3.2213,3.2245,3.2257,3.2313,1.6028,1.5832,1.5825,1.5818,1.5758,1.5765,1.5851,1.6036,1.6213,1.6533,1.6896,1.7147,1.735,1.7277,1.6198,1.5621,1.533,1.4097,1.3773,1.3307,1.2741,1.2884,1.2407,1.1473,1.1284,1.1145,1.089,1.0622,1.0848,1.0824,1.0998,1.13,1.1033,1.1262,1.1809,1.2595,1.3698,1.4789,1.5925,1.6435,1.6648,1.6681,1.641,1.5959,1.5482,1.5088,1.4786,1.4773,1.4897,1.5163,1.5591,1.5769,1.584,1.5822,1.5805,1.562,1.5089,1.4609,1.4314,1.3673,1.32,1.3382,1.3411,1.384,1.4421,1.4812,1.521,1.5658,1.6112,1.6239,1.6305,1.6365,1.6415,1.6681,1.7082,1.7764,1.8598,1.9638,2.0634,2.1185,2.154,2.1769,2.1731,2.1512,2.1215,2.1089,2.0886,2.0752,2.0948,2.0909,2.083,2.0889,2.158,2.238,2.3499,2.4919,2.6348,2.7837,2.8327,2.851,2.851,2.851,2.851,2.8775,2.9508,3.0218,3.1019,3.1503,3.1853,3.2081,3.2169,3.2169,3.2157,3.2113,3.2125,1.6211,1.5825,1.5825,1.5664,1.5517,1.5438,1.5243,1.5082,1.5978,1.6369,1.6077,1.635,1.6296,1.5974,1.5179,1.4552,1.4055,1.3639,1.3519,1.2966,1.2186,1.2229,1.1762,1.0933,1.0589,1.0332,1.0088,0.9724,0.9785,1.0071,1.0732,1.1153,1.0816,1.098,1.1514,1.2217,1.3347,1.4531,1.576,1.6353,1.6607,1.6648,1.6305,1.5848,1.5388,1.4973,1.4614,1.4613,1.4701,1.482,1.547,1.577,1.5805,1.5805,1.5805,1.5611,1.4732,1.3781,1.3564,1.2579,1.1885,1.199,1.1959,1.2652,1.3448,1.4171,1.4609,1.5182,1.5815,1.6121,1.614,1.6126,1.6106,1.6296,1.6903,1.7917,1.8829,1.9874,2.0867,2.1349,2.1693,2.1769,2.1693,2.1474,2.1177,2.1079,2.0925,2.0731,2.0615,2.0615,2.0615,2.0673,2.1297,2.2218,2.3513,2.4886,2.6297,2.7559,2.81,2.8498,2.851,2.851,2.851,2.8883,2.9556,3.0458,3.1452,3.1781,3.195,3.2038,3.2125,3.2113,3.2113,3.2025,3.1994,1.6204,1.6096,1.5752,1.5477,1.521,1.5021,1.4759,1.4785,1.5482,1.5654,1.5458,1.5228,1.5095,1.4887,1.4048,1.3379,1.3052,1.2625,1.2375,1.2112,1.1746,1.1427,1.0968,1.0564,1.02,0.9896,0.9647,0.9418,0.9301,0.935,0.9877,1.0319,1.0156,1.0569,1.1112,1.1801,1.2632,1.3904,1.5047,1.5933,1.627,1.6427,1.6176,1.5561,1.52,1.4934,1.4381,1.4444,1.4485,1.4677,1.5363,1.577,1.5805,1.5805,1.5805,1.5541,1.4446,1.3753,1.3346,1.2063,1.1372,1.1117,1.1117,1.1626,1.2505,1.3339,1.4027,1.4728,1.5536,1.6132,1.6004,1.5905,1.5822,1.5752,1.6854,1.7989,1.9076,2.0157,2.0838,2.1349,2.1578,2.1693,2.1617,2.1359,2.1138,2.1012,2.0848,2.0693,2.0615,2.0615,2.0615,2.0625,2.1332,2.2199,2.3556,2.4843,2.6191,2.7352,2.8076,2.841,2.8447,2.857,2.8619,2.9015,2.9556,3.0458,3.1368,3.1721,3.1893,3.2038,3.2081,3.2081,3.1981,3.1893,3.1893,1.6096,1.6418,1.5689,1.5165,1.4918,1.4663,1.4615,1.4671,1.472,1.4831,1.4915,1.4159,1.4104,1.4104,1.3209,1.2485,1.2112,1.1731,1.1435,1.0992,1.079,1.0584,1.0403,0.9862,0.974,0.9684,0.9435,0.9018,0.9181,0.93,0.9365,0.938,0.9863,1.0311,1.0669,1.1475,1.2253,1.3008,1.4132,1.5012,1.5455,1.579,1.5955,1.4929,1.4946,1.5142,1.4464,1.4256,1.4346,1.4784,1.5221,1.5699,1.5805,1.5805,1.5805,1.5328,1.4302,1.3716,1.3091,1.199,1.1335,1.1117,1.1117,1.1223,1.1885,1.2981,1.3854,1.4421,1.5217,1.5813,1.5861,1.5842,1.5776,1.5916,1.6657,1.7666,1.8669,1.9943,2.1146,2.154,2.1655,2.1731,2.1578,2.132,2.1138,2.0935,2.077,2.0605,2.0683,2.0683,2.0722,2.0722,2.1407,2.2268,2.3388,2.4687,2.6016,2.7113,2.7965,2.8398,2.8498,2.8619,2.8739,2.9256,2.9821,3.0338,3.1031,3.1491,3.1849,3.1994,3.1994,3.1994,3.195,3.1849,3.1805,1.594,1.5636,1.4988,1.4848,1.5059,1.4781,1.4565,1.4482,1.4314,1.4566,1.4873,1.4321,1.3766,1.3385,1.2705,1.1977,1.1154,1.1214,1.0829,1.0628,1.029,1.0171,1.0156,0.9627,0.9433,0.9187,0.8903,0.8708,0.8918,0.9173,0.9498,0.9763,1.0117,1.0355,1.0528,1.1268,1.175,1.2394,1.2954,1.3776,1.4197,1.4597,1.4714,1.4381,1.4484,1.4569,1.4037,1.3755,1.4101,1.4569,1.5034,1.547,1.577,1.5805,1.5805,1.5513,1.4374,1.3716,1.3055,1.21,1.126,1.1117,1.1117,1.1117,1.1626,1.2799,1.3674,1.4193,1.4773,1.5351,1.5757,1.5756,1.5763,1.6085,1.6501,1.7423,1.8381,1.9855,2.1377,2.1655,2.1769,2.1655,2.1502,2.132,2.1138,2.0935,2.0722,2.0634,2.0867,2.0944,2.0982,2.1098,2.1461,2.2334,2.3427,2.4718,2.6143,2.7108,2.7956,2.8302,2.8498,2.8582,2.8727,2.9496,3.0122,3.0506,3.0927,3.1476,3.1793,3.1893,3.1893,3.1893,3.1906,3.1817,3.1761,1.5899,1.5645,1.5072,1.4867,1.4893,1.4677,1.4482,1.4391,1.4181,1.4188,1.4195,1.3548,1.2997,1.2619,1.2112,1.1462,1.0641,1.0868,1.0694,1.0408,1.0102,0.9915,0.9689,0.9339,0.9311,0.9071,0.8875,0.8784,0.8818,0.9061,0.9461,0.9712,1.0113,1.0434,1.0589,1.0946,1.1389,1.2015,1.21,1.2378,1.3016,1.3661,1.4074,1.3971,1.4129,1.4207,1.4015,1.3704,1.3964,1.4569,1.5177,1.5505,1.5761,1.5805,1.5805,1.5399,1.4517,1.3491,1.3055,1.2254,1.1223,1.1186,1.1117,1.1117,1.1558,1.2622,1.3105,1.3682,1.446,1.5088,1.5499,1.5615,1.5637,1.5822,1.6895,1.7989,1.9107,2.0421,2.1339,2.1731,2.1693,2.154,2.1359,2.1167,2.0984,2.0819,2.0605,2.0605,2.0828,2.1395,2.1395,2.1652,2.2172,2.2718,2.3705,2.5038,2.6417,2.7269,2.7951,2.8278,2.851,2.8522,2.8751,2.9424,3.0001,3.0446,3.0934,3.1452,3.1681,3.1805,3.1805,3.1749,3.1761,3.1817,3.1761,1.5859,1.5864,1.5362,1.4957,1.4671,1.4517,1.4356,1.4181,1.4055,1.3639,1.3052,1.2314,1.1843,1.1677,1.1343,1.0819,1.0559,1.0651,1.0516,1.0177,0.9799,0.9647,0.9313,0.893,0.8898,0.9028,0.9065,0.8941,0.8861,0.9208,0.9473,0.9473,0.9773,1.0158,1.0509,1.0694,1.1017,1.1347,1.1445,1.125,1.201,1.2984,1.3265,1.3614,1.4127,1.4569,1.4179,1.4043,1.408,1.4605,1.5292,1.562,1.577,1.5805,1.5805,1.5434,1.4625,1.3934,1.3419,1.2365,1.1669,1.1298,1.1186,1.1335,1.1781,1.2224,1.2709,1.3339,1.4116,1.4793,1.5199,1.5645,1.5722,1.5945,1.7203,1.847,1.9659,2.0779,2.13,2.1731,2.1617,2.1425,2.1244,2.1022,2.0858,2.0654,2.0615,2.0615,2.0838,2.1614,2.2059,2.2574,2.3243,2.3801,2.4175,2.537,2.6733,2.7167,2.7774,2.8182,2.851,2.8522,2.8727,2.922,2.9773,3.0314,3.0874,3.1392,3.1548,3.1749,3.1705,3.1705,3.1705,3.1761,3.1717,1.5564,1.5176,1.4588,1.4375,1.444,1.4559,1.4146,1.3379,1.3476,1.2881,1.1989,1.1688,1.1602,1.1892,1.1305,1.0699,1.0168,1.0386,1.0124,0.9729,0.9489,0.9385,0.9131,0.8657,0.8356,0.8613,0.9056,0.9246,0.9203,0.9539,0.9765,0.9771,1.0021,1.0331,1.0579,1.0737,1.093,1.1123,1.1096,1.1025,1.1048,1.1746,1.208,1.2589,1.3273,1.3578,1.374,1.4175,1.4389,1.482,1.5328,1.5699,1.5805,1.5805,1.5805,1.5584,1.4732,1.4394,1.3738,1.2806,1.2218,1.1855,1.1706,1.1484,1.1855,1.2187,1.2673,1.3119,1.3894,1.4646,1.5177,1.5907,1.6178,1.6484,1.735,1.855,1.9777,2.0702,2.1464,2.1617,2.1617,2.1425,2.1205,2.1012,2.078,2.0654,2.0615,2.0605,2.075,2.1652,2.266,2.3316,2.4011,2.4192,2.4322,2.571,2.6882,2.7258,2.7669,2.821,2.851,2.851,2.8787,2.9232,2.9725,3.0278,3.0783,3.1356,3.156,3.1705,3.1705,3.1705,3.1705,3.1705,3.1705]}]]